GFSSGP_700_temp_000.txt.gz
Temp
13 13 12 13 12 14 11 11 12 11 10 10 11 10 10 10 9 10 9 9 9 9 9 9 9 9 9 9 9 9 9 9 9 9 8 8 8 8 8 8 8 8 8 8 8 8 8 8 8
13 13 13 12 15 15 14 13 13 11 10 10 11 10 10 10 11 10 10 10 10 9 9 9 9 9 9 9 9 9 9 9 9 8 8 8 8 8 8 8 8 8 8 8 8 8 8 8 8
13 13 12 14 15 15 14 13 11 10 11 10 11 11 9 11 10 10 10 10 10 9 9 9 9 9 9 9 9 9 9 9 9 9 8 8 8 8 8 8 8 8 8 8 8 8 8 8 8
13 13 13 15 15 14 13 12 11 11 11 12 11 11 11 11 11 11 10 10 9 9 9 9 9 9 9 9 9 9 9 9 9 9 9 8 8 8 8 8 8 8 8 8 8 8 8 8 8
14 13 15 16 15 14 13 12 11 12 11 12 10 11 11 11 11 10 10 10 10 10 10 9 9 9 9 9 9 9 9 9 9 9 9 9 8 8 8 8 8 8 8 8 8 8 8 8 8
13 14 17 16 15 13 13 12 11 11 11 12 11 12 11 11 11 10 10 10 10 10 9 9 9 9 9 9 9 9 9 9 9 9 9 8 8 8 8 7 8 8 8 8 8 8 8 8 8
14 15 16 16 15 14 13 12 12 11 11 12 12 12 12 11 11 11 10 10 10 10 10 9 9 9 9 9 9 9 9 9 9 9 8 8 8 8 8 8 8 8 8 8 8 8 8 8 8
14 15 16 16 16 15 13 12 12 11 11 12 11 12 12 12 11 11 11 11 10 10 10 9 10 10 10 9 9 9 9 9 9 9 8 8 8 8 8 8 8 8 8 8 8 8 8 8 8
15 16 17 16 16 15 14 13 13 12 13 13 12 11 12 12 12 11 11 10 10 10 10 10 10 10 10 9 9 9 9 9 9 8 8 8 8 8 8 8 8 8 8 8 8 8 8 8 8
15 16 17 16 16 15 15 13 15 14 13 11 12 12 12 12 12 12 11 11 10 10 10 10 10 10 10 10 9 9 9 9 9 9 8 8 8 8 8 8 8 8 8 8 8 8 8 8 8
15 16 16 16 15 15 15 14 14 13 12 11 13 12 12 12 12 12 11 11 11 10 10 10 10 10 10 10 10 9 9 9 9 9 8 8 8 8 8 8 8 8 8 8 8 8 8 8 8
15 16 16 16 15 15 14 14 14 14 13 12 13 13 12 12 12 12 11 11 11 11 11 10 10 10 10 10 9 9 9 9 9 8 8 9 9 9 9 8 8 8 8 8 8 8 8 8 8
16 16 16 16 15 15 14 14 14 14 15 14 14 14 13 12 12 12 11 11 11 11 11 11 11 10 10 10 10 9 9 9 9 9 9 9 9 8 8 8 8 8 8 8 8 8 8 8 8
16 16 16 16 15 15 14 14 14 14 15 15 15 14 14 13 12 12 12 12 12 11 11 11 11 10 10 10 10 9 9 9 9 9 9 9 8 8 8 8 8 8 8 9 8 8 8 8 8
16 16 16 16 15 15 15 14 15 14 14 15 14 14 14 14 13 13 13 13 12 12 12 11 11 11 10 10 10 10 9 9 9 9 9 8 8 8 8 8 8 8 9 9 9 8 9 9 9
16 16 17 16 15 15 15 17 14 14 14 14 14 14 14 14 14 14 13 13 12 12 12 12 11 11 11 10 10 10 9 9 9 9 9 9 9 8 8 8 8 8 8 9 9 8 9 9 9
17 18 18 16 15 15 14 17 14 15 14 14 14 14 14 14 14 14 14 13 13 13 12 12 12 11 11 10 10 10 9 10 9 10 9 9 9 8 8 8 9 9 8 9 9 8 10 10 9
18 18 18 18 16 15 15 16 14 13 13 13 14 14 14 14 14 14 14 14 14 13 13 12 12 12 11 11 10 10 10 10 9 9 10 9 9 9 9 9 9 9 9 9 9 10 10 10 9
18 18 18 18 17 16 16 16 16 14 13 13 12 14 14 14 14 14 14 14 14 14 14 13 13 12 11 11 10 10 10 9 9 9 9 9 9 9 9 9 9 9 9 10 10 10 10 10 10
17 18 18 18 16 16 17 16 16 15 15 13 13 12 14 14 14 14 14 14 14 14 14 13 13 12 12 11 10 10 10 10 10 10 10 10 9 9 10 10 10 10 10 10 10 10 9 9 9
17 18 18 18 16 16 17 17 17 16 14 15 14 13 13 14 14 14 14 14 14 13 13 13 13 12 12 11 11 11 10 10 10 10 10 10 10 10 10 10 10 10 10 10 10 10 9 9 9
17 17 18 18 17 17 17 19 18 18 15 15 16 16 15 14 15 14 14 14 14 13 13 13 13 12 12 12 11 11 11 11 10 11 11 11 11 11 11 11 11 11 11 10 10 10 9 8 8
17 18 17 17 18 17 18 17 19 17 17 16 17 17 17 17 16 15 14 14 14 13 13 13 13 13 12 12 11 11 11 11 11 10 11 11 11 11 10 10 10 10 11 11 10 10 9 8 8
16 16 17 17 17 19 18 18 18 18 18 18 17 15 17 17 17 16 15 14 14 13 13 14 14 14 13 12 12 11 11 11 11 11 11 11 10 10 10 10 10 10 10 10 10 10 9 8 8
15 16 17 18 18 19 18 18 18 19 19 18 18 17 16 17 17 17 16 16 15 14 14 14 14 14 13 13 12 11 11 11 11 11 11 11 10 10 10 10 10 10 10 10 10 10 9 8 8
15 16 18 18 19 20 18 18 18 18 18 18 18 17 16 17 17 16 16 16 16 15 15 14 14 14 14 13 13 12 11 11 11 11 11 11 11 10 10 10 9 9 9 9 10 10 9 9 8
16 16 17 18 19 19 19 18 17 18 17 18 18 18 18 18 18 17 16 16 16 15 15 15 14 14 14 13 13 13 12 12 11 11 11 11 10 10 10 9 9 9 9 9 9 9 9 9 8
16 16 16 17 19 19 19 19 19 18 18 19 19 19 19 19 18 18 17 16 16 15 15 15 14 14 14 13 13 13 12 12 11 11 11 11 10 9 9 9 9 8 8 8 8 9 9 8 8
15 16 16 17 18 20 19 19 19 18 18 18 19 19 19 19 19 18 17 17 16 15 15 14 14 14 13 13 13 13 13 12 11 11 10 10 10 9 9 8 9 8 8 8 8 8 7 8 7
16 16 16 17 17 18 18 19 19 18 18 18 19 19 19 19 19 19 18 17 17 16 15 14 14 14 14 13 13 13 13 12 12 11 10 10 9 9 8 8 7 7 7 7 7 7 7 7 7

GFSSGP_700_temp_003.txt.gz
Temp
13 13 13 12 10 12 12 14 12 13 12 11 11 10 11 10 10 10 9 9 9 9 9 9 9 9 9 9 8 9 9 9 8 8 8 9 8 8 8 8 8 8 8 8 8 9 9 9 9
13 13 12 11 14 12 13 13 13 13 12 12 11 10 11 11 10 11 10 9 9 9 9 9 9 8 8 9 9 9 9 8 8 8 9 9 8 8 8 8 8 8 8 8 8 8 8 9 8
14 14 11 15 16 14 14 13 14 13 13 13 12 10 11 11 11 10 10 9 8 9 9 9 9 9 9 9 9 9 9 9 9 9 9 8 8 8 8 8 8 8 8 8 8 8 8 9 9
14 11 12 18 17 16 15 14 14 13 13 12 11 10 11 10 9 11 10 10 10 9 9 9 9 9 9 9 9 9 9 9 9 8 8 8 8 8 8 8 8 8 8 8 8 8 9 9 9
12 13 16 18 17 16 15 15 14 14 13 13 12 10 9 9 8 11 10 10 9 9 9 9 9 9 9 9 9 9 9 9 9 9 9 9 9 8 8 8 8 8 8 8 8 8 9 9 9
12 16 16 18 17 16 15 15 15 14 13 12 11 10 9 8 9 10 9 10 10 10 10 10 9 9 9 9 9 9 9 9 9 9 9 9 9 8 8 8 8 8 8 8 8 8 8 8 9
14 14 17 18 17 16 15 15 15 14 13 13 11 11 9 9 8 9 11 10 10 10 10 10 10 10 10 9 9 9 10 9 9 9 9 9 9 8 8 8 9 9 8 8 8 8 8 8 8
15 16 19 17 18 17 15 15 14 14 14 13 13 11 10 9 8 10 11 11 10 10 10 10 10 10 10 10 10 10 10 9 9 9 9 8 8 8 8 9 9 8 8 8 8 8 8 8 8
15 16 19 18 16 17 15 15 14 14 13 12 12 12 10 12 9 9 11 11 10 11 10 10 11 11 10 10 10 10 10 9 9 9 9 8 8 8 8 9 8 8 8 8 8 8 8 8 8
15 15 18 18 17 17 16 16 15 14 13 12 11 11 12 12 9 9 12 12 11 10 8 9 10 10 10 10 10 10 9 9 9 9 9 8 8 9 8 8 8 8 8 8 8 8 8 8 7
17 15 17 18 17 17 16 16 15 15 13 13 12 10 13 12 10 9 11 10 9 8 7 11 10 10 10 10 10 10 10 9 9 9 9 9 9 8 8 9 8 9 8 8 8 8 7 7 8
17 17 17 18 17 17 17 16 15 15 15 13 12 11 13 12 12 9 9 8 8 8 9 11 11 11 11 10 10 9 8 8 9 9 9 9 9 8 8 8 8 8 9 8 7 8 8 8 8
17 18 18 17 17 17 17 16 16 15 14 13 12 13 13 12 12 10 9 9 9 8 8 11 12 11 11 11 11 10 9 9 7 9 9 9 8 7 8 8 8 8 8 8 8 8 8 8 8
18 18 18 18 18 17 17 16 15 15 14 13 13 14 14 13 12 12 11 10 10 11 12 13 12 11 11 11 11 10 10 9 10 8 9 9 8 8 8 8 8 8 9 8 8 8 8 8 8
17 18 18 17 18 17 17 16 16 15 14 13 13 14 14 14 13 13 13 13 13 13 13 13 12 12 11 11 10 10 10 10 8 8 9 9 9 9 9 8 8 8 8 8 8 8 8 9 8
17 18 19 19 18 17 16 17 16 15 14 14 13 13 15 14 13 14 13 13 14 13 13 13 12 12 11 11 10 10 10 9 9 8 8 9 9 9 9 8 8 8 9 8 8 8 8 9 9
18 19 19 18 18 17 17 16 16 15 15 14 14 13 13 14 14 15 14 14 14 13 13 13 13 12 12 11 11 11 11 10 10 8 8 8 9 9 8 8 8 8 8 9 9 8 9 10 10
18 19 20 19 18 18 17 16 17 16 15 15 14 14 13 14 15 15 15 14 14 14 13 13 13 12 12 12 11 11 11 10 10 9 9 9 9 9 9 8 8 9 9 9 9 9 10 10 10
19 20 20 20 19 18 18 18 17 16 15 15 15 14 13 12 14 14 15 15 14 14 14 14 13 13 13 12 11 11 10 10 10 10 8 9 10 10 9 9 10 9 9 10 10 10 10 10 9
18 19 20 20 19 19 19 19 19 17 16 16 15 15 14 13 12 13 15 14 14 14 14 14 14 14 13 12 11 11 9 9 7 7 9 10 9 10 10 10 10 10 9 10 10 10 9 8 9
18 19 20 20 19 17 19 18 19 18 17 16 16 15 15 14 13 12 14 15 14 14 14 14 14 14 13 12 11 11 10 10 8 7 9 10 11 11 10 10 10 10 10 10 10 10 10 9 8
18 18 19 20 19 19 19 20 19 19 18 17 16 16 15 14 13 12 12 15 14 14 14 14 13 13 13 12 12 12 10 10 8 7 8 11 11 11 11 10 10 10 10 11 10 10 10 9 8
18 19 19 19 20 17 20 20 21 19 19 18 17 16 16 15 14 13 12 14 15 14 14 14 13 13 13 13 12 12 11 8 7 7 9 11 11 11 10 10 10 10 10 10 10 10 10 9 9
17 18 19 19 19 21 20 20 20 18 20 19 19 17 16 15 15 13 12 12 15 14 14 14 13 13 14 13 12 12 12 11 8 10 10 10 10 10 10 10 10 10 10 10 10 10 10 9 9
17 18 19 20 21 21 20 20 17 21 20 20 19 19 18 16 15 14 15 16 17 16 15 14 14 14 14 14 13 13 12 11 11 11 11 11 10 10 11 10 10 10 9 9 9 9 9 9 9
17 18 19 19 21 22 20 21 21 21 20 20 20 19 19 17 16 15 17 17 17 17 16 15 15 14 14 14 14 13 12 11 11 11 11 10 10 10 11 10 9 9 9 9 9 9 9 9 8
17 17 18 19 20 21 21 21 20 20 20 20 19 19 19 18 17 16 17 18 17 17 16 16 15 14 14 14 13 13 12 11 11 11 11 11 11 11 10 10 10 10 10 9 8 8 8 8 9
17 18 18 19 20 20 22 21 21 20 19 19 19 19 19 19 17 16 16 18 18 17 16 16 15 14 14 14 13 13 12 12 11 11 11 11 11 11 11 10 10 10 10 10 9 8 8 8 8
16 17 18 18 19 21 21 22 21 20 19 19 19 20 19 19 17 16 16 18 18 17 16 16 15 15 14 14 14 13 13 12 12 12 12 12 11 11 11 11 10 10 9 8 8 8 7 7 7
16 17 17 19 19 19 20 21 21 20 19 19 19 20 20 19 18 17 16 15 17 18 17 16 15 15 15 14 14 13 13 13 12 12 12 12 11 11 11 11 10 10 9 8 7 7 7 7 7

GFSSGP_700_temp_006.txt.gz
Temp
12 12 11 11 11 11 12 13 13 12 12 12 12 12 11 11 11 10 9 9 9 9 9 9 9 9 9 9 9 9 9 9 9 9 8 8 9 9 9 8 8 8 8 9 9 9 9 9 9
13 12 12 10 10 13 12 13 13 13 13 12 12 12 11 11 11 11 10 9 9 9 9 9 9 9 9 9 9 9 9 9 8 8 8 9 9 9 8 8 8 8 8 9 9 9 9 9 9
14 11 11 12 13 13 12 12 14 13 13 11 12 10 11 12 10 11 10 9 9 9 9 9 9 9 9 9 9 9 9 9 8 9 9 9 9 9 8 8 8 8 8 9 9 9 9 9 9
13 12 11 13 16 14 14 15 15 14 13 12 11 11 11 11 11 10 10 9 8 9 9 9 9 9 9 9 9 9 9 9 9 9 9 9 9 9 8 8 8 8 8 9 9 9 9 9 9
12 12 14 16 18 16 15 15 14 14 13 12 12 10 10 9 11 10 10 10 9 9 9 9 9 9 9 9 9 9 9 9 9 9 9 9 9 9 8 8 8 8 9 8 9 9 9 9 8
10 12 15 19 18 17 16 16 14 13 13 11 11 10 10 9 9 11 10 10 9 10 9 9 10 10 9 9 9 9 9 9 9 9 9 9 9 9 8 9 9 9 9 9 9 9 9 8 8
12 14 17 17 18 17 17 17 15 15 14 12 11 10 10 9 8 10 10 9 10 10 10 10 10 10 10 9 9 9 9 9 9 9 9 9 9 9 9 9 9 9 8 8 9 9 8 8 8
13 15 15 16 19 17 16 16 16 15 13 13 12 10 10 9 9 10 10 10 9 10 10 10 10 10 10 10 10 9 10 10 9 9 9 9 8 9 9 9 9 9 9 9 8 8 8 8 8
16 16 17 17 18 17 16 16 16 15 14 13 12 12 10 9 10 9 10 10 10 10 11 10 10 10 10 10 10 10 10 10 9 9 9 9 9 9 9 9 9 8 9 9 9 8 8 8 8
16 15 16 15 17 17 17 16 15 15 14 14 13 11 10 10 9 10 11 11 9 10 10 10 11 11 10 10 10 10 10 10 9 9 9 9 9 8 8 8 8 8 8 8 8 8 8 8 8
16 16 16 17 17 17 17 16 16 15 14 14 12 10 11 10 10 11 11 11 11 10 9 10 10 11 11 11 10 10 10 10 10 9 9 10 9 8 9 7 7 8 8 7 9 8 8 8 8
18 17 17 16 18 17 17 17 16 15 15 14 12 11 11 10 10 10 10 10 8 8 10 11 11 11 11 11 11 10 10 10 10 10 10 9 8 10 8 10 8 8 9 9 9 9 8 8 8
18 18 18 19 18 18 18 17 16 16 15 14 12 11 12 10 10 10 9 9 9 9 10 12 12 12 11 11 11 11 9 9 9 11 10 9 9 10 8 8 7 8 8 9 9 8 9 8 9
18 19 19 19 19 18 18 17 17 16 15 14 12 11 13 11 10 10 10 9 9 9 10 13 13 12 12 12 11 11 11 9 10 9 10 9 10 9 8 9 9 9 9 9 9 9 8 9 8
18 19 19 19 19 18 18 18 17 16 15 14 13 11 12 12 10 10 10 10 9 10 11 13 13 12 12 12 12 11 11 11 10 9 8 10 9 9 9 10 9 9 9 8 8 8 8 8 8
18 18 19 19 19 18 18 18 17 16 15 14 13 12 12 13 11 12 13 11 11 13 13 13 13 13 12 12 12 11 11 11 11 10 8 9 10 9 9 9 10 8 9 8 8 9 8 7 9
18 19 19 20 19 19 18 17 17 16 16 15 14 13 12 12 11 13 14 14 14 14 14 13 13 13 13 12 12 11 11 11 10 9 9 9 9 10 9 9 10 8 9 8 9 8 8 9 10
18 19 20 20 19 19 18 16 16 16 16 15 15 14 13 12 14 14 14 14 14 14 14 14 13 13 13 12 12 11 11 11 10 10 9 10 10 10 10 9 10 9 9 9 9 9 9 10 10
18 19 20 21 19 19 19 18 15 16 16 16 15 15 14 13 13 13 14 14 14 14 14 14 14 14 13 13 12 12 11 11 11 10 10 10 9 10 9 10 10 10 10 11 10 10 10 10 10
18 19 20 21 20 19 20 19 18 16 17 17 16 15 15 14 13 12 13 14 15 15 15 14 14 14 13 13 13 12 11 10 10 10 11 11 10 10 11 10 10 11 11 11 10 10 10 10 10
18 19 20 21 20 20 20 20 19 18 18 17 17 16 15 15 14 13 12 14 14 14 14 14 14 14 14 13 13 12 11 11 9 9 9 11 11 11 11 11 11 10 10 11 11 11 10 10 10
18 19 19 20 20 19 19 19 19 18 18 17 17 17 16 15 14 14 13 13 15 15 14 14 14 14 14 13 13 12 12 11 11 10 10 11 11 11 11 11 11 11 10 10 11 11 10 10 10
18 19 19 20 20 19 19 19 20 19 19 18 17 17 17 16 15 14 14 13 14 15 15 15 14 14 14 13 13 13 12 11 10 11 11 11 11 11 11 11 11 10 10 10 10 10 10 10 10
18 19 19 20 20 21 21 19 19 20 20 19 18 18 17 17 16 15 14 14 14 15 15 15 14 14 13 13 12 12 12 11 11 9 11 11 11 11 11 11 11 11 10 10 10 10 9 10 10
18 18 19 20 21 21 21 19 19 20 19 19 18 18 18 17 16 16 15 16 16 17 17 16 15 15 14 13 13 13 12 11 11 11 12 11 11 11 11 11 11 10 10 10 10 10 9 9 9
18 18 20 18 20 21 21 21 21 20 19 19 18 18 18 18 17 16 17 17 17 17 17 17 17 15 14 14 14 13 13 12 12 12 12 12 11 11 12 11 11 11 11 10 9 9 9 9 8
18 18 18 19 20 21 21 22 21 21 20 20 19 20 20 19 18 17 16 17 17 17 17 17 17 16 15 14 14 14 13 13 13 13 12 12 12 12 12 11 11 11 11 10 9 9 8 8 8
18 18 18 19 19 20 21 21 22 22 21 19 19 20 20 20 18 18 17 17 17 17 17 16 16 16 15 14 14 14 13 13 13 13 12 12 12 12 12 11 11 11 11 11 10 9 8 8 8
17 17 18 19 19 21 21 21 22 22 21 21 20 19 20 20 19 18 18 17 17 16 17 17 16 16 15 14 14 14 13 13 13 13 13 13 12 12 12 11 11 11 11 10 10 9 9 9 7
18 17 17 18 19 20 20 21 21 22 21 20 20 20 20 20 20 19 18 17 17 18 17 18 16 16 15 15 15 14 14 14 14 13 13 13 13 12 12 11 11 11 11 10 10 9 9 8 8

GFSSGP_700_temp_009.txt.gz
Temp
10 10 11 11 12 11 11 11 12 12 12 12 12 12 11 11 11 10 9 9 9 9 9 9 9 9 9 9 9 9 9 9 9 9 9 9 9 8 8 8 8 9 9 9 9 9 9 9 9
10 10 11 11 12 11 11 12 12 12 12 12 12 12 12 12 12 11 9 9 9 9 9 9 9 9 9 9 9 9 9 9 9 9 9 9 8 8 8 8 8 8 8 8 9 9 9 9 9
11 10 10 10 11 13 12 12 12 13 13 12 12 11 12 12 11 11 10 9 9 9 9 9 9 9 9 9 9 9 9 9 9 9 9 9 9 8 8 8 8 8 8 8 9 9 9 9 9
12 11 10 11 13 14 14 13 11 12 12 12 13 12 12 12 12 10 10 10 9 9 9 9 9 9 9 9 9 9 9 9 9 9 9 9 8 8 8 8 8 8 8 9 9 9 9 9 8
11 12 12 12 15 15 13 13 11 11 11 11 13 11 12 10 11 11 11 10 10 10 9 9 9 9 9 9 9 9 9 9 9 9 9 9 8 8 8 8 8 8 8 8 8 8 8 8 8
13 13 13 13 16 15 14 14 14 13 14 12 12 12 10 10 11 11 11 10 10 10 10 10 9 9 9 9 9 9 10 10 9 9 9 9 8 8 8 8 8 8 8 8 8 8 8 8 8
13 13 13 15 16 16 15 15 13 13 13 12 13 12 9 10 11 10 10 10 10 10 10 10 10 10 10 10 10 10 10 10 9 9 9 9 8 8 8 8 8 8 8 8 8 8 8 8 8
13 14 14 15 16 17 16 15 14 12 12 12 13 12 11 10 11 10 11 11 10 10 10 10 10 10 10 10 10 10 10 9 9 9 9 8 8 8 8 8 8 8 8 8 8 8 8 8 8
13 13 12 15 16 17 16 15 14 14 15 12 12 12 13 11 11 10 11 11 11 10 10 10 10 10 10 10 10 10 10 9 9 9 8 9 9 9 9 8 8 9 9 8 8 8 8 8 8
14 14 14 15 16 17 16 15 14 13 13 12 13 11 11 12 11 11 11 11 11 11 11 10 10 10 10 10 10 10 9 9 9 9 9 9 9 9 9 8 8 8 8 9 8 8 8 8 8
15 16 16 16 16 17 16 16 15 14 13 13 12 12 11 12 11 12 11 11 11 11 11 11 11 11 10 10 10 9 9 9 9 9 8 10 9 8 8 9 8 8 8 9 8 8 8 8 8
16 16 17 16 17 17 17 16 15 15 14 13 13 13 13 13 11 12 12 11 12 12 11 11 11 11 11 11 10 10 10 10 9 9 10 10 10 9 10 8 8 9 9 9 9 9 9 8 9
16 17 18 17 17 17 17 17 16 15 14 14 13 11 12 12 12 11 11 12 12 12 12 12 12 11 11 12 11 11 10 10 10 10 9 10 10 9 9 8 9 10 9 9 9 9 8 8 9
17 17 18 18 18 18 17 17 16 15 15 14 14 12 11 12 11 12 10 12 11 12 12 12 12 11 12 12 12 12 11 10 10 10 8 9 9 9 9 8 8 9 9 7 8 8 8 7 8
16 17 18 18 19 18 17 14 16 15 15 14 14 13 12 10 11 11 11 12 13 12 12 12 12 12 12 12 12 11 11 11 9 10 9 9 9 9 9 9 9 9 8 9 9 9 9 9 9
16 17 17 18 19 19 18 16 16 16 15 14 13 13 12 11 10 10 11 12 11 13 14 14 13 13 13 13 12 12 11 11 11 11 11 10 10 9 9 9 9 9 8 9 10 9 9 10 10
16 16 17 18 19 19 18 17 15 16 15 14 14 14 13 12 11 10 11 10 12 13 14 14 14 13 13 13 12 11 11 11 11 10 10 11 9 9 9 9 9 9 9 10 9 10 10 10 10
16 16 17 18 19 19 18 17 17 16 16 15 14 14 13 12 12 14 13 12 13 14 14 14 14 14 13 13 13 12 12 12 11 11 11 10 10 10 10 9 10 9 10 10 10 11 11 10 10
16 17 18 19 19 19 18 18 17 16 16 15 15 14 14 14 13 12 13 13 13 14 14 14 14 14 14 13 13 13 12 11 11 11 11 10 10 10 11 10 10 10 11 11 11 11 11 11 10
16 16 17 18 19 19 19 18 18 17 18 16 15 15 14 14 14 14 13 13 14 14 14 14 14 14 14 14 13 13 12 11 11 11 11 11 11 10 11 11 11 11 11 11 11 11 11 11 10
16 16 17 18 19 19 19 18 18 17 18 16 15 16 15 14 14 13 14 14 14 14 15 14 14 14 14 14 13 13 12 12 12 11 12 10 11 11 11 11 11 11 11 11 10 10 11 11 10
16 17 17 18 18 19 18 17 17 17 17 16 15 16 16 15 15 14 14 14 14 15 15 14 14 14 14 14 14 13 12 12 11 12 12 11 12 12 12 11 11 11 11 10 10 10 10 10 10
16 17 17 18 18 18 18 19 19 17 16 17 16 16 16 16 16 16 16 16 15 14 14 15 14 14 14 13 13 13 13 12 12 12 12 12 12 12 11 11 11 11 10 11 10 10 10 10 10
17 17 18 18 18 17 18 19 19 17 17 18 17 16 17 16 16 16 17 17 16 15 15 15 15 14 14 13 13 13 13 13 13 13 13 12 12 12 11 11 11 11 10 10 10 10 10 9 9
17 17 17 16 16 15 19 18 19 19 19 19 18 17 17 17 17 16 16 17 17 17 17 17 16 15 14 14 14 14 14 13 13 13 13 13 13 12 12 11 11 11 10 10 10 10 10 9 8
17 17 17 13 15 16 19 19 20 20 20 20 19 18 18 17 17 17 17 18 19 17 17 17 17 16 15 14 14 14 14 14 14 13 13 13 13 12 12 11 11 11 11 11 10 10 10 9 8
17 18 18 18 18 17 19 19 20 20 20 20 19 18 18 17 17 16 17 18 18 18 17 17 17 17 15 14 14 14 15 14 14 13 13 13 13 12 12 11 11 11 11 11 10 10 10 9 9
17 17 17 18 15 15 18 19 19 21 21 20 20 20 19 19 18 17 17 17 18 19 17 17 17 17 16 15 15 15 15 14 14 13 13 13 13 12 12 12 11 11 11 11 10 10 10 10 9
17 17 17 18 17 15 15 17 20 20 21 20 19 19 20 19 19 17 17 18 19 19 17 17 17 16 16 16 15 15 15 14 14 13 13 13 13 13 13 12 11 11 11 11 10 10 10 10 9
18 18 17 17 17 18 17 17 19 20 20 20 21 20 20 19 19 19 17 18 19 19 18 18 17 17 16 16 16 15 14 14 14 14 13 13 13 13 13 12 11 11 11 11 10 10 10 9 9

GFSSGP_700_temp_012.txt.gz
Temp
11 11 10 10 10 10 11 11 11 12 11 11 11 11 11 11 11 11 10 9 9 9 9 9 9 9 9 9 9 9 8 8 8 8 8 8 8 8 8 8 8 9 9 9 8 8 8 8 8
10 9 9 10 10 11 12 11 12 12 12 11 11 11 11 12 12 11 10 10 9 9 9 9 9 9 9 9 9 9 8 8 8 8 8 8 8 8 8 8 8 8 8 8 8 8 8 8 8
11 9 10 10 10 12 12 12 12 12 11 11 12 11 11 12 11 11 10 10 9 9 9 9 9 9 9 9 9 9 9 8 8 8 8 8 8 8 8 8 8 8 8 8 8 8 8 8 8
11 10 10 10 12 11 12 12 12 12 12 12 12 12 12 11 11 11 11 10 10 9 9 9 9 9 9 9 9 9 9 8 8 8 8 8 8 8 8 8 8 8 8 8 8 8 8 8 8
13 12 11 11 12 12 12 12 12 12 12 12 12 12 12 10 11 11 10 10 10 10 9 9 9 9 9 9 9 9 9 9 9 9 8 8 8 8 8 8 8 8 8 8 8 8 8 8 8
12 12 12 13 12 12 13 13 13 12 12 12 11 12 11 11 11 11 11 10 9 10 9 9 9 9 9 9 9 9 9 9 9 9 8 8 8 8 8 8 8 8 8 8 8 8 8 8 8
13 12 13 14 13 12 13 13 13 14 13 12 12 13 12 10 11 11 10 10 9 9 10 10 9 9 9 9 9 9 9 9 9 9 9 8 8 8 8 8 9 8 8 8 8 8 8 8 8
13 13 14 15 14 13 12 13 14 14 14 13 12 14 14 11 11 11 11 10 10 10 10 10 10 10 10 10 10 10 10 9 9 9 9 8 8 8 9 9 8 8 8 8 8 8 8 8 8
13 12 15 15 15 13 12 14 12 13 14 12 13 13 13 12 11 12 11 11 10 10 10 10 10 10 10 10 10 10 10 9 9 9 9 9 9 8 8 9 9 8 8 8 8 8 8 8 8
13 12 15 16 15 14 14 14 15 13 13 13 13 13 12 12 12 12 12 12 11 11 11 10 10 10 10 10 10 10 10 9 9 9 9 9 8 8 9 8 9 9 9 8 8 8 8 8 8
13 14 15 15 16 15 15 15 15 14 14 15 14 13 13 13 12 12 12 11 12 11 11 11 10 10 10 10 10 10 9 9 9 9 9 9 9 9 9 9 9 9 9 9 8 8 8 9 9
14 14 15 16 16 16 15 15 15 15 15 14 14 14 13 13 13 12 12 12 12 12 11 11 11 10 10 10 10 10 10 9 9 10 9 9 9 9 9 9 9 9 9 9 8 8 9 9 9
15 15 16 16 16 16 16 16 16 15 14 13 13 14 13 13 13 12 12 12 12 12 12 11 11 11 11 10 10 10 10 9 9 10 9 10 10 9 8 8 9 9 10 10 9 9 8 9 9
15 15 16 16 16 17 16 16 15 14 14 14 14 14 13 12 12 12 12 12 13 12 12 12 12 11 11 10 11 11 11 10 10 10 10 10 10 10 9 9 9 10 10 10 9 9 8 7 7
15 15 16 17 16 17 16 15 15 15 15 14 14 14 14 13 12 12 12 12 13 13 12 12 12 12 11 11 11 11 11 12 11 10 10 8 10 10 9 10 10 10 9 9 9 9 9 7 7
15 15 15 18 17 17 16 15 16 15 15 14 14 14 14 14 13 12 12 12 13 13 13 13 12 13 12 11 12 11 11 11 11 11 11 11 10 10 10 9 9 9 9 9 9 9 9 8 8
15 15 16 17 17 17 17 16 15 14 15 15 14 14 14 14 14 12 13 13 14 14 13 13 12 12 12 12 11 11 11 10 11 11 11 11 10 9 9 9 9 9 9 9 9 10 9 10 10
15 15 16 17 18 17 17 18 15 15 15 15 15 14 14 14 15 14 13 13 14 14 13 13 12 12 13 12 12 11 11 11 11 11 11 11 10 9 10 10 9 10 9 9 10 10 10 10 10
15 15 16 18 17 17 18 18 17 16 15 15 15 14 14 14 15 14 13 12 14 14 14 13 13 13 13 13 13 12 12 11 11 11 11 11 10 9 8 9 10 10 10 11 11 11 10 10 10
15 16 17 18 17 17 17 18 17 16 16 16 16 15 15 14 14 14 14 13 14 14 14 14 14 13 13 13 13 13 12 11 11 11 11 10 10 10 10 10 11 11 11 10 10 10 10 10 10
14 15 17 16 17 17 17 17 16 16 15 15 15 16 15 15 15 14 14 14 14 14 14 14 14 14 14 13 13 12 12 12 12 11 11 11 10 10 11 11 11 11 11 10 10 10 10 10 10
14 15 16 16 16 16 16 16 16 16 16 15 15 16 16 15 15 15 14 14 14 14 14 14 14 14 14 14 13 13 13 13 12 12 11 11 10 11 12 11 11 11 10 10 10 10 10 9 9
14 15 15 15 16 16 16 17 17 18 16 16 16 17 17 17 15 16 16 15 15 15 14 14 14 14 14 14 14 13 13 13 12 12 11 11 11 12 12 11 11 11 10 10 10 10 9 9 8
15 15 15 16 16 14 16 17 17 18 17 17 17 17 18 17 16 16 16 16 16 15 14 14 14 14 14 14 14 14 13 13 13 13 12 12 12 12 12 11 11 11 11 11 10 10 9 9 8
15 15 15 13 14 13 17 17 17 18 18 18 18 17 17 17 17 16 16 16 16 16 16 15 14 13 14 14 14 14 14 14 14 13 12 13 13 12 12 12 11 11 11 11 11 10 10 9 9
15 15 15 11 11 13 17 16 17 19 19 19 19 18 18 18 18 17 17 18 17 17 16 16 15 14 14 14 14 14 14 14 14 13 13 13 13 12 12 12 11 11 11 11 11 11 10 10 9
15 15 16 16 16 14 16 17 18 18 19 19 19 19 18 18 18 18 18 17 18 17 17 17 16 15 14 15 14 15 14 14 14 14 13 13 13 12 12 12 11 11 11 11 11 10 10 9 9
15 16 16 15 12 13 15 17 18 18 19 19 19 19 19 18 18 18 18 19 18 17 17 16 16 16 15 15 16 15 14 14 14 14 14 13 13 12 12 12 12 12 11 11 10 10 10 10 9
15 15 16 16 16 14 10 15 17 18 18 19 19 20 19 19 18 18 18 18 18 18 17 17 16 16 16 15 16 16 15 14 14 14 14 14 13 13 12 12 12 11 11 11 11 10 10 9 9
15 16 16 16 16 16 16 16 17 18 18 19 19 19 19 19 19 18 18 18 18 18 17 17 16 16 16 16 16 16 15 15 14 14 14 14 13 13 13 12 12 11 11 11 10 10 10 9 9

GFSSGP_700_temp_015.txt.gz
Temp
12 11 10 9 9 10 11 11 11 11 11 11 10 10 10 11 11 11 10 9 9 9 9 9 8 8 8 8 8 8 8 8 8 8 8 8 8 8 8 8 8 8 8 8 8 8 8 8 8
12 13 11 10 10 10 11 12 11 11 11 10 10 10 10 11 11 11 11 10 9 9 9 9 9 8 8 8 8 8 8 8 8 8 8 8 8 8 8 8 8 8 8 8 8 9 9 8 8
11 12 11 11 10 10 12 11 11 11 11 11 11 11 11 11 11 11 10 10 10 10 9 9 9 9 8 8 8 8 8 8 8 8 8 8 8 8 8 8 8 8 8 8 8 9 9 8 8
12 12 11 11 11 13 13 13 12 12 11 10 11 11 11 11 11 11 10 10 10 10 9 9 9 9 9 9 8 8 8 8 8 8 8 8 8 8 8 8 8 8 8 8 8 8 8 8 8
12 12 11 11 12 13 13 13 12 13 12 11 12 12 12 11 11 11 11 10 10 10 9 9 9 9 9 9 9 8 8 8 8 8 8 8 8 8 8 8 8 8 8 8 8 8 8 8 8
12 12 12 11 12 12 13 13 13 13 12 12 12 12 12 11 11 11 10 10 10 10 9 9 9 9 9 9 9 9 9 9 8 8 8 8 8 8 8 8 8 8 9 9 8 8 8 8 8
12 12 12 12 12 13 13 13 13 13 12 12 12 13 12 11 10 10 10 10 10 9 9 9 9 9 9 9 9 9 9 9 9 8 8 8 8 8 8 8 8 8 8 8 8 8 8 8 8
12 12 12 13 13 13 13 13 13 13 13 12 11 13 13 11 10 10 10 10 9 9 9 9 9 10 10 10 9 9 9 9 9 9 8 8 8 8 8 8 9 8 8 8 8 8 8 8 8
12 13 14 13 14 14 13 13 13 12 14 13 12 12 12 12 11 11 11 10 10 9 9 9 10 10 10 10 10 9 9 9 9 9 9 8 8 8 8 8 8 8 8 8 8 8 8 7 8
12 13 15 14 14 15 14 14 15 14 14 13 13 13 12 12 12 11 11 11 11 10 10 10 10 10 10 10 10 10 9 9 9 9 9 8 8 8 8 8 8 8 8 8 8 8 8 8 8
14 15 15 15 14 14 14 13 13 14 15 14 14 14 13 13 12 12 12 11 11 10 10 11 10 10 10 10 10 10 10 9 9 9 9 9 8 8 8 8 8 8 8 8 8 8 8 8 8
14 15 14 15 14 14 15 14 14 15 14 14 13 13 14 13 13 12 12 12 11 11 11 11 11 11 10 10 10 10 10 9 9 9 9 9 8 8 8 8 9 8 8 8 8 8 8 8 8
14 15 14 14 14 14 14 15 15 15 14 14 13 13 13 13 13 12 12 11 11 11 11 11 11 11 10 10 10 10 10 10 9 9 9 9 9 9 9 8 8 8 8 8 9 9 8 8 8
14 14 14 14 15 14 14 14 15 14 14 14 14 14 13 13 13 13 12 12 12 12 12 12 11 11 11 11 10 10 10 10 10 10 9 9 9 9 9 8 8 8 8 9 9 9 8 7 7
15 15 15 15 16 14 14 14 15 15 15 14 14 14 14 13 13 13 13 12 12 12 12 12 12 11 11 11 10 10 10 10 10 10 10 9 10 9 9 9 8 9 9 8 8 9 8 8 5
14 15 15 16 16 16 15 15 15 15 15 15 14 14 14 13 13 13 13 12 12 12 13 12 11 11 11 11 11 11 11 11 10 10 10 10 10 10 9 9 9 9 10 9 9 9 9 9 7
14 15 15 17 16 17 16 16 15 15 15 15 15 14 14 14 13 13 13 13 12 12 12 12 12 11 11 11 11 11 11 11 11 10 10 10 9 9 9 9 10 9 9 9 10 10 9 10 9
14 15 15 16 16 16 16 16 16 15 16 16 15 14 14 15 14 14 14 14 13 12 12 12 12 12 12 11 11 11 12 11 11 11 11 10 9 9 9 9 9 9 9 10 10 10 10 10 10
14 15 15 17 15 16 16 16 16 16 15 16 15 15 14 14 14 14 14 14 13 12 12 13 13 12 12 12 12 12 12 11 11 11 10 10 9 9 9 9 10 10 10 10 10 10 10 10 10
14 14 15 17 16 15 15 16 16 16 17 18 17 16 15 14 14 14 14 14 14 14 14 13 13 12 12 12 12 12 11 11 11 10 10 10 10 10 10 10 10 10 10 10 10 10 10 10 10
13 14 16 16 16 16 16 16 14 15 16 16 15 16 15 15 15 15 14 14 14 14 14 14 14 13 13 12 12 12 12 12 12 12 11 10 9 10 10 11 11 11 10 10 9 9 9 9 9
13 14 15 15 14 15 15 14 14 15 14 15 16 16 15 15 15 14 14 14 15 14 14 14 14 13 13 13 13 12 12 12 12 11 10 10 10 10 11 11 11 11 10 10 10 9 9 8 8
13 14 14 14 14 14 15 14 16 15 14 15 16 16 16 16 15 16 16 15 15 15 15 14 14 14 13 13 13 13 13 12 12 11 11 10 11 11 11 11 11 10 10 10 9 9 9 9 8
13 13 13 14 14 12 15 14 16 15 15 17 17 16 17 17 17 16 16 15 15 15 14 14 14 14 14 14 13 13 13 13 12 12 12 12 11 12 12 11 11 10 10 10 10 10 9 9 9
13 13 12 11 11 12 15 14 15 17 17 17 18 18 18 17 17 17 17 16 15 15 15 14 14 14 14 14 13 13 13 13 12 12 12 12 12 12 12 11 11 11 10 10 10 10 10 9 9
13 13 12 9 8 12 15 14 16 17 18 17 18 18 18 18 18 18 17 17 17 16 16 15 14 13 13 14 14 14 13 13 13 12 13 12 13 12 12 11 11 11 11 10 10 10 10 10 9
13 13 13 13 13 12 15 16 16 17 18 18 18 18 18 18 18 18 18 17 17 17 17 16 16 15 14 13 13 13 13 13 13 13 13 13 13 12 12 12 11 11 11 10 10 10 10 9 9
13 14 13 12 10 11 13 15 16 17 18 18 18 18 18 18 18 18 18 18 17 18 17 17 16 16 15 14 13 13 14 13 13 13 13 13 13 12 12 12 12 12 11 11 10 10 10 9 9
13 13 13 14 14 11 12 14 16 16 17 18 18 18 18 18 18 19 18 18 18 17 17 18 17 16 15 14 13 13 14 14 14 13 14 13 13 13 12 12 12 12 11 11 10 10 10 9 9
14 14 13 14 13 14 14 15 17 17 18 18 18 18 19 18 19 19 19 18 18 18 17 18 18 17 16 15 14 14 14 14 14 14 14 13 13 13 12 12 12 12 11 11 11 10 10 9 9

GFSSGP_700_temp_018.txt.gz
Temp
10 10 11 10 10 10 10 10 10 11 10 10 10 10 10 10 11 11 10 10 10 10 9 8 8 8 8 8 8 8 7 7 8 7 7 7 8 8 8 8 8 8 8 8 9 9 8 9 9
11 11 11 11 11 11 11 11 11 11 11 10 10 10 10 10 11 11 11 10 9 9 9 9 8 8 8 8 8 8 7 8 8 8 7 8 8 8 8 8 8 8 8 8 9 9 9 9 9
11 12 11 12 11 11 12 11 11 10 10 10 11 11 11 11 11 10 11 10 9 9 9 9 9 8 8 8 8 7 8 8 8 8 8 7 8 8 8 8 8 8 8 8 9 9 9 9 8
12 12 11 11 12 12 12 12 11 11 10 10 11 11 11 11 11 11 11 11 10 10 9 9 9 8 8 8 8 8 8 8 8 8 8 8 8 8 8 8 8 8 8 8 9 9 9 9 8
12 12 12 12 13 12 12 12 11 11 12 11 11 12 12 11 11 11 11 10 10 10 9 9 9 8 8 8 8 8 8 8 8 8 8 8 8 8 8 8 8 8 8 8 8 9 8 8 8
12 12 12 12 13 12 12 12 12 11 12 11 12 12 12 11 11 11 10 10 10 10 10 9 9 9 8 8 8 8 8 8 8 8 8 8 8 8 8 8 8 8 8 8 8 8 8 8 8
12 12 12 12 13 13 13 13 13 12 11 11 12 12 12 11 11 10 10 10 10 9 10 9 9 9 8 8 8 8 8 8 8 8 8 8 8 8 8 8 8 8 8 8 8 8 8 8 8
12 12 12 12 13 13 13 13 13 12 12 12 11 12 13 12 11 10 10 10 10 9 9 9 9 9 9 9 8 8 9 9 8 8 8 8 8 8 8 8 8 8 8 8 8 8 8 8 8
13 13 13 13 13 14 14 14 13 12 13 12 12 12 12 12 12 11 11 10 10 10 9 9 9 9 9 9 9 9 9 9 9 8 8 8 8 8 8 8 8 8 8 8 8 8 8 8 9
13 13 13 14 13 13 14 14 14 14 13 13 12 12 11 12 12 11 11 11 11 10 10 10 10 9 10 10 10 9 9 9 9 8 8 8 8 8 8 8 8 8 8 7 7 8 8 8 8
13 14 13 14 13 13 13 14 14 14 14 14 13 13 13 12 12 11 11 11 11 11 10 10 10 10 10 10 10 10 9 9 9 9 8 8 8 8 8 8 7 8 8 8 8 8 8 8 9
14 14 14 14 14 14 14 13 14 14 14 13 12 13 13 13 13 12 11 11 11 11 11 10 11 11 10 10 10 10 9 9 9 9 8 8 8 8 8 8 8 8 8 8 8 8 8 8 8
14 15 14 14 14 14 13 13 13 14 14 13 13 13 13 13 13 12 11 11 11 11 11 11 11 11 11 10 10 10 9 9 9 9 9 8 8 8 8 8 8 8 8 7 8 8 8 7 7
14 14 14 14 15 14 15 14 14 14 14 13 14 14 14 13 13 12 12 12 12 11 11 11 11 11 11 11 10 10 10 9 9 9 9 9 8 8 9 9 8 8 8 8 8 8 8 8 7
14 14 14 15 15 15 15 14 15 13 14 14 13 13 14 13 12 12 12 12 12 12 11 12 11 11 11 10 10 10 10 10 9 9 9 9 8 8 9 9 9 8 8 8 8 8 8 9 8
13 13 13 15 15 15 15 15 15 14 14 14 14 13 14 14 13 13 12 12 12 11 12 11 11 11 11 11 10 10 10 10 10 10 10 8 8 9 9 9 9 9 9 8 8 9 9 9 9
12 13 14 15 15 15 15 15 15 15 14 14 14 13 14 14 13 13 13 13 12 12 12 12 12 11 11 11 10 10 10 10 9 10 9 9 9 9 9 9 9 9 9 9 10 10 10 9 9
12 13 14 15 15 15 16 16 15 16 15 15 15 13 14 14 14 14 13 13 13 12 12 12 12 11 11 11 11 11 11 10 10 10 9 9 9 9 9 9 9 9 10 10 10 10 10 9 9
13 13 14 15 15 15 15 15 15 15 15 15 15 14 14 14 14 14 13 13 13 13 13 12 12 12 12 12 12 12 12 11 10 10 9 10 9 9 9 10 9 10 10 10 10 10 10 10 9
13 13 14 15 15 15 15 15 15 15 16 16 16 15 14 14 15 14 14 13 13 13 13 13 12 12 12 12 12 12 11 11 10 10 10 10 10 10 10 10 10 10 10 10 9 9 9 9 9
12 13 14 14 14 14 15 15 15 16 16 15 15 15 14 14 14 15 14 14 14 14 14 13 13 13 13 13 12 12 12 12 11 11 11 10 10 10 10 10 10 10 10 10 9 9 8 8 8
12 13 13 13 13 13 14 14 15 16 17 16 15 16 16 14 14 14 14 14 14 14 14 14 13 13 13 13 13 12 12 12 11 11 10 10 10 10 10 11 11 10 10 9 9 9 8 8 8
12 13 13 13 13 13 13 13 14 16 16 16 17 16 16 16 14 14 14 14 14 14 14 14 14 13 13 13 13 13 13 12 11 11 10 11 11 10 10 11 11 10 10 9 9 9 9 9 9
12 12 12 12 12 10 13 13 14 16 16 17 17 17 17 17 16 15 15 14 14 14 14 14 14 14 13 13 13 13 13 13 12 11 11 11 11 11 11 11 11 10 10 10 9 9 9 9 9
11 11 11 10 9 11 14 13 14 16 17 16 17 17 17 17 17 16 16 16 15 15 14 14 14 14 14 14 13 13 13 13 12 12 12 11 11 11 12 11 11 10 10 10 10 9 9 9 9
11 11 11 7 7 11 14 14 15 16 16 17 17 17 17 17 17 17 17 17 16 16 16 15 14 14 14 14 14 13 13 13 12 12 12 12 11 11 11 11 11 10 10 10 10 10 9 9 9
11 11 12 12 11 10 13 15 15 15 16 17 17 18 18 17 17 18 17 17 17 17 16 16 15 15 14 14 14 13 13 13 13 12 12 12 12 11 12 11 11 11 11 11 10 10 10 9 9
12 12 11 11 8 8 11 13 16 16 17 17 17 18 18 18 18 18 18 17 17 17 17 17 16 16 15 14 14 13 12 12 13 12 12 12 12 12 12 12 11 11 11 11 10 10 9 9 9
12 12 12 12 12 7 8 13 15 15 17 17 18 18 18 18 18 18 18 18 18 17 17 17 17 16 15 15 14 14 13 12 12 13 12 13 12 12 12 12 12 11 11 11 11 10 10 9 9
13 13 12 12 11 12 12 13 16 16 17 17 18 18 18 18 18 18 18 18 18 18 17 17 17 17 16 16 15 14 13 13 13 13 13 13 13 13 13 12 12 12 12 11 11 11 10 10 9

GFSSGP_700_temp_021.txt.gz
Temp
10 10 10 10 10 10 11 11 11 11 11 11 10 10 10 10 11 11 10 10 9 9 9 9 8 8 8 8 8 8 8 7 7 7 7 8 8 8 8 9 9 9 9 9 9 8 8 8 8
10 11 11 10 10 10 11 11 11 11 11 11 10 10 11 10 11 11 11 10 9 9 9 8 8 8 8 8 8 8 8 7 7 7 7 7 8 8 8 8 8 9 9 9 8 8 8 8 8
11 11 11 10 11 11 11 11 11 11 10 10 10 11 11 11 11 10 11 10 9 9 9 9 9 8 8 8 8 8 8 8 7 7 7 8 8 8 8 8 8 8 8 8 8 8 8 8 8
12 12 11 11 11 11 11 11 11 10 10 10 10 10 11 11 11 11 11 10 10 9 9 9 9 8 8 8 8 8 8 8 8 7 8 8 8 8 8 8 8 8 9 8 8 8 8 8 8
13 13 12 12 12 12 12 12 11 11 11 11 10 11 11 11 11 11 11 10 9 9 9 9 9 8 8 8 8 8 8 8 8 8 8 8 8 8 8 8 8 8 8 8 8 8 8 7 7
13 12 12 12 12 12 12 12 11 11 11 11 11 11 11 11 11 11 11 11 10 10 9 9 8 8 8 8 8 8 8 8 8 8 8 8 8 8 8 8 8 8 8 8 8 8 8 8 7
12 12 13 13 13 13 12 12 12 11 11 12 12 12 12 11 11 11 11 10 10 9 9 9 9 8 8 8 8 8 8 8 8 8 8 8 8 8 8 8 8 8 8 8 8 8 8 7 7
13 13 13 13 13 12 13 13 12 12 12 12 11 12 12 12 11 11 11 10 10 10 9 9 9 9 9 8 8 8 8 8 8 8 8 8 8 8 8 8 8 8 8 8 8 8 7 7 7
13 13 13 13 13 13 13 13 14 13 12 12 11 11 12 12 12 11 11 11 10 10 9 9 9 9 9 9 8 8 8 8 8 8 8 8 8 8 8 8 8 8 8 8 8 8 8 8 8
13 13 13 13 13 13 13 13 13 14 13 13 12 12 11 12 12 12 12 11 11 10 10 10 9 9 9 9 9 9 9 9 8 8 8 8 8 8 8 8 8 8 8 8 8 8 8 8 8
14 14 13 14 13 13 14 14 13 14 13 13 12 13 12 12 12 12 11 11 11 10 10 10 10 10 9 9 9 9 9 9 9 8 8 8 8 8 8 8 8 8 8 8 8 8 8 8 8
14 14 14 14 13 14 14 14 13 13 13 13 12 11 12 12 12 12 11 11 11 11 11 10 10 10 10 9 9 9 9 9 9 8 8 8 8 8 8 8 8 8 8 8 8 8 8 8 8
14 15 14 14 14 14 14 15 14 14 13 13 12 12 12 12 12 12 11 11 11 11 11 11 11 10 10 10 10 10 9 9 9 8 8 8 8 8 8 8 8 8 8 8 8 8 8 8 7
14 14 14 14 14 14 15 15 14 14 13 13 13 13 13 12 12 12 12 11 11 11 11 11 11 11 10 10 10 10 9 9 9 9 9 8 8 8 8 8 8 8 8 8 7 8 8 8 8
14 14 14 14 15 14 15 15 15 14 14 13 13 13 13 13 12 12 12 12 12 11 11 11 11 11 11 10 10 10 9 9 9 9 9 8 9 8 8 8 9 8 8 8 9 8 8 8 9
13 13 13 15 15 15 15 15 16 15 14 14 13 13 13 13 13 12 12 12 12 12 12 11 11 11 11 11 10 10 10 9 9 9 9 9 8 9 9 9 8 8 8 9 9 8 8 8 8
11 13 14 14 15 14 15 15 16 15 15 14 14 13 13 13 13 13 12 12 12 12 12 11 11 11 11 11 10 10 10 9 9 9 9 9 9 9 9 8 8 9 9 9 9 9 9 9 8
11 11 12 13 14 14 15 15 16 15 15 15 14 14 13 14 14 13 12 12 12 12 12 11 11 11 11 11 11 10 10 10 10 10 10 9 9 9 8 8 9 9 10 10 10 9 9 9 9
12 12 13 14 14 14 15 15 15 15 15 15 15 14 14 14 13 13 13 13 12 12 13 12 12 11 12 12 12 11 11 11 10 10 9 9 9 9 9 9 9 9 10 10 10 9 9 9 9
12 11 12 13 14 14 14 15 15 15 16 15 15 14 14 14 14 14 13 13 13 13 13 13 13 12 12 12 12 11 11 10 10 10 9 9 9 9 9 9 9 10 10 10 9 9 8 8 9
11 11 12 13 13 14 14 14 15 16 16 16 16 15 14 14 14 15 14 14 13 13 14 13 13 13 13 12 12 12 11 11 11 11 10 10 9 9 9 9 10 10 10 9 9 8 8 8 9
10 12 11 11 12 14 13 15 15 15 16 16 16 16 16 14 14 14 14 14 14 14 14 14 13 13 13 13 13 12 12 12 11 11 10 10 10 9 9 9 10 10 10 9 9 9 8 9 9
10 10 12 11 12 12 13 14 15 15 16 16 17 18 17 15 15 14 14 14 14 14 14 14 13 13 13 13 13 13 12 12 11 11 11 10 10 10 10 10 10 10 10 9 9 9 9 9 9
10 10 11 11 12 13 13 13 15 14 16 16 17 17 18 17 15 14 14 14 14 14 14 14 14 13 13 13 13 13 13 12 12 12 11 11 11 10 11 11 10 10 10 10 9 9 9 9 9
10 11 12 12 13 14 14 13 14 15 15 16 17 17 18 17 16 15 15 15 14 14 14 14 14 14 13 13 13 13 13 13 12 12 12 11 11 11 11 11 11 10 10 10 10 9 9 9 9
10 11 13 13 15 15 13 14 14 15 16 16 17 17 18 17 17 16 16 16 15 15 14 14 14 14 14 13 13 13 13 13 13 12 12 12 12 11 11 11 11 10 10 10 10 9 9 9 9
10 10 12 12 12 13 15 14 14 15 16 16 17 17 17 17 18 18 17 16 16 16 15 15 14 14 14 14 14 14 13 13 13 13 12 12 12 11 11 11 11 11 10 10 10 10 10 10 9
11 11 10 11 13 13 15 13 16 16 16 16 17 17 18 18 18 18 18 17 17 17 16 16 15 15 14 14 14 14 14 13 13 13 12 12 12 12 11 11 11 11 11 11 10 10 10 10 10
10 10 11 12 12 15 15 16 15 15 16 17 17 18 18 18 18 18 18 18 18 17 17 17 16 16 15 15 14 14 13 13 13 12 12 12 12 12 12 12 12 11 11 11 11 11 11 10 10
11 11 11 12 11 12 14 15 16 16 16 17 17 18 18 18 18 18 18 18 18 18 18 17 17 17 16 16 15 15 14 13 13 12 12 11 12 12 12 12 12 12 11 11 11 11 11 11 10

GFSSGP_700_temp_024.txt.gz
Temp
10 10 10 10 10 10 11 11 11 11 11 10 11 10 10 11 10 10 10 9 9 9 9 8 8 8 8 8 8 8 8 8 8 8 8 8 8 9 9 9 9 9 8 8 8 8 8 8 8
10 10 10 10 10 11 12 12 12 11 11 10 10 10 11 11 11 11 10 9 9 9 8 8 8 8 8 8 8 8 8 8 8 8 8 8 8 8 9 9 9 8 8 8 8 8 8 8 8
10 10 10 10 12 13 13 12 11 10 11 10 10 10 10 11 10 10 10 9 9 8 8 8 8 8 8 8 8 8 8 8 7 7 8 8 8 8 8 8 8 8 8 8 8 8 8 8 8
11 11 11 11 14 13 12 12 11 10 10 11 11 10 11 11 11 11 10 10 9 9 9 9 9 8 8 8 8 8 8 8 7 8 8 8 8 8 8 8 8 8 8 8 8 8 8 8 8
12 12 11 13 14 13 12 11 11 11 10 11 10 11 11 11 11 10 10 10 9 9 9 9 9 8 8 8 8 8 8 8 8 8 8 8 8 8 8 8 8 8 8 8 8 8 8 8 8
12 12 13 16 15 13 12 11 11 11 10 11 11 11 12 11 11 10 10 10 9 9 9 9 9 8 8 8 8 8 8 8 8 8 8 8 8 8 8 8 8 8 8 8 8 8 8 8 8
12 12 15 15 15 14 13 12 12 11 10 10 12 12 12 11 11 11 10 10 9 9 9 9 9 9 8 8 8 8 8 8 8 8 8 8 8 8 8 8 8 8 8 8 8 8 8 8 8
12 12 14 15 15 14 13 12 11 11 10 12 12 13 13 12 11 11 11 10 9 9 9 9 9 9 8 8 8 8 8 8 8 8 8 8 8 8 8 8 8 8 8 8 8 7 8 8 8
13 12 15 15 15 14 13 12 11 12 12 12 12 12 12 12 11 11 11 10 10 10 9 9 9 9 9 8 8 8 8 8 8 8 8 8 8 8 8 8 8 8 8 8 7 7 7 7 7
13 13 15 14 14 14 13 13 13 12 12 12 12 12 12 12 12 12 12 11 11 10 10 9 9 9 9 8 8 8 8 8 8 8 8 8 8 8 8 8 8 8 8 8 8 7 7 6 5
14 13 14 14 14 13 14 13 12 12 11 12 13 12 12 12 12 12 11 11 11 10 10 10 9 9 9 9 9 9 9 9 8 8 8 8 8 8 8 8 8 8 8 7 7 7 7 6 5
13 14 13 14 13 13 14 13 13 13 13 12 12 11 12 12 12 12 12 11 10 10 10 10 10 10 9 9 9 9 9 9 8 8 9 9 8 8 8 8 8 8 8 8 8 7 7 7 6
14 13 13 13 14 13 14 13 13 12 13 13 13 12 12 11 11 11 11 10 10 10 10 10 10 10 10 9 9 9 9 9 9 9 9 9 9 8 8 8 8 8 8 8 8 8 8 8 8
13 12 13 13 14 14 14 14 13 13 14 13 13 13 12 11 11 11 11 11 10 10 10 10 10 10 10 10 10 9 9 9 9 9 9 9 9 9 9 8 8 8 8 8 8 8 8 8 6
12 12 13 14 14 15 14 15 14 13 14 14 13 13 13 13 11 11 11 11 11 11 11 11 11 10 10 10 10 10 10 9 9 9 9 9 9 9 9 9 9 8 8 8 8 8 7 9 8
13 13 14 15 15 15 15 17 15 14 15 14 14 13 14 13 13 12 11 11 11 10 11 11 11 11 11 10 10 10 10 10 9 9 9 9 9 9 9 8 8 9 9 8 8 8 8 9 8
13 15 15 16 15 15 15 17 16 14 15 14 14 14 14 14 13 12 12 11 11 11 11 11 11 11 11 11 10 10 10 10 9 9 9 9 9 9 9 9 8 9 9 9 9 8 9 9 9
15 15 16 16 16 15 16 16 16 14 14 13 14 14 14 14 14 13 12 12 11 11 11 11 11 11 11 11 11 10 10 10 10 10 9 9 9 9 9 9 9 9 9 9 8 8 9 9 9
15 15 15 16 16 15 16 16 16 15 13 14 13 15 14 14 14 13 13 12 12 12 12 12 12 12 11 11 11 11 11 11 10 10 10 9 9 9 9 9 9 9 9 9 8 8 9 9 9
13 14 15 15 15 15 16 16 16 15 14 14 13 15 15 14 14 13 13 13 13 12 12 12 12 12 12 12 12 12 11 11 11 10 10 10 10 10 9 9 9 9 9 9 9 8 8 9 9
12 13 14 15 15 14 15 16 16 16 15 14 13 13 15 14 14 14 14 14 13 13 13 13 13 12 12 12 12 12 11 11 11 11 11 10 10 10 10 10 10 10 10 9 9 8 8 9 9
12 12 13 14 15 16 16 18 17 17 16 15 14 14 15 15 14 14 14 14 14 14 13 13 13 13 13 13 12 12 12 12 11 11 11 10 10 10 10 10 10 10 10 10 9 9 9 9 9
12 13 13 13 14 14 16 16 17 17 16 16 15 15 14 15 15 15 15 15 14 14 13 13 13 13 13 13 13 12 12 12 11 11 11 11 11 10 10 10 10 10 10 10 10 9 9 9 9
12 12 13 12 14 16 16 16 17 17 17 16 16 15 17 17 17 16 15 14 14 14 14 14 13 13 13 13 13 13 13 12 12 12 11 11 11 11 10 11 11 11 10 10 10 10 10 10 9
11 12 14 15 16 17 16 16 16 17 17 16 17 16 17 17 17 16 15 15 14 14 14 14 14 14 13 13 13 13 13 13 12 12 11 11 11 11 11 11 11 11 10 10 10 10 10 10 10
11 12 16 16 18 18 16 17 17 17 16 16 16 17 16 17 17 17 17 16 15 15 14 14 14 14 14 13 13 13 13 13 13 12 12 12 12 11 11 11 11 11 11 10 10 10 10 10 10
12 12 14 17 17 18 19 17 17 16 17 16 16 17 17 17 17 17 17 16 16 15 15 14 14 14 14 14 13 13 13 13 13 13 12 12 12 12 11 12 12 11 11 11 10 10 10 10 10
13 13 14 15 16 17 18 18 18 17 16 16 16 17 17 16 18 18 17 17 17 17 16 15 15 14 14 14 14 14 14 13 13 13 13 13 12 12 12 12 12 12 11 11 11 11 10 10 10
12 13 13 15 16 18 19 20 18 17 16 16 16 17 17 17 17 18 18 18 17 17 17 17 16 15 14 14 14 14 14 14 14 13 13 13 13 12 12 12 12 12 11 11 11 11 11 11 11
13 13 13 15 15 15 17 20 17 16 16 16 17 17 17 17 17 18 18 18 18 18 17 17 17 17 16 15 15 14 14 14 14 14 13 13 13 13 12 12 12 12 12 12 11 11 11 11 11

GFSSGP_700_temp_027.txt.gz
Temp
10 10 10 10 10 10 11 12 13 14 12 12 11 11 11 11 11 10 9 9 9 9 9 8 7 8 9 9 9 9 8 8 8 8 8 8 9 9 8 9 9 9 9 9 8 8 8 8 8
10 10 10 10 10 10 14 13 13 13 12 11 11 11 12 11 11 11 9 9 8 9 9 8 8 9 9 9 9 8 8 8 8 9 8 8 8 8 8 9 8 8 9 8 8 8 8 8 8
10 11 10 10 11 13 15 12 13 13 12 11 11 11 11 11 11 10 9 9 8 9 9 8 8 9 9 9 9 8 8 8 8 8 8 8 8 8 8 8 8 8 8 8 8 8 8 8 8
12 11 11 11 12 16 14 13 13 13 13 12 12 11 11 11 11 10 9 9 9 9 8 9 9 9 9 9 8 8 8 8 8 8 8 8 8 8 8 8 8 8 8 8 8 8 8 8 8
12 10 11 13 14 16 15 13 12 12 13 12 12 10 12 11 10 10 10 9 8 9 9 9 9 9 9 8 8 8 8 8 8 8 8 8 8 8 8 8 8 8 8 8 8 8 8 8 8
12 10 12 14 17 16 15 14 13 12 13 11 11 11 12 11 11 10 9 9 9 9 9 9 9 9 9 8 8 8 8 8 8 8 8 8 8 8 8 8 8 8 8 8 8 8 8 8 8
10 11 13 15 16 16 15 15 13 13 13 12 10 10 12 11 11 10 9 8 9 9 9 9 9 9 9 8 8 8 8 8 8 8 8 8 8 8 8 8 8 8 8 8 8 8 8 8 8
11 13 14 16 14 15 15 15 15 13 13 12 12 13 13 11 11 10 10 8 9 8 9 9 9 9 9 9 9 8 8 8 8 8 8 8 8 8 8 8 8 8 8 8 8 8 8 7 8
11 12 15 17 15 16 15 15 14 13 12 12 11 12 13 12 9 10 10 9 8 7 9 9 9 9 9 9 9 8 8 8 8 8 8 8 8 9 9 8 8 8 8 8 8 8 8 8 7
12 13 14 16 17 17 16 15 14 14 12 12 12 10 12 12 11 11 10 10 9 8 6 6 9 9 9 9 9 9 8 8 8 8 9 9 8 8 9 8 8 8 8 8 8 7 8 8 8
13 13 13 16 16 16 16 15 15 14 14 12 11 13 13 12 11 11 11 10 10 7 7 7 7 9 9 8 9 9 8 8 8 8 9 9 8 9 9 9 8 9 9 8 8 8 7 7 7
14 15 14 16 16 16 16 16 15 15 15 13 11 12 12 12 10 8 8 8 7 7 7 7 6 9 9 8 9 9 6 6 6 8 9 9 9 9 7 8 8 8 7 8 9 7 7 8 8
14 15 15 15 15 16 16 16 14 15 14 13 11 12 12 11 9 9 9 8 8 7 7 7 9 10 10 10 9 6 6 7 6 8 9 9 8 9 8 9 8 7 8 9 8 8 9 9 8
15 15 15 15 16 16 16 16 15 15 14 13 13 13 11 9 9 9 9 8 8 8 7 7 9 10 10 10 10 10 9 7 7 7 9 9 9 9 8 8 8 8 9 9 8 8 7 7 7
15 15 15 15 16 16 16 17 16 16 14 13 13 13 11 10 9 9 9 8 8 9 7 7 10 10 10 10 10 10 10 9 7 9 9 9 9 9 8 9 8 8 8 8 9 9 7 7 6
14 14 15 16 16 17 16 18 17 16 14 13 12 12 12 12 10 9 9 9 9 8 9 10 10 10 10 10 10 10 10 10 9 9 9 9 9 9 9 9 8 8 8 8 8 9 8 6 5
15 16 16 17 17 17 17 18 15 16 15 14 13 12 11 11 10 10 9 9 9 9 11 11 10 11 11 10 10 10 10 10 10 9 9 10 10 10 9 9 8 8 9 8 9 9 8 7 6
16 16 17 18 18 17 18 17 16 16 16 15 14 13 12 11 13 12 11 11 9 10 11 11 11 11 11 11 11 11 11 10 10 10 10 10 10 10 10 9 8 8 8 9 8 8 9 9 8
16 17 18 18 18 18 18 18 18 17 17 16 15 14 13 12 11 11 13 11 10 9 12 12 11 11 11 11 11 11 11 11 10 10 10 10 10 10 10 10 9 9 10 9 9 9 9 9 9
15 16 18 18 18 18 18 18 18 18 17 16 16 14 13 13 12 11 13 12 12 12 12 12 12 12 12 11 11 11 11 11 11 10 10 10 10 10 10 10 9 9 10 9 9 8 8 9 9
15 16 17 18 18 18 18 18 18 18 18 16 16 15 14 13 13 14 14 13 13 12 13 13 12 12 12 12 11 11 11 11 11 11 11 11 11 11 11 10 10 10 10 9 9 8 8 7 9
15 15 16 17 18 18 17 19 18 18 18 17 16 16 15 14 13 13 14 14 14 14 13 13 13 13 12 12 12 12 12 12 11 11 11 11 11 10 11 11 10 10 10 10 9 9 10 9 9
15 16 15 16 16 17 18 18 19 18 18 18 17 16 16 15 14 13 15 15 14 14 14 13 13 13 13 13 13 13 12 12 12 11 11 11 11 11 11 11 11 11 10 10 10 10 10 10 10
14 15 15 15 16 18 17 18 19 20 19 19 18 17 17 16 15 13 13 14 15 14 14 13 13 13 13 13 13 13 13 12 12 12 12 12 12 12 12 11 11 11 11 10 10 10 10 10 10
14 14 16 17 18 18 17 18 19 19 19 19 18 18 17 17 15 14 13 14 15 14 14 14 14 13 13 13 13 13 13 12 12 12 12 12 12 12 12 12 12 11 11 11 11 10 10 10 10
14 15 17 17 19 20 18 19 18 19 19 19 19 18 18 17 16 15 13 14 15 15 15 14 14 14 14 14 13 13 13 13 13 13 12 12 12 12 12 12 12 12 11 11 11 11 11 10 10
15 15 16 19 19 21 20 19 19 19 19 18 19 18 18 18 16 15 14 14 16 15 15 14 14 14 14 14 14 13 13 13 13 13 13 13 13 12 12 12 12 12 12 11 11 11 11 11 11
16 15 16 17 19 20 21 21 20 19 18 19 18 18 18 18 17 16 15 14 17 16 16 15 15 15 15 14 14 14 13 13 13 13 13 13 13 13 12 13 12 13 13 12 11 11 11 11 11
14 15 15 17 18 21 21 21 20 20 19 18 18 18 18 18 17 16 15 15 16 16 16 16 16 15 15 15 15 14 14 14 14 13 13 13 13 13 13 13 13 13 13 12 12 12 11 11 11
15 15 16 16 18 19 20 21 19 20 19 18 18 18 18 18 18 17 16 15 14 16 17 17 17 16 16 15 15 15 15 14 14 14 14 14 13 13 13 13 13 13 13 13 12 12 12 12 12

GFSSGP_700_temp_030.txt.gz
Temp
10 10 10 10 10 11 11 11 11 12 13 13 13 12 10 11 11 11 12 11 10 9 8 8 8 8 9 9 9 9 9 9 9 9 9 9 9 9 9 9 9 9 9 9 8 8 8 8 8
11 10 10 10 10 9 11 12 12 13 13 13 11 11 12 13 12 12 11 11 10 9 9 8 8 8 9 9 9 9 9 9 9 9 9 9 9 9 9 9 9 9 9 9 8 8 8 8 8
11 10 10 10 10 11 12 13 13 13 12 12 11 11 12 12 11 11 11 10 9 9 8 8 9 9 9 9 9 9 9 9 9 9 9 9 9 9 9 9 9 9 9 8 9 9 9 9 9
11 10 10 11 12 12 13 13 14 13 13 12 12 11 12 10 11 11 10 10 10 9 9 9 9 9 9 9 9 9 9 9 9 8 8 8 9 9 9 9 9 9 9 9 9 9 9 9 9
11 10 10 12 12 13 15 13 14 12 13 12 12 10 10 10 10 10 10 10 10 10 9 9 9 9 9 9 9 8 8 8 8 8 8 9 9 8 9 9 9 9 9 9 9 9 9 8 9
10 11 11 12 14 15 15 14 14 14 13 12 12 12 10 11 10 10 10 10 9 9 9 9 9 9 9 9 8 8 8 8 8 8 8 9 9 9 9 9 9 9 9 9 8 8 9 9 8
11 12 11 12 13 16 15 14 14 14 14 12 12 13 10 10 10 10 9 10 9 9 9 9 9 9 9 9 8 8 8 8 8 8 8 8 8 8 8 9 9 9 9 8 8 8 9 9 9
10 10 10 12 14 16 16 15 14 14 13 12 13 14 11 10 10 10 8 8 9 9 9 9 9 9 9 9 9 8 8 8 8 9 9 8 8 8 8 8 9 9 9 8 9 9 9 9 9
11 11 11 13 13 15 16 15 14 13 13 13 12 13 13 11 10 9 8 9 9 8 9 9 9 9 9 9 9 9 9 8 8 8 8 8 8 8 8 8 8 9 9 8 8 7 8 7 8
12 11 14 14 14 15 16 15 15 14 14 12 12 13 13 12 10 10 9 9 9 7 9 9 10 10 9 9 9 9 9 9 8 9 9 8 9 8 9 8 8 8 7 8 8 8 8 8 7
13 13 14 15 16 16 16 16 16 15 14 12 13 13 13 13 11 11 11 9 9 8 8 9 10 10 9 9 9 9 9 9 9 9 8 8 8 9 9 8 8 8 8 7 8 8 8 7 6
14 13 12 14 16 17 16 14 16 15 13 13 13 13 13 13 11 11 10 9 8 8 7 8 10 10 9 9 9 9 9 8 9 8 8 8 8 9 9 8 9 8 9 8 8 7 8 8 7
15 15 14 14 16 17 17 14 15 14 14 12 11 12 9 10 10 9 10 10 9 8 8 7 10 10 9 8 9 9 8 8 7 9 8 8 9 8 8 8 8 9 8 9 7 7 9 9 7
15 16 15 15 16 17 17 17 16 15 14 13 11 11 10 9 9 9 9 9 9 8 8 8 10 10 10 10 10 8 7 8 8 8 8 8 9 9 9 9 9 9 8 8 8 8 8 8 8
16 16 16 16 17 17 18 18 17 14 14 13 11 11 10 10 10 10 9 9 9 8 8 8 11 10 10 10 10 10 9 10 8 8 9 9 9 10 9 10 10 8 8 8 9 9 7 8 7
15 16 16 17 17 17 17 18 17 16 15 13 12 11 10 10 10 10 9 9 9 9 8 9 11 11 11 10 10 10 10 10 9 10 10 10 10 10 10 9 10 9 9 10 10 9 8 7 7
15 16 16 17 17 17 18 18 18 16 14 14 13 12 11 10 10 10 9 9 9 9 9 10 11 12 11 11 10 10 10 10 10 10 10 10 10 10 10 10 10 9 8 9 9 9 8 7 6
15 16 17 17 18 18 18 18 17 16 14 15 14 13 11 11 11 10 10 9 9 9 11 11 11 12 11 11 11 10 11 11 11 10 10 10 10 10 10 10 9 10 9 9 9 9 9 9 8
16 17 17 18 18 18 18 18 17 16 14 14 14 14 13 12 11 11 10 9 9 10 12 11 12 12 12 11 11 11 11 11 11 11 10 11 11 11 11 10 9 10 10 9 9 9 9 9 8
15 16 18 18 19 19 19 19 18 17 16 15 15 12 13 13 12 11 11 10 9 11 13 12 12 12 12 12 11 11 11 11 11 11 11 11 11 11 11 11 11 11 10 10 9 9 9 9 9
15 16 17 19 19 19 19 19 19 18 17 17 15 16 15 14 13 12 13 12 12 12 14 13 13 13 12 12 12 11 11 11 11 11 11 11 11 11 11 11 10 11 10 10 9 9 10 10 9
15 16 17 18 19 19 19 20 19 18 18 18 16 17 15 14 13 12 12 13 14 13 14 14 13 13 12 12 12 12 12 12 12 11 11 12 11 11 12 11 11 11 11 10 10 10 10 10 10
15 16 16 17 18 19 20 19 20 19 19 19 18 17 15 15 14 13 13 14 14 13 14 14 13 13 13 12 12 12 12 12 12 12 12 12 12 12 12 12 11 11 11 11 10 10 10 10 10
16 16 17 17 17 19 19 20 19 19 19 19 18 18 17 16 15 14 13 13 12 12 13 14 14 13 13 13 13 13 12 12 12 12 12 12 13 12 12 12 11 11 11 11 11 11 11 10 10
16 16 17 17 18 18 18 18 19 20 19 19 19 18 18 17 16 15 14 13 14 14 15 14 14 13 13 13 13 13 13 13 13 13 12 13 13 13 12 12 12 12 12 11 11 11 11 11 11
16 16 17 16 18 18 18 19 18 19 20 19 19 19 18 17 17 16 15 14 15 15 15 15 14 14 14 14 13 13 13 13 13 13 13 13 13 13 13 13 13 12 12 12 11 11 11 11 11
16 16 17 18 18 19 19 18 19 19 19 20 20 20 19 18 17 16 15 14 16 15 15 15 15 15 14 14 14 13 13 13 13 13 13 13 13 13 13 13 13 13 13 12 11 11 11 11 11
16 16 16 17 18 19 20 21 19 19 19 19 19 20 19 19 18 17 16 15 17 16 15 15 15 15 15 14 14 14 14 13 13 13 13 13 13 13 13 14 13 13 13 13 12 11 11 11 11
16 17 16 17 18 20 20 22 22 20 20 20 19 19 19 19 18 17 16 15 17 17 16 15 15 15 15 15 15 14 14 14 14 14 13 13 13 13 13 13 13 13 13 13 13 12 12 12 12
16 16 17 17 18 19 20 22 21 21 20 20 19 19 19 19 18 18 17 16 15 17 17 16 16 16 16 15 15 15 15 14 14 14 14 14 13 13 13 13 14 13 14 14 13 13 12 12 12

GFSSGP_700_temp_033.txt.gz
Temp
10 10 9 10 9 10 10 11 11 11 11 12 12 13 13 12 12 12 12 10 9 9 9 9 9 9 8 8 9 8 8 8 9 9 10 10 9 9 9 9 9 9 9 9 9 9 9 9 9
10 10 10 10 10 10 11 11 12 12 12 12 13 13 12 12 12 13 13 10 9 9 9 9 9 9 8 9 8 8 8 9 9 9 9 9 9 9 9 9 9 9 9 9 9 9 9 9 8
11 10 10 10 10 9 11 12 13 11 11 12 13 12 13 13 13 13 12 11 9 9 9 9 9 9 9 8 8 8 9 9 9 9 9 9 9 9 9 9 9 9 9 9 9 9 9 9 8
11 10 10 10 11 12 12 13 13 13 13 13 13 13 12 12 13 12 11 10 10 9 9 9 9 9 9 8 8 9 9 9 9 9 9 9 9 9 9 9 9 9 9 9 9 9 9 8 8
12 10 10 10 11 12 13 13 12 12 12 13 13 12 13 11 12 12 11 11 10 10 9 9 9 9 9 9 8 8 8 9 9 9 9 9 9 9 9 9 9 9 9 9 9 9 8 8 8
11 10 10 11 11 11 13 14 13 13 13 13 12 12 11 10 10 11 11 11 10 10 9 9 9 9 9 8 8 8 8 9 9 9 9 9 9 9 9 9 9 8 8 8 8 9 9 8 8
10 10 10 11 11 12 14 14 14 14 13 13 13 13 11 10 9 11 11 11 11 10 10 9 9 9 9 8 9 8 8 9 9 9 9 9 9 9 9 8 8 8 8 8 8 8 9 9 8
10 10 11 12 12 11 12 14 14 13 12 13 12 14 13 11 10 10 10 10 10 10 9 9 9 9 9 9 9 8 9 8 9 9 9 9 8 8 8 9 9 9 9 9 8 7 7 8 8
10 10 8 11 11 12 12 14 14 14 13 13 13 12 13 11 9 10 10 10 10 9 10 9 9 9 9 9 9 8 8 8 9 9 9 8 9 8 8 9 9 8 8 8 8 7 7 7 7
10 11 10 12 11 14 12 12 14 12 13 13 13 12 12 11 10 9 10 10 10 10 10 10 9 9 9 9 9 9 8 9 9 9 9 9 9 9 9 9 8 7 8 8 9 8 7 7 6
10 12 13 13 13 13 14 12 13 12 13 14 14 14 13 11 10 9 10 10 10 10 10 10 9 9 9 9 9 9 8 8 9 9 9 9 8 9 9 8 8 7 8 8 9 9 8 7 6
11 12 14 15 14 13 13 14 13 13 14 14 14 14 14 13 12 11 10 10 11 10 10 9 10 10 9 9 9 8 9 9 9 9 8 9 9 10 8 9 8 9 8 8 9 9 8 7 6
12 13 14 16 15 14 15 16 14 13 14 14 14 14 13 13 12 11 10 10 10 10 10 9 10 10 10 10 9 8 9 10 9 9 8 9 10 10 9 10 8 8 8 8 8 9 8 6 6
13 14 15 15 16 14 15 16 15 13 14 15 13 14 13 13 13 12 11 11 10 10 11 10 10 10 10 10 10 9 8 8 8 9 9 9 9 10 9 9 8 9 9 9 9 9 8 6 7
13 14 14 14 14 16 15 15 14 13 14 14 14 14 13 12 11 11 11 11 10 10 10 10 10 10 10 11 11 10 9 8 8 8 9 9 9 9 8 9 9 9 10 10 9 8 7 6 6
13 14 14 14 16 16 16 15 14 15 16 14 14 13 12 11 12 11 10 10 10 9 10 10 10 10 10 10 10 10 10 9 9 9 9 9 9 9 10 9 9 9 9 10 9 7 7 7 6
13 14 15 16 16 17 17 17 15 14 14 13 13 11 10 10 10 10 10 9 10 10 11 10 11 11 11 11 10 10 10 10 9 10 9 9 9 9 9 9 10 9 8 9 9 8 8 8 6
13 14 15 16 17 17 17 17 16 14 13 14 12 10 10 10 10 10 10 9 9 9 10 11 12 11 11 11 11 10 10 10 10 11 10 10 9 10 10 9 9 9 10 9 9 8 8 8 8
13 14 15 16 17 17 17 17 16 13 13 14 13 11 10 12 10 10 10 9 9 9 11 12 12 12 11 12 11 11 11 11 11 11 11 10 10 10 10 10 9 9 9 9 9 8 8 9 8
13 14 15 16 17 17 17 18 15 15 15 16 15 12 11 13 11 11 10 10 10 11 12 12 12 13 12 12 11 11 11 11 11 11 11 11 11 10 10 10 10 10 10 10 9 9 9 9 7
13 14 15 16 17 18 18 18 16 16 17 15 14 14 11 14 13 13 11 12 12 13 13 13 13 13 13 12 12 12 11 11 11 11 12 11 11 11 11 10 10 10 10 10 10 10 10 10 9
13 14 15 15 16 17 19 17 18 17 17 17 16 14 15 14 13 13 13 11 13 14 14 13 13 13 13 12 12 12 12 12 12 11 12 12 12 11 11 11 11 11 11 10 10 10 10 10 10
14 14 15 15 16 16 17 18 19 18 17 17 17 16 15 14 12 13 14 14 13 13 14 14 13 13 13 13 13 12 12 12 12 12 12 12 12 12 12 11 11 11 11 11 10 11 11 10 10
14 14 15 15 16 15 17 17 19 19 18 17 17 16 14 14 15 15 14 14 13 14 14 13 13 13 13 13 13 13 13 12 12 13 12 12 12 12 12 12 11 11 12 11 11 11 11 10 10
14 14 14 13 14 14 16 17 18 19 19 19 17 17 17 16 16 15 14 15 13 14 14 15 14 14 13 13 13 13 13 13 13 13 13 13 13 12 12 12 12 11 12 11 11 11 11 11 11
14 15 14 11 12 14 16 17 18 18 18 19 19 18 18 16 17 17 16 15 15 15 15 15 15 14 14 14 13 13 13 13 13 13 13 13 13 13 12 12 12 12 12 12 11 11 11 11 11
15 15 15 16 17 16 17 17 17 18 19 19 19 18 18 17 17 16 17 16 15 15 15 15 15 14 14 14 14 14 14 13 14 13 13 13 13 13 13 12 13 12 12 13 12 12 11 11 11
15 15 15 16 12 12 17 17 17 18 19 19 19 19 18 18 18 17 17 16 17 16 16 15 15 14 14 14 14 14 14 14 13 13 13 13 13 13 13 13 13 13 13 12 13 12 11 12 11
16 16 16 16 16 11 12 17 19 19 19 19 19 19 19 18 17 18 17 16 17 17 16 15 14 15 14 14 15 14 14 14 13 13 13 13 13 13 13 14 14 13 13 13 12 13 12 12 12
15 16 16 15 15 16 16 17 19 20 20 20 19 19 19 19 18 18 17 17 17 17 17 16 15 15 15 15 15 15 14 14 14 14 14 14 13 13 13 13 13 13 13 13 13 13 13 12 12

GFSSGP_700_temp_036.txt.gz
Temp
10 10 10 9 10 10 10 11 11 10 11 12 12 12 12 12 12 12 10 10 9 9 9 9 9 9 9 9 9 8 8 9 9 9 9 9 9 9 9 9 9 9 9 9 8 8 8 9 9
10 10 10 10 10 11 11 11 11 11 11 12 11 12 12 13 12 11 11 10 9 9 9 9 9 9 9 9 8 8 9 9 9 9 9 9 9 9 9 9 9 8 8 8 8 9 8 8 8
10 10 10 10 10 11 11 12 10 11 12 12 12 12 12 12 12 12 11 10 9 9 9 9 9 9 9 8 8 8 9 9 9 9 10 9 9 9 9 9 8 8 8 8 8 8 8 8 8
10 10 10 10 11 11 11 11 10 10 11 12 12 12 13 12 12 12 11 10 9 9 9 9 9 9 9 8 8 9 9 9 9 9 9 9 9 9 9 9 9 9 9 9 9 8 8 8 8
10 10 10 11 11 12 12 11 10 11 12 12 12 13 13 12 11 11 11 10 9 9 9 9 9 9 9 8 9 9 9 9 9 9 9 9 9 9 9 9 9 9 9 9 9 9 9 9 8
10 10 11 10 11 11 12 11 12 13 13 13 13 13 13 12 11 11 10 10 9 9 9 9 9 9 9 8 8 8 8 9 9 9 9 9 9 9 9 9 9 9 9 9 8 8 8 9 9
10 10 11 10 11 12 12 12 12 13 13 13 12 13 12 11 10 11 11 9 9 9 9 9 9 9 9 8 8 8 8 9 9 9 9 9 9 9 8 9 9 9 8 9 9 9 8 8 8
11 11 12 11 10 12 11 11 11 13 13 12 11 13 13 11 10 11 10 10 10 9 9 9 9 9 8 8 8 9 9 9 9 9 9 9 9 9 8 9 9 8 8 8 8 8 8 8 8
10 10 12 12 10 9 10 11 11 12 13 12 12 12 12 12 10 11 11 10 10 10 10 9 9 9 9 9 9 9 9 9 9 9 9 9 9 9 9 9 8 8 8 8 7 7 7 7 7
10 11 13 14 12 10 10 10 11 12 13 14 13 12 12 12 11 11 11 10 10 10 10 9 9 9 9 9 9 9 9 9 9 8 9 9 9 9 10 9 8 8 8 8 8 8 7 7 7
12 12 12 13 13 11 12 13 13 13 13 13 14 14 12 12 11 11 11 11 11 10 10 9 9 9 9 9 9 9 9 9 9 9 8 9 8 9 9 8 8 8 8 8 7 8 7 6 7
12 13 12 13 14 13 13 13 15 14 14 13 14 14 14 13 12 11 11 11 10 10 10 9 9 9 9 9 9 9 9 8 8 8 8 8 9 9 9 9 9 8 8 8 8 7 6 6 6
12 14 13 12 13 14 14 13 13 15 14 14 13 13 13 13 12 11 10 10 10 10 10 10 9 9 9 9 9 9 9 9 9 9 8 8 9 10 9 9 9 9 9 9 7 7 6 6 6
14 15 14 12 13 14 15 13 13 14 14 15 13 13 13 13 12 12 10 10 10 10 10 10 9 9 9 9 10 10 9 9 9 10 9 8 9 9 10 9 9 9 9 9 7 7 6 6 6
13 12 12 13 13 13 14 13 14 15 15 14 15 13 13 13 12 12 12 11 10 10 10 10 9 9 9 10 10 10 10 10 10 10 9 9 9 9 10 10 9 9 9 9 8 7 6 6 6
11 11 12 13 14 14 13 13 14 14 14 14 14 13 13 13 12 11 11 11 11 10 10 10 9 10 10 10 10 10 10 11 10 9 9 9 10 10 10 10 9 9 9 8 8 7 7 6 5
12 11 12 13 14 14 14 14 14 13 13 14 14 15 13 12 11 11 11 10 10 11 10 10 10 10 10 10 10 10 11 11 11 10 10 10 10 10 10 10 9 9 9 8 8 8 8 6 6
11 12 12 13 14 14 13 14 14 14 13 15 15 15 15 13 13 11 11 10 10 10 12 11 11 10 10 10 10 10 10 10 10 11 10 10 10 10 10 9 9 9 9 9 8 8 8 7 6
11 12 13 14 15 15 15 15 15 15 14 14 15 15 16 15 12 10 10 10 10 10 12 12 11 11 10 11 10 10 10 11 11 10 11 10 10 10 10 10 9 9 9 9 8 8 8 7 6
11 12 13 14 15 15 16 15 14 15 14 15 16 15 14 15 14 12 9 10 10 12 12 12 12 11 11 11 11 11 11 11 11 11 11 10 10 10 10 10 9 9 10 9 9 9 9 8 8
11 12 13 13 16 15 16 14 12 13 14 14 14 14 14 15 15 14 11 12 12 12 12 12 12 11 11 11 11 11 11 10 11 11 11 11 10 10 10 10 10 9 9 9 9 10 10 9 8
11 12 13 13 13 13 15 14 13 14 14 13 14 15 16 15 14 14 13 12 13 13 13 12 12 11 11 11 11 11 12 12 12 11 11 11 11 10 10 10 10 10 10 10 10 10 10 10 10
11 12 13 13 13 14 14 15 15 15 15 15 15 16 16 15 15 15 14 14 14 12 11 12 12 12 12 12 11 12 12 12 11 11 12 11 11 11 11 11 11 10 10 10 10 10 11 11 10
11 12 13 13 13 12 14 14 16 13 15 16 16 16 16 16 16 16 14 13 13 13 12 11 12 12 12 12 12 12 12 12 12 12 12 12 11 11 11 11 11 11 11 11 11 10 11 11 11
11 12 12 11 12 11 14 14 15 16 15 17 18 17 16 16 16 16 15 13 14 14 13 13 13 13 13 12 12 12 12 12 12 12 12 12 12 12 12 11 11 11 11 11 11 11 11 11 11
12 12 12 9 9 12 14 14 16 16 17 17 18 18 18 17 17 16 16 16 16 14 14 14 14 13 13 13 13 13 12 12 12 12 12 12 12 12 12 12 11 11 12 11 11 11 11 11 11
12 12 13 14 14 13 15 15 15 17 17 16 17 17 17 17 17 17 17 16 16 15 15 14 14 14 14 14 13 13 13 13 13 13 13 13 12 12 12 12 12 12 12 11 11 11 11 11 11
13 13 13 13 10 10 13 16 16 17 17 18 17 18 17 17 17 17 17 16 16 16 16 15 14 14 14 14 13 13 13 13 13 13 13 13 13 12 12 12 12 12 12 12 12 11 11 11 11
12 13 14 14 14 10 10 15 17 18 18 19 18 18 18 17 17 17 17 17 17 17 16 15 14 14 14 14 14 14 14 14 13 13 13 13 13 13 12 12 12 12 12 12 12 12 11 12 11
13 13 14 14 12 14 15 15 17 17 18 19 19 19 18 18 18 18 18 17 17 17 16 16 14 14 14 15 15 14 14 14 14 13 13 13 13 13 13 12 13 13 12 12 12 12 12 12 12

GFSSGP_700_temp_039.txt.gz
Temp
10 10 9 9 9 9 10 11 10 11 11 11 10 10 10 10 11 11 10 9 8 9 8 8 8 8 8 8 8 8 8 8 9 9 8 9 9 9 9 8 8 8 8 8 8 8 8 8 8
10 10 9 10 9 9 10 11 11 11 11 11 10 10 10 10 11 11 10 9 9 9 9 8 8 9 9 9 8 8 8 8 9 9 9 9 9 9 9 8 8 8 8 8 8 8 8 8 8
10 10 9 10 10 10 11 11 10 11 11 11 12 11 11 11 11 11 10 10 9 9 9 9 9 9 9 9 8 8 8 9 9 9 9 9 9 9 9 8 9 9 9 9 9 9 8 8 8
10 10 10 10 11 11 11 10 11 11 12 11 11 11 12 12 11 11 10 10 9 9 9 9 9 9 9 8 8 8 9 9 9 9 9 9 9 9 9 9 9 9 8 8 9 9 8 9 8
10 10 10 10 11 11 11 11 11 11 11 11 11 12 12 11 11 10 10 9 9 9 9 9 9 9 8 8 8 9 9 9 9 9 9 9 9 9 9 9 9 9 8 8 8 8 8 8 8
10 10 10 11 11 11 11 11 11 11 11 12 12 12 12 12 11 10 10 9 9 9 9 9 9 8 8 9 9 9 9 9 9 9 9 9 9 9 9 9 9 9 8 8 8 8 8 8 8
10 10 10 10 11 11 11 11 11 11 11 12 12 12 12 12 10 10 10 9 9 9 9 9 9 8 9 9 9 9 9 9 9 8 8 8 9 9 8 9 8 8 9 9 8 8 8 7 7
10 11 11 11 12 11 11 12 12 11 12 12 12 12 13 12 10 10 10 9 9 9 9 9 9 9 9 8 9 9 8 8 8 8 8 9 9 9 9 9 8 8 8 7 8 8 8 8 7
10 10 11 12 13 12 11 13 12 11 12 11 12 12 13 12 10 10 10 9 9 9 9 9 9 8 9 8 9 8 8 9 9 9 9 8 8 9 9 9 8 8 8 7 7 7 7 7 7
10 11 11 12 13 11 12 12 12 12 12 13 12 12 11 12 11 11 11 11 10 9 10 9 9 8 9 9 9 9 9 8 8 9 8 8 8 9 8 8 8 8 8 7 6 6 7 7 7
11 12 12 12 12 12 12 12 12 12 13 13 13 13 12 12 12 11 11 11 11 10 10 9 9 9 9 9 9 9 9 9 8 8 8 8 8 9 8 9 8 7 8 7 7 7 7 7 7
13 13 12 12 11 12 12 12 13 12 12 13 14 12 14 12 12 12 11 11 10 10 10 9 9 9 9 9 9 8 9 8 9 9 8 8 8 8 8 9 8 8 8 7 7 7 6 6 6
13 13 13 11 11 12 11 12 13 13 13 13 14 13 13 12 12 11 11 11 10 10 10 9 9 9 9 9 9 9 8 8 9 9 8 8 8 8 8 8 9 8 8 8 7 7 6 5 5
14 12 13 12 12 12 13 13 13 13 13 12 13 13 13 12 12 11 11 11 11 11 10 10 9 9 9 9 9 9 8 8 8 8 9 8 8 8 8 9 9 9 8 8 7 6 6 6 5
13 12 12 12 12 11 13 13 13 13 13 12 14 13 13 12 12 12 11 11 11 11 10 10 9 9 9 9 9 9 9 9 9 9 9 8 8 9 8 9 9 9 8 8 7 6 5 6 5
12 11 11 12 12 11 12 13 13 14 13 13 13 13 13 13 13 12 11 10 11 11 11 10 10 9 9 9 9 10 10 9 9 10 9 9 9 9 9 9 9 8 8 8 7 6 6 5 5
11 11 11 14 12 12 12 13 14 14 14 14 14 14 13 13 12 12 12 11 10 11 10 10 10 10 9 9 9 9 9 9 10 10 10 10 10 9 9 9 9 9 8 8 8 7 7 6 5
11 11 12 13 13 12 13 13 14 14 14 14 14 14 14 14 14 13 12 11 10 10 10 10 10 10 10 9 9 9 9 9 10 10 10 10 10 9 9 9 8 9 8 8 8 7 7 6 6
11 11 12 14 13 13 13 14 14 14 13 14 13 14 15 14 13 12 13 12 11 10 10 10 11 10 10 10 10 10 10 10 10 10 10 10 10 10 9 9 9 9 9 8 8 8 7 7 7
10 11 12 14 13 13 13 14 14 14 15 14 15 15 14 14 13 12 12 13 13 11 11 11 11 11 11 10 10 10 10 10 10 10 10 10 10 10 9 9 9 9 9 9 9 9 8 8 8
10 10 11 13 13 13 13 14 14 14 14 13 14 14 14 14 15 14 14 14 14 13 12 11 11 12 11 11 10 10 10 10 10 11 10 10 10 10 10 9 9 9 9 9 9 9 9 8 8
9 11 11 12 12 12 14 12 13 13 14 13 14 14 14 14 13 14 14 14 15 14 12 12 12 12 11 11 11 11 10 11 11 11 10 10 10 10 10 10 9 9 9 9 10 10 10 9 8
10 10 11 12 12 11 12 13 14 13 13 14 14 14 14 15 15 14 15 14 15 14 13 12 11 11 11 11 11 11 11 11 11 10 10 10 10 10 10 10 10 10 9 9 9 10 10 10 9
10 10 11 11 11 10 12 12 13 13 13 15 15 15 15 15 16 15 15 14 14 13 13 13 12 11 11 11 11 11 11 11 11 10 10 10 11 11 11 11 10 10 10 10 10 10 10 10 10
9 10 9 8 8 10 13 12 12 14 14 15 15 16 16 16 16 15 15 14 14 14 13 13 12 12 11 11 11 11 11 11 11 11 11 11 11 11 11 11 11 10 10 10 10 10 10 10 10
9 10 10 6 8 11 12 11 13 14 15 16 16 16 16 15 15 16 16 15 15 15 14 13 13 13 12 12 12 11 11 11 11 11 11 11 11 11 11 11 11 11 10 10 10 10 10 10 11
10 9 10 12 11 11 13 13 13 14 16 17 16 16 15 16 15 16 16 16 16 15 15 14 14 13 13 13 12 12 12 12 12 11 11 12 11 11 11 11 11 11 11 11 11 11 11 10 11
10 10 10 10 8 8 10 14 14 15 15 16 17 17 16 16 16 15 16 16 16 16 15 14 14 13 13 13 13 12 12 12 12 12 12 12 12 11 11 12 11 11 11 11 11 11 11 11 11
10 10 11 11 11 10 8 13 15 15 15 16 16 17 17 17 16 16 17 16 16 16 15 15 14 13 12 13 13 13 13 12 12 12 12 12 12 11 11 12 12 12 12 11 11 11 11 11 11
10 10 11 11 10 12 12 12 15 16 16 16 17 17 17 18 18 17 17 17 16 16 16 15 14 13 13 13 13 13 13 13 13 13 12 12 12 12 12 12 12 12 12 12 12 11 12 11 11

GFSSGP_700_temp_042.txt.gz
Temp
10 10 10 9 9 9 9 10 10 11 11 10 10 10 10 10 10 10 10 9 8 9 9 9 9 9 9 9 9 9 9 9 9 9 9 8 8 9 8 8 8 8 8 8 8 9 8 9 8
10 10 10 9 9 9 10 11 10 10 11 10 10 9 9 10 10 11 10 9 8 9 9 9 9 9 9 9 9 9 9 9 9 9 9 8 8 8 8 8 8 8 8 8 8 8 8 8 8
10 10 9 10 10 10 10 10 10 10 10 10 10 10 10 10 10 11 10 9 9 9 9 9 8 9 8 8 8 8 9 9 9 8 8 8 9 8 8 8 8 8 8 9 8 8 8 8 8
10 9 9 10 10 10 10 11 11 10 11 11 11 10 10 10 11 10 10 9 9 9 9 9 9 9 8 8 8 8 8 8 9 8 8 9 9 8 8 8 8 8 9 8 8 8 8 8 8
10 9 10 10 9 10 11 11 11 11 11 11 11 11 11 11 11 10 10 9 9 9 9 9 8 9 8 8 8 8 9 8 8 9 9 8 8 8 8 8 8 9 8 8 8 8 8 8 8
10 10 10 10 10 11 11 12 11 11 11 11 11 11 11 11 11 10 9 9 8 9 9 9 9 9 8 8 8 8 8 8 9 9 8 8 8 8 8 8 8 8 9 8 8 8 8 8 7
11 10 10 10 10 11 11 12 11 11 11 11 12 12 12 11 10 10 10 9 8 8 9 9 9 8 8 8 8 8 8 8 8 8 8 8 8 8 8 8 8 8 9 8 8 8 7 8 8
10 10 11 11 11 11 12 12 11 11 11 12 12 11 13 12 10 10 9 9 9 8 8 9 9 8 8 8 8 8 8 8 8 8 8 8 8 8 8 8 8 8 7 8 8 8 7 8 7
10 10 11 12 11 11 12 12 12 12 12 12 12 12 12 12 11 10 10 9 9 9 9 9 9 9 8 8 8 8 8 8 8 8 8 8 8 8 8 8 8 8 7 7 7 7 7 7 7
11 12 12 12 11 12 13 12 12 12 12 12 12 12 11 12 12 11 10 10 9 9 9 9 9 9 8 8 8 8 8 8 8 8 8 8 8 8 8 7 8 8 7 7 7 7 7 7 7
12 11 11 11 11 12 13 12 12 12 12 12 12 12 12 12 12 11 11 10 10 9 9 9 9 8 8 8 8 8 9 9 8 8 8 8 8 7 8 7 7 8 8 8 7 7 7 6 6
13 12 11 11 11 12 12 12 12 12 11 11 11 11 12 12 12 12 11 10 10 10 10 9 9 8 8 8 8 8 9 8 8 8 8 8 8 7 8 7 8 8 8 8 7 7 6 6 6
13 12 11 11 11 11 12 12 12 12 12 12 12 12 11 11 11 12 11 10 10 10 10 9 9 9 9 8 8 8 9 9 8 8 8 8 8 8 7 7 7 7 7 8 7 6 6 5 5
13 12 11 11 11 11 11 12 12 13 13 12 12 13 12 12 12 12 11 11 10 10 10 9 9 9 9 8 8 8 9 8 9 9 8 8 8 8 8 8 8 8 8 7 7 6 6 5 5
12 13 12 11 12 12 11 12 13 13 13 13 12 13 12 12 11 12 12 11 11 11 10 10 9 9 9 8 8 9 8 8 9 9 9 8 8 8 8 8 8 8 8 7 7 6 6 5 4
12 11 11 12 12 12 11 12 13 13 13 13 13 13 13 12 11 11 11 11 11 11 10 9 9 9 9 9 9 9 9 8 9 9 9 8 8 8 9 8 8 8 7 7 6 6 5 4 5
10 11 12 13 12 12 11 13 13 13 14 13 13 13 13 12 12 11 11 11 11 11 10 10 10 10 9 9 9 9 9 9 9 9 9 9 9 9 8 8 8 8 7 7 6 7 5 5 4
9 11 12 13 13 12 12 13 13 13 14 14 13 14 13 13 12 12 11 11 10 10 10 10 10 10 10 9 9 9 9 9 9 9 10 10 10 9 9 8 8 8 7 7 7 7 6 6 5
9 10 12 13 13 12 13 12 13 13 14 14 13 13 14 14 12 12 11 10 10 10 10 10 10 10 10 10 9 10 9 9 9 9 10 10 10 10 9 8 8 7 8 7 7 7 7 6 6
9 9 10 12 12 12 12 13 13 13 14 14 14 14 14 14 13 12 12 11 11 11 10 10 10 10 10 10 10 10 9 9 9 9 9 10 10 10 10 9 9 8 8 8 8 8 7 7 7
8 9 11 11 11 12 12 12 13 13 13 13 13 13 14 14 13 13 12 12 11 11 11 11 10 10 11 10 10 10 9 9 10 10 10 10 10 10 10 9 9 9 8 8 9 8 8 7 7
8 10 10 11 10 11 12 12 13 13 14 14 13 13 14 14 13 13 13 13 13 12 12 12 12 11 11 10 10 10 10 10 10 10 10 10 10 10 10 10 9 9 9 9 9 9 9 8 7
10 9 10 10 9 10 11 11 13 14 14 15 15 14 13 14 13 13 14 14 13 12 12 12 12 11 11 11 11 10 10 10 10 10 10 10 10 10 10 10 9 9 9 9 9 9 9 9 9
9 9 9 9 9 8 10 11 12 14 15 15 15 14 14 14 14 13 14 13 13 12 12 12 12 12 11 11 11 11 10 10 10 10 10 10 10 10 10 10 10 10 10 9 10 10 10 10 10
7 7 7 6 7 8 11 10 11 14 15 15 15 16 15 14 14 14 13 14 14 13 12 12 12 11 11 11 11 11 11 10 10 10 10 10 10 11 10 10 10 10 10 10 10 10 10 10 10
7 8 8 4 5 9 11 10 11 13 14 15 16 16 15 15 14 14 14 14 14 13 13 12 12 12 12 12 12 12 11 11 11 10 10 10 11 10 10 10 10 10 10 10 10 10 11 11 11
7 7 8 9 9 8 11 11 12 13 14 15 16 15 15 15 15 15 14 14 14 14 13 14 13 12 12 12 12 12 12 11 11 11 10 11 11 10 10 10 11 10 10 11 11 11 11 11 11
7 8 8 9 7 6 9 11 12 13 13 15 15 16 16 16 16 15 15 15 15 14 14 13 13 13 13 12 12 12 12 12 11 11 11 11 11 11 10 11 11 11 11 11 11 11 11 11 11
7 8 8 9 9 8 6 10 13 13 14 15 16 16 16 16 17 17 16 15 15 14 14 14 13 13 13 12 12 12 12 12 12 12 11 11 11 11 11 11 11 11 11 11 11 11 11 11 11
7 8 9 9 8 9 9 11 13 14 14 15 16 16 17 17 17 17 17 16 16 15 15 14 14 13 13 13 12 12 12 12 12 12 12 11 11 11 11 11 11 11 11 11 11 11 11 11 11

GFSSGP_700_temp_045.txt.gz
Temp
10 10 10 10 9 9 9 11 10 10 9 10 10 10 10 10 10 10 9 9 9 9 9 9 9 9 9 9 9 9 9 9 9 9 9 9 9 9 9 9 9 9 9 8 9 9 9 9 9
10 10 10 9 9 9 10 10 10 10 10 10 10 10 10 10 10 10 10 9 9 9 9 9 9 9 9 9 9 9 9 9 9 9 9 9 9 9 9 9 8 8 9 9 9 9 8 8 8
10 10 9 9 9 10 10 10 10 10 10 10 10 10 9 10 10 10 10 9 9 9 9 9 9 9 9 9 9 9 9 9 9 9 9 9 9 9 8 8 8 8 8 8 8 8 8 8 8
10 10 9 10 10 10 10 10 10 10 11 11 11 10 10 10 11 10 10 9 9 9 9 9 9 9 9 9 9 9 9 9 9 9 9 9 9 9 8 8 8 8 8 8 8 8 8 8 8
10 10 9 10 10 10 11 10 11 11 11 11 11 11 11 11 11 10 10 9 9 9 10 9 8 9 9 8 9 8 9 9 9 9 9 9 8 8 8 8 8 8 8 8 8 8 8 7 8
10 9 10 10 11 11 11 11 11 11 11 12 11 11 11 11 11 10 9 9 9 9 9 9 8 8 8 8 8 8 8 8 8 8 8 9 9 8 8 9 9 8 8 8 8 8 8 7 7
10 9 10 10 11 11 11 11 11 11 11 11 11 11 11 10 10 10 9 9 9 9 9 9 9 8 8 8 8 8 8 8 8 8 8 9 8 8 9 9 9 9 8 8 8 8 8 8 7
10 10 11 11 11 11 12 12 11 11 11 11 11 12 12 11 10 10 9 9 9 9 9 9 9 9 8 8 8 8 8 8 8 8 9 9 8 9 8 8 8 8 8 8 8 7 8 8 7
11 11 11 11 11 12 12 12 12 12 11 11 12 13 12 12 10 10 9 9 9 9 9 9 8 9 8 8 8 8 8 8 8 8 8 9 8 8 8 8 8 7 7 7 8 7 7 7 7
12 12 11 11 11 12 12 12 12 12 12 12 12 12 12 12 11 10 10 10 9 9 9 9 8 9 8 8 8 8 8 8 8 8 8 8 8 8 8 8 8 7 7 7 7 7 6 7 7
13 12 11 11 11 11 11 12 12 12 12 12 12 12 11 12 12 11 10 10 9 9 9 9 9 8 8 8 8 8 8 8 8 8 8 9 8 8 7 7 8 8 7 7 7 7 6 6 6
12 11 11 11 11 12 11 11 11 11 11 11 11 11 11 12 12 12 10 10 10 9 9 9 9 8 8 8 8 8 8 8 8 8 9 9 8 7 7 8 7 8 7 7 6 6 6 6 6
12 11 11 11 11 11 11 12 11 12 11 11 11 11 11 11 11 11 10 10 10 10 9 9 9 8 8 8 8 9 8 8 8 8 8 8 8 7 7 8 7 8 7 7 6 6 5 6 6
12 12 11 11 11 11 12 12 12 12 12 12 12 11 11 10 11 11 11 10 10 10 10 9 9 9 9 9 8 9 9 9 9 8 8 8 8 7 7 7 8 8 7 7 6 6 5 5 6
11 12 12 12 11 12 12 13 13 13 12 12 12 12 12 10 10 11 11 11 10 10 10 10 9 9 9 9 9 9 9 9 9 8 8 8 8 8 8 8 7 8 7 7 6 6 6 5 6
10 10 10 12 12 12 11 12 13 13 12 12 12 13 12 11 11 11 11 10 10 10 10 9 9 9 9 9 9 9 9 9 9 8 8 9 8 8 8 8 8 8 7 7 6 5 5 5 5
9 11 11 12 12 12 12 12 13 13 13 13 13 13 13 12 10 11 11 11 10 10 10 10 9 9 9 9 9 9 9 9 9 8 8 9 9 8 8 8 8 8 7 7 6 6 5 5 5
10 10 12 13 12 12 13 13 13 14 13 13 13 13 13 12 12 11 11 11 10 10 10 10 9 9 9 9 9 9 9 9 9 9 8 9 9 9 9 8 8 8 7 7 6 6 6 5 5
8 9 11 12 13 12 13 13 14 13 13 13 14 13 13 13 12 11 11 11 10 10 10 10 10 9 9 9 9 9 9 9 9 8 9 9 9 9 9 8 8 8 7 7 7 7 6 6 5
8 8 9 11 11 11 12 13 13 14 14 13 13 14 13 13 12 11 11 11 10 10 10 10 10 10 10 10 10 9 9 9 9 8 8 9 9 9 9 9 9 8 8 8 7 8 7 7 7
8 8 8 10 11 11 12 12 13 14 13 13 13 13 13 13 13 12 12 11 11 10 10 10 10 10 10 10 10 10 9 9 9 9 9 9 9 9 9 9 9 9 9 8 8 8 8 7 7
7 9 9 8 9 12 11 14 13 13 14 14 14 14 13 13 13 13 12 12 12 11 10 10 10 10 10 10 10 10 10 10 10 9 9 9 9 9 9 9 9 9 9 9 9 9 8 8 7
7 7 9 9 8 8 10 11 14 13 13 14 14 15 14 14 13 14 14 13 12 11 11 11 10 10 10 10 10 10 10 10 10 9 9 9 9 9 9 9 9 9 10 9 9 9 9 9 8
7 7 8 8 8 10 10 10 13 13 13 14 15 15 15 15 14 13 13 13 12 12 11 11 11 10 10 10 10 11 10 10 10 10 10 10 10 10 10 10 10 10 10 10 10 10 10 9 9
6 7 9 9 9 10 11 10 11 13 13 15 15 15 15 15 14 14 13 13 13 12 12 12 11 11 11 11 11 11 10 11 11 10 10 10 10 10 10 10 10 10 10 10 10 10 10 10 10
7 7 9 9 11 12 11 11 11 12 13 14 14 15 15 15 15 14 14 14 14 13 13 13 13 12 12 11 11 11 10 11 11 11 11 10 10 10 10 10 10 10 10 11 11 11 11 10 10
7 6 8 9 8 10 12 11 11 12 12 13 14 14 15 15 15 15 14 14 14 13 13 13 13 12 12 12 12 11 11 11 11 11 11 11 10 10 10 10 10 10 11 11 11 11 11 11 10
7 7 7 8 9 10 12 12 12 12 12 13 14 14 15 15 15 15 15 14 14 14 13 12 12 12 12 11 11 11 11 11 11 11 11 11 11 10 10 10 10 11 11 11 11 11 11 11 11
6 5 7 8 8 11 11 13 12 12 13 14 14 15 15 16 16 16 16 16 15 14 13 13 12 12 12 11 11 11 11 12 11 11 11 11 11 11 10 11 11 11 11 11 12 11 11 11 11
2 4 6 8 9 9 10 12 12 12 14 14 14 14 15 16 16 16 16 16 16 15 14 14 13 12 12 12 12 11 12 11 12 12 12 11 11 11 11 11 11 11 11 12 12 12 12 12 11

GFSSGP_700_temp_048.txt.gz
Temp
10 10 10 10 9 9 11 12 10 10 10 11 10 9 10 10 10 10 9 8 9 9 9 9 9 9 9 9 9 9 9 8 9 9 9 9 9 8 8 8 8 9 8 8 8 9 9 9 9
10 10 10 10 9 10 12 10 10 10 10 11 10 11 10 10 10 10 10 8 8 9 9 9 9 9 9 9 9 9 9 9 9 9 9 9 9 9 9 9 9 9 8 9 8 8 8 8 8
10 10 10 10 10 10 11 10 10 10 9 10 11 10 10 10 10 9 10 9 9 9 9 9 9 9 9 9 9 9 9 9 9 9 9 9 9 9 9 9 9 9 8 8 8 8 8 8 8
10 10 10 10 10 10 10 10 11 11 10 10 11 10 10 10 10 10 10 9 9 9 9 9 9 9 9 9 9 9 9 9 9 9 9 9 9 9 9 9 9 9 8 8 8 8 8 8 8
9 9 10 10 10 10 10 10 10 10 11 11 11 12 11 11 10 10 10 9 9 9 9 9 9 9 9 9 9 9 9 9 9 9 9 9 9 9 9 9 8 9 8 8 8 8 8 8 8
10 10 10 11 11 10 10 10 11 11 11 11 11 11 11 11 10 10 9 9 9 9 9 9 9 9 9 9 9 9 9 9 9 9 9 9 9 9 9 9 8 8 8 8 8 8 8 8 8
10 9 11 12 11 11 10 12 11 11 11 11 11 10 11 11 10 10 9 9 9 9 9 9 9 9 9 8 9 8 8 9 9 9 9 9 9 9 9 9 9 9 8 8 8 8 8 8 8
10 9 11 11 11 11 11 11 12 11 11 11 11 10 11 11 10 9 9 9 9 9 9 9 9 8 9 8 8 8 8 8 8 8 8 8 8 8 8 8 8 8 8 8 7 8 8 8 8
11 10 12 12 12 11 11 12 12 12 12 11 11 11 12 11 10 10 9 9 9 9 9 9 9 8 8 9 8 8 8 8 8 8 8 9 8 8 8 8 8 8 8 7 7 7 8 7 8
10 11 12 12 12 12 11 12 12 12 12 12 12 13 13 11 11 10 10 10 9 9 7 9 9 8 8 8 9 8 8 8 8 8 8 8 8 8 7 8 8 7 7 7 7 7 7 7 7
9 11 11 11 11 11 10 10 10 10 10 11 12 13 13 12 11 10 10 10 10 9 8 9 9 9 8 8 8 8 8 8 9 9 9 8 8 8 8 7 8 7 7 5 7 6 6 7 7
9 10 10 10 10 10 10 10 10 11 11 11 12 11 12 12 11 11 10 10 9 9 9 9 9 9 8 8 8 9 9 9 9 9 9 8 8 8 8 7 8 7 7 7 6 6 6 7 7
9 10 10 10 10 10 11 10 11 11 12 12 12 11 11 11 11 10 10 10 9 10 10 9 9 9 8 9 9 9 8 8 9 9 9 8 8 8 8 8 8 7 7 7 6 6 6 6 7
11 10 10 11 11 11 10 11 11 11 12 12 11 11 11 11 11 11 10 10 9 10 10 9 9 9 9 9 9 9 8 9 9 8 8 9 8 8 8 8 8 8 7 7 7 6 5 5 6
10 10 11 11 11 11 11 12 12 12 12 12 12 11 11 10 10 11 10 10 10 10 10 9 9 9 9 9 9 8 8 8 9 9 9 9 8 8 8 7 8 8 7 7 7 6 6 5 4
10 11 12 13 12 12 12 14 12 13 13 12 12 12 11 10 10 10 10 9 9 10 10 9 9 9 9 9 9 9 8 9 9 8 9 9 9 9 8 8 8 8 7 7 5 5 5 5 4
11 13 13 14 12 13 12 15 12 13 13 13 12 12 12 11 10 10 10 9 10 10 10 9 9 9 9 9 9 8 8 9 9 9 8 9 9 8 9 8 8 8 7 7 5 4 5 4 5
14 13 14 14 13 13 13 14 12 13 13 13 13 12 12 12 11 10 10 9 10 10 10 9 9 9 9 9 9 9 9 9 9 8 8 9 9 9 8 8 8 8 8 7 7 6 6 5 5
12 13 14 14 14 13 14 14 14 14 13 14 13 13 13 13 12 11 10 10 10 10 10 9 9 9 9 9 10 9 9 9 9 9 9 9 9 9 9 9 8 8 8 7 7 7 7 5 6
10 11 12 13 13 13 14 14 15 13 14 14 13 13 13 13 12 11 11 10 11 11 10 10 10 9 9 9 10 9 9 9 9 9 9 9 9 9 9 9 8 8 8 8 8 8 7 6 7
9 11 12 12 11 12 13 15 15 14 12 12 14 13 12 13 13 12 11 11 11 11 11 11 10 10 9 9 10 10 9 9 9 9 9 9 9 9 9 9 9 8 8 8 8 8 8 6 7
10 10 10 11 11 13 13 16 15 15 13 12 14 14 14 13 13 13 12 12 11 11 11 11 10 10 10 10 10 10 10 9 9 9 9 9 9 9 9 9 9 9 9 9 9 9 8 8 7
10 10 10 10 11 12 13 14 16 16 15 13 12 14 14 14 14 13 13 13 12 11 11 11 11 10 10 10 10 10 10 10 9 9 10 10 10 9 9 9 9 9 9 9 9 9 9 8 8
8 9 9 10 11 13 13 14 16 16 16 15 13 13 15 15 14 14 13 12 12 11 11 11 11 11 11 10 10 10 10 10 10 10 10 10 10 10 10 10 10 10 9 10 9 9 9 9 9
8 9 11 12 13 14 14 13 14 16 16 15 15 14 15 15 15 14 14 13 13 12 12 12 11 11 11 11 11 11 10 10 10 10 10 10 10 10 10 10 10 10 10 10 10 9 9 9 9
8 9 12 13 15 16 14 15 14 14 14 15 14 15 13 13 15 15 15 14 13 13 13 12 12 12 11 12 11 11 11 10 10 10 10 10 10 10 11 11 11 10 11 10 10 10 10 10 10
9 9 10 12 14 16 16 14 14 14 14 14 14 14 14 13 15 15 15 15 14 14 14 13 13 12 12 12 12 12 11 10 11 11 11 11 11 11 11 11 11 11 11 11 11 11 11 11 11
7 10 10 10 12 13 15 15 15 14 14 14 14 14 14 13 15 15 15 15 14 14 14 13 13 13 13 12 12 12 12 11 11 10 11 11 11 11 11 11 11 11 11 11 11 11 11 11 11
7 7 8 10 11 14 15 15 15 15 14 13 14 14 14 14 15 15 15 15 15 14 14 13 14 13 13 13 13 12 12 12 11 10 11 11 11 11 12 12 12 12 12 12 11 11 11 11 11
4 5 8 9 11 11 13 15 15 14 14 14 14 14 15 14 14 15 15 15 15 15 14 14 13 14 13 13 13 13 12 12 11 11 11 11 11 11 11 12 12 12 12 12 12 12 11 12 12

GFSSGP_700_temp_051.txt.gz
Temp
11 11 11 9 10 10 13 13 12 12 12 12 12 12 10 10 11 10 10 10 9 9 9 9 9 9 8 9 9 9 9 9 9 9 9 9 9 9 8 9 8 8 8 9 9 9 9 8 9
10 10 10 10 10 11 13 12 12 11 11 11 12 11 11 11 11 10 10 10 9 9 9 9 9 9 9 9 9 9 9 9 9 9 9 9 9 9 8 8 8 8 9 9 9 8 8 8 8
11 10 10 10 10 12 12 11 12 12 11 11 11 11 10 10 9 8 9 9 8 8 9 9 10 9 9 9 9 9 9 9 9 9 9 9 9 8 8 9 9 9 9 9 8 8 8 8 9
10 10 10 10 11 12 12 11 11 11 10 11 11 11 10 9 9 10 9 9 7 6 9 9 9 9 9 9 9 9 9 9 9 9 9 9 9 9 9 9 9 8 8 8 8 8 8 8 8
10 10 10 11 11 11 11 10 10 10 10 10 10 11 10 9 9 9 9 7 7 7 9 9 9 9 9 9 9 9 9 9 9 9 9 9 9 9 9 9 8 8 8 8 8 8 8 8 8
10 10 10 13 12 11 12 11 11 11 10 11 10 12 11 10 9 8 7 7 7 7 9 9 9 9 9 9 9 9 9 9 9 9 9 9 9 9 9 9 9 8 8 8 8 8 8 8 8
10 10 12 13 12 12 11 11 11 10 11 10 11 11 11 10 9 8 7 7 8 7 9 9 9 9 9 9 9 9 9 9 9 9 9 9 9 8 9 9 9 9 8 8 8 8 8 8 8
10 10 12 14 13 12 11 11 11 11 11 11 11 11 11 11 10 8 7 7 8 7 9 9 9 9 9 9 9 9 9 9 8 8 8 8 8 8 8 8 9 8 8 8 8 8 8 8 8
9 11 12 14 13 13 11 12 12 12 11 11 11 10 11 11 10 8 7 7 7 7 6 6 7 9 9 9 9 9 8 8 9 9 8 8 8 8 8 8 8 8 8 8 8 9 8 8 8
9 13 13 13 14 12 12 11 12 12 11 10 10 9 12 11 10 8 8 7 7 7 7 7 6 9 9 9 9 8 8 8 9 8 8 7 7 8 8 8 8 8 8 8 8 8 8 8 7
12 12 13 13 14 13 12 12 13 11 11 11 11 13 12 12 10 8 8 8 7 7 7 7 6 9 8 8 9 8 8 6 9 9 8 8 8 8 7 8 8 7 7 7 8 7 7 8 7
12 13 13 11 13 12 11 11 12 12 12 12 12 13 13 11 10 8 8 8 8 7 7 7 6 9 9 8 8 7 8 6 8 9 8 8 7 7 8 8 7 8 8 7 7 7 8 6 9
12 13 13 12 12 12 12 11 11 12 12 12 12 12 12 9 8 8 8 8 8 7 7 6 9 9 8 8 7 6 6 6 6 9 9 8 7 8 8 8 8 8 7 7 7 8 6 8 6
13 13 12 12 12 11 12 12 12 12 12 12 13 12 11 8 8 8 8 8 7 7 7 7 10 9 8 8 7 7 7 7 6 8 8 8 8 8 8 8 8 7 8 8 7 7 6 6 5
12 13 13 12 13 11 13 12 12 12 12 11 12 12 9 8 8 8 8 8 7 7 6 9 10 9 9 9 9 7 8 7 7 7 8 8 8 8 8 8 8 9 7 8 8 7 7 5 5
12 13 14 14 13 12 13 14 14 13 12 11 10 11 9 8 9 8 8 8 7 7 6 9 9 9 9 9 9 7 7 7 8 9 9 9 8 8 8 8 8 7 7 8 6 7 6 6 6
13 14 14 16 14 14 14 14 13 13 12 11 10 9 9 9 9 8 8 7 7 10 10 10 9 9 9 9 9 9 8 8 7 8 9 9 9 9 9 9 8 7 8 7 6 6 6 6 6
15 15 17 16 16 15 15 14 11 13 13 12 11 10 9 9 9 8 8 8 7 10 10 9 9 9 9 9 9 9 9 8 7 8 8 9 9 9 8 8 8 9 8 7 7 6 7 7 7
15 17 16 17 17 15 15 15 10 14 14 12 11 11 10 9 9 8 8 8 7 10 10 10 10 10 10 9 9 9 9 7 8 7 8 9 9 9 9 9 8 9 8 9 9 8 7 6 6
14 15 16 17 16 15 15 15 15 14 14 13 12 11 10 10 9 8 8 8 8 10 11 10 10 10 10 10 9 9 7 6 6 6 9 9 9 9 9 9 9 8 9 8 8 7 6 6 6
13 14 15 16 16 15 15 14 16 13 15 13 13 12 11 10 10 10 10 8 10 10 11 11 11 10 10 10 9 9 9 7 8 7 9 9 9 9 9 9 9 9 8 8 9 8 6 6 6
13 13 14 15 15 15 15 16 15 15 14 14 13 13 12 11 10 10 10 10 11 10 11 11 11 11 10 10 10 10 10 9 9 7 7 10 9 10 10 9 9 9 9 8 9 9 7 7 6
12 13 13 13 14 15 15 16 17 16 14 15 14 13 12 13 13 13 13 12 12 11 11 11 11 11 11 10 10 10 9 9 9 7 7 8 10 10 10 9 9 9 9 9 9 9 9 7 7
11 12 12 13 14 15 15 16 18 16 17 14 16 15 13 12 12 13 13 12 12 11 11 12 12 12 11 11 10 10 10 10 9 9 8 9 9 10 10 10 10 10 10 10 9 9 9 9 8
10 11 13 14 15 16 16 16 17 18 17 16 17 16 14 13 12 13 13 13 13 13 12 12 12 12 12 12 11 11 10 10 10 10 10 10 7 7 10 10 10 10 10 10 10 10 10 10 9
11 11 14 14 17 18 16 17 16 17 18 17 13 16 15 14 13 12 14 14 14 14 13 13 12 12 12 12 12 12 11 10 10 10 10 10 7 7 9 10 11 11 11 11 11 10 10 10 10
11 11 12 14 16 18 18 17 17 17 17 17 15 16 13 15 14 12 12 14 14 14 14 14 13 13 12 12 12 12 12 11 10 10 10 11 10 8 10 11 11 11 11 11 11 11 11 11 10
8 11 12 12 14 16 18 19 18 17 17 16 16 16 15 13 14 14 12 12 14 15 14 14 13 13 12 12 12 12 12 11 11 11 11 11 11 11 9 11 11 11 11 12 11 12 11 11 11
9 9 10 12 13 16 17 18 18 17 16 16 16 16 16 16 15 14 13 12 14 14 14 14 14 14 13 13 13 12 12 12 11 11 11 11 11 11 11 11 11 11 11 12 12 12 12 12 11
9 10 10 11 12 14 15 17 17 17 17 16 16 16 16 16 16 14 14 12 11 14 14 14 14 14 14 14 14 13 13 12 12 12 12 11 11 11 11 11 12 11 11 12 12 12 12 12 12

GFSSGP_700_temp_054.txt.gz
Temp
11 10 10 9 9 10 11 12 13 13 13 12 12 12 12 11 12 11 11 11 10 10 9 9 9 9 9 9 9 9 9 9 9 9 9 9 9 9 9 9 9 9 9 9 9 9 9 9 9
11 11 11 9 10 11 12 13 13 12 12 12 11 11 10 10 12 12 11 10 10 9 9 9 9 9 9 9 9 9 9 9 9 9 9 9 9 9 9 8 8 9 9 9 9 9 9 9 9
11 10 10 10 10 12 12 12 12 12 12 12 11 11 11 10 11 11 10 10 9 9 10 9 9 9 9 9 9 9 9 9 9 9 9 9 9 9 9 9 9 9 9 8 8 8 8 9 9
11 10 10 10 11 12 13 11 12 12 12 11 11 11 10 9 10 11 10 10 10 10 10 9 9 9 9 9 9 9 9 9 9 9 9 9 9 9 9 9 9 9 8 8 8 8 8 9 8
9 10 10 11 11 11 11 12 12 12 11 10 11 10 10 9 9 9 9 9 7 10 10 10 10 9 9 9 9 9 9 9 9 9 9 9 9 9 9 9 9 8 8 8 8 8 8 9 8
10 10 10 11 11 12 11 11 11 12 11 11 11 11 10 9 9 9 8 8 8 9 10 9 10 9 9 9 9 9 9 9 9 9 9 9 9 9 9 9 9 8 8 8 8 8 8 8 8
10 10 11 10 12 12 12 11 12 12 12 11 11 11 10 10 8 8 8 8 8 9 9 10 10 10 9 9 9 9 9 9 9 9 9 9 9 9 9 9 9 9 9 8 8 8 8 8 8
10 10 11 11 13 13 11 11 11 13 12 11 11 11 11 10 8 8 8 8 8 10 9 10 9 9 9 9 9 9 9 9 9 9 9 9 9 9 9 9 9 9 8 8 8 8 8 8 7
10 10 11 12 12 12 11 12 11 11 11 11 11 11 11 11 9 8 8 8 8 9 9 10 9 9 9 9 9 9 9 9 9 9 9 9 9 9 9 8 9 8 8 8 8 8 8 7 7
11 11 12 13 11 13 12 11 10 12 11 11 10 10 11 11 9 7 8 8 8 8 7 9 10 9 9 9 9 9 9 9 9 9 10 8 8 8 8 8 8 8 9 8 8 8 7 7 8
11 12 13 12 12 13 12 12 11 11 11 11 11 12 12 11 9 7 8 8 8 7 7 7 10 9 10 9 9 9 9 9 9 9 9 9 8 7 8 8 9 8 7 8 7 7 8 7 7
13 14 14 14 13 14 13 12 11 11 10 11 12 13 12 11 9 8 8 8 8 8 7 8 8 8 8 8 8 9 8 10 9 8 7 8 8 8 7 7 8 7 7 6 7 9 8 6 7
13 14 14 14 13 13 13 12 12 11 12 12 12 13 12 11 10 8 8 8 8 8 8 8 7 9 9 7 8 7 8 7 9 8 9 9 9 8 8 8 8 8 8 7 7 7 8 8 7
14 14 15 14 14 12 13 12 12 12 13 13 12 13 12 10 9 9 8 8 8 8 7 8 8 8 8 7 8 8 7 7 9 8 9 8 9 8 8 9 8 8 7 7 7 7 7 7 7
14 14 15 14 13 13 13 13 13 12 11 13 12 12 10 8 9 9 9 8 8 8 8 10 9 9 9 9 9 9 9 8 9 9 9 9 9 9 9 8 8 8 8 8 8 7 6 6 6
13 14 14 15 14 13 13 13 12 12 10 11 11 9 9 9 9 9 9 8 8 8 8 10 10 10 10 10 10 9 7 8 8 9 9 9 9 9 8 8 9 8 7 8 7 6 6 7 6
14 14 15 16 15 15 14 14 12 12 11 12 10 9 9 9 9 9 9 8 8 8 8 10 9 10 10 10 10 8 8 9 9 10 9 9 9 8 8 9 8 7 7 8 8 6 6 6 6
15 15 16 16 17 16 15 14 13 12 11 12 11 10 9 9 9 9 9 8 8 8 9 10 10 10 10 10 10 9 9 8 9 9 9 9 9 9 8 8 8 8 8 7 7 6 6 6 7
15 16 17 17 18 17 16 14 13 13 13 12 12 10 10 9 9 9 9 8 8 9 10 11 10 10 10 10 10 10 9 9 9 9 8 9 9 9 9 9 9 9 10 8 8 7 6 7 6
14 15 17 18 18 18 17 15 15 14 13 12 13 11 10 10 9 9 9 8 8 11 11 11 10 10 10 10 10 10 9 9 9 9 9 9 9 10 9 9 9 9 9 8 8 7 6 6 6
14 15 16 17 18 18 18 11 14 13 13 11 13 12 11 10 10 9 9 8 8 10 12 11 11 11 10 10 10 10 8 8 9 10 9 10 10 10 10 10 9 9 9 9 8 8 7 7 7
14 15 15 16 17 18 17 17 14 14 12 10 10 12 12 11 10 10 10 9 10 11 12 12 11 11 10 10 10 10 10 10 10 9 9 10 10 11 10 10 10 10 10 10 9 8 7 6 7
14 14 15 15 15 16 17 17 17 14 13 12 11 13 12 11 11 12 13 12 11 12 13 12 12 11 10 10 10 10 10 10 10 9 8 11 11 11 11 10 10 10 10 10 10 10 9 9 7
13 13 14 15 15 16 16 17 17 17 16 14 12 12 13 12 11 13 14 13 12 12 13 12 12 12 11 11 11 11 10 10 10 9 8 10 11 11 11 10 10 10 10 10 10 10 10 10 9
13 13 14 14 15 16 16 16 17 18 18 16 14 11 13 13 12 13 13 13 13 13 13 13 13 12 12 11 11 11 10 10 10 10 9 10 11 11 11 11 11 10 10 10 10 10 10 10 10
13 13 14 14 16 16 16 17 17 17 17 17 16 15 13 13 12 12 14 15 15 14 14 14 14 13 12 12 12 12 11 11 11 10 10 11 10 10 11 11 11 11 11 11 10 10 11 11 10
12 13 13 14 16 17 18 18 17 18 18 17 15 14 13 13 13 12 13 14 15 14 15 15 14 13 13 12 12 12 12 11 11 11 11 11 10 9 9 11 11 11 11 11 11 11 11 11 11
11 12 13 13 14 14 17 18 19 18 18 17 17 16 16 12 11 12 13 12 14 15 15 14 14 14 13 13 12 12 13 12 11 11 11 11 11 10 10 12 11 12 11 11 11 11 11 11 11
10 10 10 12 13 15 15 17 18 19 19 18 17 17 16 14 12 12 12 13 13 14 14 14 15 15 14 13 13 12 12 12 12 12 12 12 11 11 11 13 12 12 12 12 12 12 12 12 11
9 10 11 11 12 13 14 16 17 18 18 18 18 17 17 16 15 12 12 12 14 14 14 15 15 15 15 14 14 13 13 12 12 12 12 12 12 12 11 12 12 12 12 12 12 12 12 12 12

GFSSGP_700_temp_057.txt.gz
Temp
10 10 10 10 10 10 11 11 12 11 12 12 12 12 11 11 11 12 12 11 10 10 10 9 9 9 9 9 9 9 9 9 9 9 9 9 9 9 9 9 9 9 9 9 9 9 9 9 9
10 10 10 10 10 10 12 11 11 12 12 12 12 12 12 12 11 13 12 11 10 10 10 9 9 9 9 9 9 9 9 9 9 9 9 9 9 9 9 9 9 9 9 9 9 9 9 9 9
10 10 9 9 10 12 11 10 11 11 11 12 12 12 12 12 12 12 12 11 10 10 10 9 9 9 10 9 9 9 9 9 9 9 9 9 9 9 9 9 9 9 9 8 8 9 9 9 8
10 9 9 10 11 11 11 11 12 11 11 11 12 11 12 12 12 12 11 11 10 10 10 10 9 10 9 9 9 9 9 9 9 9 9 9 9 9 9 9 9 8 8 8 8 9 9 8 8
11 10 10 10 11 11 11 11 11 11 11 10 12 11 11 10 11 11 11 11 10 10 10 10 10 10 9 9 9 9 9 9 9 9 9 9 9 9 9 9 8 8 8 8 8 9 8 8 8
10 9 10 11 12 11 11 10 11 11 12 11 11 11 10 10 10 10 11 11 10 10 10 10 10 9 9 9 9 9 9 9 9 9 9 9 9 10 9 9 8 8 8 8 8 8 8 8 8
10 10 11 10 11 11 10 11 10 12 12 12 11 12 9 9 9 10 10 10 9 10 10 10 9 9 9 9 9 9 9 9 9 9 9 9 9 9 9 8 8 8 8 8 8 8 8 7 8
9 9 11 11 12 11 11 11 11 12 12 12 11 11 10 9 8 9 9 9 9 9 9 10 10 9 9 9 9 9 9 9 9 9 9 9 9 9 9 9 9 8 8 8 8 8 8 8 9
9 9 11 11 12 11 11 11 12 12 12 12 12 11 11 10 8 8 8 8 9 8 9 10 10 9 9 9 9 9 9 9 9 9 8 9 9 8 9 9 8 8 9 8 8 8 8 8 9
9 10 12 12 12 11 11 10 13 12 11 11 11 9 10 9 8 8 8 9 8 8 9 9 10 9 9 9 9 9 9 9 10 9 8 8 8 9 8 9 9 8 8 8 8 8 7 8 9
10 11 12 12 13 12 10 10 11 11 12 11 12 11 10 9 8 8 8 9 8 8 9 9 9 9 9 9 9 9 9 9 9 9 9 8 9 8 8 8 8 9 8 8 8 8 7 7 8
10 12 12 13 12 12 12 10 11 11 11 11 10 11 11 9 8 8 8 8 7 8 10 9 9 9 9 9 9 9 9 9 9 8 9 9 7 7 8 7 7 8 8 7 8 8 7 7 7
11 13 13 14 13 13 11 12 12 12 12 11 10 11 10 9 8 8 8 8 7 7 9 9 9 9 10 9 9 8 9 9 8 8 9 9 9 8 8 7 7 8 7 7 8 8 8 7 6
13 13 14 15 14 13 13 12 12 12 12 11 12 11 11 10 9 8 8 8 7 8 8 8 9 8 10 10 9 9 8 10 9 9 8 8 9 8 8 8 8 7 7 7 7 8 7 7 7
13 13 14 15 15 14 12 13 12 11 10 10 11 11 10 10 9 9 8 8 8 8 8 8 9 8 9 10 9 9 9 7 9 8 8 8 8 8 8 8 7 8 8 8 6 7 7 7 6
13 13 14 14 15 14 13 12 12 11 9 10 11 11 10 9 9 9 8 8 8 8 9 8 9 9 9 10 9 9 8 9 9 9 9 9 9 8 8 8 8 8 8 7 6 6 6 6 6
12 13 14 14 15 15 14 13 12 11 10 10 10 11 10 9 9 9 8 8 8 8 9 9 9 9 9 10 9 8 9 10 9 9 8 9 9 8 8 8 8 8 7 7 6 6 5 5 6
11 13 14 15 16 15 15 13 13 12 11 11 10 10 9 9 9 9 8 8 9 8 9 9 10 9 10 10 9 8 9 9 9 9 9 10 9 9 8 9 9 8 7 7 7 6 6 6 6
12 13 14 15 17 16 15 14 14 14 13 12 11 9 10 9 10 9 8 8 8 8 9 10 11 10 10 10 10 10 10 9 9 10 9 10 10 9 9 9 9 9 9 8 6 7 6 7 7
12 13 14 15 17 18 16 15 14 14 14 12 10 10 12 9 9 9 9 8 9 10 10 10 11 10 10 10 10 10 10 9 9 9 10 10 10 10 9 9 9 9 8 9 7 7 6 6 6
12 13 14 15 16 16 16 14 12 13 12 12 10 10 10 11 9 9 9 9 9 10 11 11 12 11 11 10 10 10 10 9 10 9 9 10 10 10 10 10 10 9 9 9 9 7 7 7 6
13 14 14 15 15 15 15 13 13 12 13 14 13 12 10 10 10 9 9 9 9 11 11 11 12 11 11 10 11 11 11 12 11 10 10 10 10 10 10 10 10 9 10 10 9 7 7 7 6
13 13 14 15 15 15 15 15 16 13 14 14 14 12 11 10 11 10 10 9 11 12 12 12 12 11 11 11 11 11 11 11 11 10 9 10 10 10 10 10 10 10 10 10 10 8 7 8 8
13 13 14 14 14 13 15 15 16 15 17 15 14 13 13 12 10 13 10 10 10 11 12 12 12 12 11 11 11 11 11 11 11 11 11 11 11 10 10 10 10 10 10 10 10 10 9 8 8
13 13 12 11 11 11 15 15 15 15 16 16 16 16 14 13 10 12 10 10 10 11 12 12 13 13 11 12 11 11 11 11 11 11 12 11 11 11 10 10 10 10 10 10 10 10 10 9 9
12 13 12 9 9 12 14 15 15 16 16 16 15 15 14 13 12 11 12 12 11 13 13 12 13 13 12 12 12 12 11 11 11 11 12 12 11 11 11 11 10 10 10 10 10 10 10 10 10
12 12 13 13 13 12 15 16 16 16 16 16 15 14 13 12 11 12 10 13 12 13 14 14 13 13 13 13 12 12 11 11 11 11 11 11 12 12 12 12 11 11 11 10 11 11 11 10 10
11 12 11 12 9 9 13 14 15 17 18 16 16 14 15 15 13 13 12 10 12 12 13 13 13 12 13 13 13 13 12 12 12 12 11 12 11 12 12 13 12 12 11 11 11 11 11 11 11
11 11 10 10 11 9 9 12 15 15 16 17 18 16 15 15 14 14 12 11 11 11 11 14 14 13 12 12 13 13 13 12 12 12 12 12 11 12 12 13 12 12 12 11 11 11 11 11 11
9 10 10 10 10 11 11 12 15 14 15 16 16 16 16 15 14 13 12 11 11 11 11 12 14 14 13 12 13 12 13 13 12 12 12 12 12 12 12 13 12 12 12 12 12 12 12 12 11

GFSSGP_700_temp_060.txt.gz
Temp
10 10 10 10 10 10 11 10 12 11 10 12 12 12 12 12 13 12 11 10 10 10 9 9 9 9 9 8 8 8 9 9 9 9 9 9 9 9 9 8 9 9 9 9 9 9 9 9 9
10 10 10 9 10 10 11 10 10 10 11 12 11 11 12 12 12 12 12 10 10 10 9 9 9 9 9 9 9 9 9 9 9 9 9 9 9 9 9 9 9 9 9 9 9 9 9 9 8
10 10 10 9 9 10 11 11 11 10 10 11 12 11 12 12 13 13 12 11 10 9 9 9 9 9 9 9 9 9 9 9 9 9 9 9 9 9 9 9 9 8 8 8 8 8 9 9 9
9 9 10 10 11 10 10 10 11 10 11 11 12 12 12 12 12 13 12 11 10 10 9 9 9 10 10 9 9 9 9 9 9 9 9 9 9 9 9 9 8 8 8 9 9 9 9 8 8
10 9 9 10 10 10 10 11 11 11 10 11 11 12 12 12 12 12 12 11 10 10 9 9 10 10 10 9 9 9 9 9 9 9 9 9 9 9 8 8 8 8 9 9 9 8 8 8 8
10 10 10 11 10 10 11 11 11 12 12 12 11 12 11 10 11 12 11 11 10 10 10 10 10 10 10 9 9 9 9 9 9 9 9 9 9 9 8 8 8 8 8 9 9 9 8 8 8
10 10 10 11 11 10 10 11 10 11 12 11 12 12 11 10 11 11 10 10 10 10 10 10 10 9 9 9 9 9 9 9 9 9 9 9 9 9 9 8 8 8 8 8 9 9 9 8 8
9 10 11 11 11 11 11 10 10 10 11 10 11 12 12 10 11 10 10 10 10 10 10 10 10 9 9 9 9 9 9 9 9 9 9 9 9 9 9 9 9 8 8 8 8 9 9 9 8
9 10 12 11 11 11 11 10 11 10 10 11 10 10 11 11 10 10 10 10 10 10 9 9 9 9 9 9 9 9 9 9 9 9 9 9 9 9 9 8 8 8 8 8 8 8 8 8 8
10 11 12 11 11 11 13 11 11 10 10 11 10 9 9 10 10 10 10 10 10 9 9 9 9 9 9 9 9 9 9 9 8 8 9 9 9 9 9 8 8 8 8 7 7 8 8 9 8
11 13 12 12 10 11 13 12 11 11 10 11 12 12 10 10 10 10 10 9 8 8 9 9 9 9 9 9 9 9 9 9 9 9 9 9 9 9 8 8 8 8 7 7 7 7 7 8 8
11 12 13 12 11 11 13 12 12 11 10 12 11 11 11 10 11 10 9 8 8 8 9 9 8 9 9 9 9 9 10 9 9 8 8 9 9 9 8 7 8 8 7 8 8 7 7 7 8
10 13 12 11 12 11 13 13 12 12 11 11 11 10 10 10 10 9 8 8 8 8 9 9 8 9 9 9 9 9 10 9 9 8 8 9 9 8 8 7 7 7 7 8 7 7 7 7 7
12 11 12 12 12 12 12 12 11 11 11 11 12 10 9 9 10 7 8 8 8 8 8 9 8 9 9 10 10 9 9 10 9 8 8 8 9 8 8 7 7 7 7 7 7 6 7 7 7
11 11 12 13 13 13 13 12 11 11 11 11 11 9 9 8 9 8 8 8 9 9 9 9 8 9 9 10 10 9 9 9 9 9 8 8 8 8 8 8 8 8 8 8 7 7 7 7 7
11 11 12 13 12 13 14 12 11 12 12 12 12 10 9 8 8 8 8 8 8 8 8 8 8 9 8 9 9 10 10 9 9 8 8 9 9 8 9 9 8 8 8 8 7 7 7 6 6
11 11 13 14 14 13 12 13 13 12 12 12 12 11 9 8 8 8 8 8 8 8 8 8 8 9 8 8 9 10 10 9 9 9 9 9 9 8 9 8 8 8 7 7 7 6 6 6 6
10 11 12 13 14 14 13 13 14 13 12 12 12 12 11 10 9 8 8 8 8 8 8 8 8 9 9 8 9 10 10 9 9 9 9 9 9 9 9 8 8 8 8 7 6 6 5 6 6
10 10 11 13 14 13 14 13 14 13 12 12 12 13 12 10 9 8 8 9 8 8 8 8 8 8 9 8 10 10 10 9 10 9 9 9 9 9 9 8 8 8 7 6 6 6 6 6 6
10 10 12 13 13 14 14 14 13 13 13 13 12 12 11 10 9 8 8 9 8 8 8 8 9 10 10 9 10 9 9 9 10 9 10 9 9 9 9 9 8 8 7 7 7 6 6 6 6
10 11 12 12 13 13 13 12 12 12 11 11 10 10 10 10 9 9 9 10 9 8 9 9 10 10 10 10 9 9 8 9 9 9 10 9 9 9 9 9 9 9 8 8 7 7 7 6 6
10 11 12 12 13 14 13 11 11 12 11 11 11 12 12 10 9 9 9 9 9 9 9 10 10 10 10 10 10 10 9 10 10 9 10 10 10 9 9 9 9 9 9 8 7 6 7 7 6
11 12 12 13 13 13 13 14 13 11 11 12 12 14 14 13 11 10 10 10 9 9 9 10 10 10 10 10 11 10 10 10 10 9 10 10 10 10 9 9 10 9 10 9 8 8 8 7 7
11 12 13 13 13 11 13 14 9 12 14 14 13 13 13 13 12 12 10 10 9 9 9 9 10 10 10 10 11 11 10 10 10 10 11 10 11 10 10 9 10 10 10 9 9 9 8 8 8
11 12 11 10 10 8 13 13 15 15 14 14 15 14 14 12 12 12 10 11 10 10 10 10 10 11 11 10 10 11 10 10 11 10 11 10 10 11 10 10 10 10 10 10 10 10 9 9 8
11 12 11 8 7 9 13 13 15 15 16 16 16 13 13 12 12 13 12 12 11 11 12 11 11 11 11 11 11 11 11 10 11 11 11 11 11 10 11 10 10 10 10 10 10 10 10 9 8
11 11 12 12 11 11 13 13 15 14 15 15 16 15 14 13 13 13 13 12 12 12 12 12 12 11 11 11 11 11 11 11 11 11 11 11 11 11 11 11 11 11 11 10 10 10 10 10 10
11 11 11 11 7 9 11 13 13 13 14 14 15 16 15 14 14 14 14 13 13 13 11 12 12 11 12 12 11 11 11 11 11 11 11 11 11 11 11 11 11 11 11 11 11 11 11 11 10
9 9 10 10 10 6 7 11 11 12 13 14 14 15 15 15 14 15 14 14 14 15 14 14 12 11 11 11 11 11 11 10 10 11 11 11 11 11 11 11 11 12 12 11 11 11 11 11 11
7 6 6 9 9 9 10 10 10 11 11 11 12 14 13 13 13 13 13 14 13 13 13 14 14 13 12 11 11 11 11 11 10 11 11 11 11 11 12 12 11 11 12 12 12 11 11 11 11

GFSSGP_700_temp_066.txt.gz
Temp
9 10 10 10 10 10 10 10 10 10 10 10 11 11 11 11 11 11 11 9 9 9 9 8 9 8 8 8 8 9 9 9 9 9 9 9 9 9 9 8 8 9 9 9 9 9 8 8 9
10 10 10 10 9 10 11 11 11 10 10 10 10 10 10 11 11 11 11 10 9 9 9 9 9 8 8 8 8 9 9 9 8 9 8 8 8 8 8 9 9 9 9 9 9 9 8 8 9
10 10 10 9 9 10 10 10 11 10 11 9 10 10 11 11 11 11 11 10 9 9 9 8 8 8 8 8 8 9 8 8 8 8 8 8 8 9 8 9 8 8 8 8 9 8 8 8 8
10 10 10 10 10 10 10 10 10 10 10 10 10 10 11 11 11 11 11 10 9 9 9 8 8 8 9 9 9 8 8 8 8 8 8 8 9 8 8 8 8 8 8 8 8 8 8 8 8
10 10 10 10 10 10 10 9 9 9 10 10 10 11 11 11 10 11 10 10 9 9 9 8 8 9 9 9 9 9 9 9 9 9 9 9 8 8 8 8 8 8 9 9 9 8 8 8 8
10 10 10 10 10 10 10 9 9 10 11 10 11 11 11 11 10 10 10 10 9 9 9 9 9 9 9 9 9 9 9 9 9 9 9 9 8 8 8 8 8 9 9 8 8 8 8 8 7
10 10 10 10 10 10 10 10 10 9 10 11 11 11 11 11 10 10 10 9 9 8 9 9 9 9 9 9 9 9 9 9 9 9 9 9 8 8 8 8 8 8 8 8 8 8 7 7 8
11 10 11 10 10 10 10 10 10 10 11 11 11 11 11 11 10 10 10 9 9 8 8 9 9 9 9 9 9 9 9 9 9 9 9 9 8 8 8 8 8 8 8 8 7 7 7 8 8
11 11 11 10 10 10 10 10 11 10 11 11 11 11 11 11 10 10 10 10 9 9 9 9 9 9 9 9 9 9 9 9 9 9 9 9 8 8 8 8 8 8 8 8 7 7 7 7 8
11 11 10 11 10 10 10 10 10 10 11 11 11 11 11 11 11 10 11 11 10 10 9 9 9 9 9 9 9 9 9 9 9 9 9 9 8 8 8 8 8 8 8 8 7 7 7 7 7
11 11 11 11 11 11 10 11 11 10 10 10 11 12 11 12 11 10 10 10 10 10 9 9 9 9 9 9 9 9 9 9 9 9 9 9 9 8 8 8 8 7 8 7 7 7 7 7 7
12 11 11 11 11 11 10 10 10 10 10 10 10 10 11 11 11 10 10 10 10 10 9 9 9 9 9 9 9 9 9 9 8 8 8 8 8 8 8 8 8 8 7 7 7 7 7 7 7
12 11 11 11 11 11 11 10 11 10 10 10 10 10 10 11 10 10 9 9 9 10 9 9 9 9 8 9 9 9 9 9 8 8 7 7 8 7 8 8 8 8 8 8 7 7 7 7 7
10 10 11 11 12 11 11 11 11 10 10 11 11 11 10 10 10 9 9 9 9 9 9 9 9 9 8 9 9 9 9 8 8 8 8 7 7 7 7 7 7 7 7 7 7 7 7 7 7
10 10 11 12 12 12 11 11 12 11 11 11 10 10 10 9 9 9 9 9 9 9 9 9 9 9 9 8 8 9 9 8 8 8 7 7 8 8 7 7 7 6 6 7 7 7 7 6 7
9 10 11 12 13 12 11 12 12 11 10 11 11 11 10 9 9 9 8 8 8 8 9 9 9 9 9 9 8 9 9 8 8 8 8 7 7 8 8 7 7 7 6 6 6 6 6 6 7
9 10 11 12 12 11 11 11 12 12 11 11 11 11 10 9 8 8 8 8 8 8 8 8 9 9 9 9 8 8 8 8 9 8 8 8 8 8 8 8 7 7 6 6 6 6 6 6 6
9 10 11 11 12 11 11 13 12 12 13 12 12 12 11 9 9 8 8 8 7 7 7 8 8 9 9 9 8 8 8 9 9 9 9 8 8 8 8 7 7 7 6 5 5 6 6 6 6
9 10 11 11 11 11 12 12 12 12 12 13 12 11 11 10 9 8 8 8 7 7 7 7 8 9 9 9 9 9 9 9 9 9 9 8 8 8 8 8 7 7 6 6 6 5 6 6 6
9 10 11 11 11 12 12 13 14 13 12 12 12 12 11 11 9 8 8 8 8 7 8 8 7 8 8 8 8 8 8 8 9 9 9 8 8 8 8 8 8 7 6 6 5 5 5 5 6
9 10 10 11 11 12 12 13 14 13 12 11 11 11 10 10 10 9 8 9 8 8 8 8 8 8 8 8 9 9 9 8 9 9 9 9 8 8 8 8 8 7 6 6 6 5 5 6 6
9 9 10 10 10 11 12 11 13 13 12 12 12 11 11 10 10 9 9 9 9 9 9 8 8 8 8 9 9 9 9 9 9 9 9 9 9 8 8 8 8 7 7 6 6 5 5 5 6
8 9 9 10 10 10 12 11 13 12 12 13 12 12 12 11 10 10 10 9 9 9 9 9 8 8 8 9 10 10 9 9 8 9 9 9 9 9 8 8 8 8 8 7 6 6 5 6 6
9 9 9 10 10 9 12 12 14 13 14 14 13 13 12 12 11 11 11 9 9 9 9 9 8 8 8 8 9 10 10 9 9 9 9 9 9 9 9 9 8 8 8 7 7 6 6 6 6
9 9 8 7 7 7 12 12 12 13 14 14 13 12 13 13 13 12 12 11 10 10 9 9 9 8 8 8 9 9 10 10 10 9 9 9 10 9 9 8 8 8 8 8 8 7 6 6 6
9 10 9 7 4 8 11 12 12 12 13 14 14 13 13 12 12 12 12 11 11 10 10 9 9 9 8 8 9 9 9 10 10 10 10 9 9 9 9 9 9 8 8 8 8 7 7 7 7
9 9 10 10 8 9 10 11 11 12 12 13 14 14 14 13 12 12 12 12 11 11 10 9 9 9 9 9 9 10 10 10 10 10 10 10 9 9 10 9 9 9 9 9 9 8 8 7 7
9 9 10 10 6 8 8 7 8 11 12 13 13 13 14 14 13 11 12 12 11 10 10 9 9 9 9 10 9 10 10 10 10 10 10 10 9 9 9 9 9 9 9 9 9 9 9 8 8
8 8 9 9 9 5 4 5 6 8 10 12 13 13 14 15 14 12 11 11 11 10 11 10 9 9 9 9 9 9 10 10 10 10 10 10 10 10 10 10 9 9 9 9 9 9 9 9 8
7 6 8 9 7 8 7 5 6 7 8 10 12 13 14 14 14 13 12 11 11 10 11 10 10 9 9 9 8 8 9 10 10 10 10 10 10 10 10 10 10 9 9 9 9 9 9 9 9

GFSSGP_700_temp_069.txt.gz
Temp
10 10 10 10 10 10 10 10 10 10 10 10 10 10 11 11 11 10 11 9 9 9 9 8 8 8 8 8 8 8 9 9 9 9 9 9 9 9 9 8 9 9 9 9 9 8 8 8 8
10 10 10 11 10 10 10 10 11 10 11 10 9 10 10 10 10 11 11 10 9 9 9 8 8 8 8 8 9 9 9 9 9 9 8 8 8 8 8 8 9 9 9 9 8 8 8 8 8
10 10 10 10 10 10 10 9 9 10 10 10 10 10 10 11 11 11 10 10 9 9 9 9 9 9 9 9 9 9 9 9 9 8 9 9 9 9 8 8 8 8 8 8 8 8 8 8 8
10 10 10 10 10 10 9 9 9 9 9 10 10 10 10 11 11 11 11 10 9 9 9 9 9 9 9 9 9 9 9 9 9 8 9 9 9 8 8 8 8 8 8 8 8 8 8 8 9
10 10 10 10 10 10 10 9 9 9 10 10 10 10 11 11 11 11 10 10 9 9 9 9 8 9 9 9 9 9 9 9 9 9 9 9 8 8 8 8 8 8 8 9 8 8 8 8 8
10 10 10 10 10 10 10 9 10 9 10 10 10 11 11 10 11 10 10 9 9 9 9 8 9 9 9 9 9 9 9 9 9 9 9 8 8 8 8 8 8 8 8 8 8 8 8 8 8
10 10 10 10 9 10 10 10 10 10 11 11 10 11 11 10 10 10 10 9 9 9 9 9 9 9 9 9 9 9 9 9 9 9 9 9 8 8 8 8 8 8 8 8 7 8 8 8 8
11 10 10 10 9 10 9 10 10 9 11 10 10 10 11 11 10 10 10 9 9 9 9 9 9 9 9 9 9 9 9 9 9 9 9 9 8 8 8 8 8 8 7 7 7 7 8 8 8
11 10 10 10 9 10 10 10 10 10 10 11 11 10 10 11 10 10 10 9 9 9 9 9 9 9 9 9 9 9 10 9 9 9 9 9 8 8 8 8 8 8 8 8 7 7 8 8 8
11 11 10 10 10 10 10 10 10 10 11 11 12 11 10 11 11 10 10 10 10 10 10 9 9 9 9 9 9 9 9 9 9 9 9 9 8 8 8 8 8 8 8 7 7 8 8 7 8
11 10 10 10 10 10 10 10 10 10 11 11 12 12 11 11 11 10 10 10 10 10 10 9 9 9 9 9 9 9 9 9 9 9 9 9 9 8 8 8 8 8 7 7 7 7 7 7 8
11 11 10 11 11 11 10 10 10 10 10 10 11 11 11 11 11 10 10 10 10 10 10 9 9 9 9 9 9 9 9 9 9 9 9 9 8 8 8 8 8 7 7 7 7 8 7 7 7
11 10 10 10 11 11 11 10 10 10 10 10 10 10 11 11 10 10 9 10 10 10 10 9 9 9 9 9 9 9 9 8 9 8 8 8 8 8 8 8 8 8 7 7 7 7 7 7 7
11 10 11 11 11 12 11 11 11 11 10 10 10 9 10 10 10 10 10 10 10 10 10 10 9 9 9 9 9 9 9 8 8 8 8 8 7 8 7 8 8 8 7 7 7 7 7 7 7
10 10 11 11 12 12 11 11 11 11 10 10 10 10 9 9 10 10 10 9 9 9 10 9 9 9 9 9 9 9 9 8 8 8 8 7 7 7 7 7 7 8 7 7 7 7 7 7 7
9 10 11 12 12 12 11 11 11 11 11 10 10 10 9 9 10 9 9 9 9 9 9 10 9 9 9 9 9 9 9 9 8 8 8 8 8 7 7 7 8 7 7 7 7 7 7 7 8
9 11 11 12 12 12 11 11 11 11 10 10 10 10 10 9 9 9 9 8 8 9 9 9 9 9 9 9 8 9 8 9 8 8 8 8 8 7 7 7 7 7 6 6 7 6 7 6 7
9 10 11 12 12 12 12 12 12 11 11 11 11 10 10 9 9 9 8 8 8 8 8 9 9 9 9 9 9 9 9 9 8 8 8 8 8 8 8 7 7 6 6 6 6 6 6 7 7
9 10 11 11 11 12 12 12 12 12 11 12 11 11 10 9 8 8 8 8 8 8 8 9 9 9 9 9 9 8 9 9 8 8 8 8 8 8 8 8 7 6 6 6 6 6 6 6 6
8 9 10 11 11 11 12 13 13 13 13 11 11 12 10 9 8 8 8 8 8 8 8 8 8 9 9 8 7 8 9 8 8 9 9 9 8 8 8 8 7 6 6 6 6 6 5 6 6
8 9 10 10 11 12 12 13 13 13 14 13 11 11 10 10 10 9 8 8 8 7 7 8 8 9 8 8 8 8 9 9 9 9 9 9 8 8 8 8 8 7 6 6 6 6 6 6 6
8 9 9 10 10 12 12 13 13 13 13 13 12 11 11 11 10 9 8 8 8 8 8 8 8 8 8 8 8 8 8 9 8 8 9 9 9 8 8 8 8 8 7 6 6 6 5 6 6
8 9 9 9 10 10 11 12 13 13 12 12 12 12 11 11 11 10 9 9 9 8 8 8 8 8 8 9 9 9 9 8 8 8 9 9 9 8 9 8 8 8 7 7 6 6 6 6 6
8 9 9 9 9 12 11 12 11 11 12 11 12 12 11 11 11 10 9 9 9 8 8 8 8 8 8 8 9 9 9 9 8 8 9 9 9 9 9 8 8 8 8 7 7 6 6 6 6
8 9 10 11 11 13 12 12 9 10 11 13 14 13 12 12 11 11 11 10 9 9 8 8 8 8 8 8 9 9 10 9 9 8 8 9 9 9 9 8 8 8 8 8 7 7 6 6 6
8 9 11 11 11 13 11 12 8 10 11 12 14 13 13 13 12 12 12 12 11 10 8 8 8 8 8 8 8 9 9 10 10 9 9 9 8 9 9 9 9 9 9 8 8 7 7 7 7
9 8 10 9 8 12 11 10 10 10 11 12 13 14 13 13 13 12 12 11 11 10 9 9 9 8 8 8 8 8 9 10 10 9 9 9 9 8 9 9 9 9 9 9 8 8 8 8 8
9 9 9 10 11 12 9 8 8 10 11 12 12 13 14 13 13 12 12 11 11 10 10 9 9 9 8 8 8 8 8 9 10 10 10 9 9 9 8 9 9 9 9 9 9 9 9 8 8
8 8 9 10 9 12 11 8 6 7 9 12 12 13 14 14 13 12 11 11 11 10 10 9 9 8 8 8 8 8 8 9 10 10 10 9 9 9 9 9 9 9 10 9 9 9 9 9 9
7 8 9 10 8 8 10 6 5 7 8 9 11 12 13 13 13 13 12 11 11 10 10 10 9 9 8 8 8 8 8 8 9 10 10 9 9 9 9 10 10 10 10 10 9 9 9 9 9

GFSSGP_700_temp_072.txt.gz
Temp
10 10 11 11 10 11 11 10 10 9 9 9 9 9 10 9 9 10 10 9 9 9 9 9 9 9 9 9 9 9 9 9 9 9 9 9 9 9 9 9 9 9 9 9 9 8 8 8 8
11 11 11 10 11 13 10 10 10 10 10 9 9 9 10 10 11 11 10 9 9 9 9 9 9 9 8 8 9 9 9 9 9 8 8 8 8 9 9 9 9 9 8 8 8 8 8 8 8
11 10 10 10 12 13 10 9 10 10 10 9 11 9 11 10 11 10 10 9 9 9 9 9 8 9 8 8 9 9 9 8 8 8 9 9 9 9 9 9 9 8 9 8 8 8 8 8 8
10 10 10 10 11 11 10 9 9 10 11 11 11 11 11 10 11 11 10 10 9 9 8 8 8 9 8 9 9 9 9 9 8 9 9 9 8 8 8 8 8 8 8 8 8 8 8 8 8
10 10 10 10 10 10 10 9 9 9 10 10 10 11 11 11 11 10 10 9 9 9 9 9 9 9 9 9 9 9 9 9 9 9 9 8 8 8 8 8 8 8 8 8 8 8 8 8 8
10 10 10 11 10 10 9 9 9 9 10 10 10 10 11 11 10 10 10 9 9 9 9 9 9 9 9 9 9 9 9 9 9 9 8 8 8 8 8 8 9 8 8 8 8 8 8 8 8
11 10 11 11 10 10 9 9 10 10 10 10 10 11 11 11 10 10 10 9 9 9 9 9 9 9 9 9 9 9 9 9 9 9 8 8 8 8 8 9 8 8 8 8 8 8 8 8 8
11 10 12 11 11 9 10 10 10 10 9 10 10 10 11 11 10 10 10 9 9 9 9 9 9 9 9 9 9 9 9 9 9 9 8 8 8 8 8 8 8 8 8 8 8 8 8 8 8
11 10 12 12 11 10 10 10 10 10 10 9 10 11 11 11 11 10 10 10 9 9 9 9 9 9 9 9 9 9 9 9 9 8 8 8 8 8 8 8 8 8 8 8 7 8 8 8 8
10 10 11 11 11 11 11 11 10 11 11 10 10 10 11 11 11 10 10 10 9 9 9 9 9 9 9 9 9 9 9 9 9 9 9 9 8 8 8 8 8 8 8 8 7 8 8 8 8
10 10 11 10 10 10 11 11 10 11 11 10 10 11 10 11 11 10 10 10 10 9 10 9 9 9 9 9 9 9 9 9 9 9 9 9 8 8 8 8 8 8 8 8 8 8 8 8 8
10 10 10 10 10 10 9 10 11 10 10 11 11 11 11 11 11 10 10 10 10 10 9 9 9 9 9 9 9 9 9 9 9 9 9 9 8 8 8 8 8 8 8 7 8 7 8 8 8
10 10 10 10 10 10 11 10 10 10 10 11 11 11 11 10 10 10 9 10 10 10 9 10 9 9 9 9 9 9 9 9 9 9 8 8 8 8 8 8 8 8 8 8 8 8 8 8 8
10 10 10 11 11 11 11 10 10 9 11 11 11 11 11 10 10 10 10 10 10 10 10 9 9 9 9 9 9 9 8 8 8 8 8 8 8 8 8 8 8 8 7 7 7 7 8 8 8
9 11 11 11 11 12 11 10 10 10 10 10 10 10 10 10 10 10 10 10 10 10 9 9 9 9 9 9 9 8 8 8 8 8 8 8 8 8 8 8 8 8 7 7 7 7 8 8 7
10 11 13 12 11 12 11 11 11 11 10 11 10 9 9 10 10 9 9 9 9 9 9 9 9 9 9 9 9 8 8 8 8 8 8 8 8 8 8 8 8 8 7 7 7 7 7 7 7
11 14 14 12 11 12 12 11 11 11 10 10 10 10 9 9 9 9 9 9 9 9 9 9 9 9 9 9 9 8 8 8 8 8 8 8 8 8 8 8 8 8 7 7 7 7 7 8 7
13 14 14 14 11 12 12 11 12 11 11 10 10 10 9 9 9 9 9 9 9 8 9 9 9 9 9 9 9 9 8 8 8 8 8 8 8 8 8 8 8 8 7 7 7 7 7 6 7
14 13 14 13 12 13 13 13 11 13 11 11 10 10 9 8 9 9 8 8 8 9 9 9 9 9 9 9 9 8 8 8 8 8 8 8 8 9 8 8 8 7 7 7 7 6 7 7 7
11 13 13 12 12 13 13 13 11 11 11 11 11 11 9 8 8 9 9 8 8 9 9 9 9 9 9 9 8 8 8 8 8 9 8 8 8 9 8 8 8 7 7 7 7 6 5 6 7
11 13 13 13 12 12 13 13 12 13 10 10 11 9 9 9 8 8 8 8 8 8 9 9 9 9 9 9 8 8 9 9 8 8 8 8 9 9 9 8 8 7 7 6 6 6 6 6 7
12 11 12 12 12 14 13 17 13 11 10 10 10 11 9 9 9 8 8 8 8 8 8 8 8 8 8 8 8 9 9 8 8 8 8 9 8 9 9 8 8 7 7 7 6 6 6 6 6
12 10 11 12 12 13 13 15 12 12 11 12 12 11 9 10 10 9 8 7 8 8 8 8 8 8 8 8 8 8 9 9 8 8 8 8 8 8 9 9 9 8 8 8 7 6 7 7 6
10 10 10 11 13 14 15 15 14 13 10 10 9 10 10 9 10 9 8 8 8 8 8 8 8 8 8 8 8 8 9 9 9 9 8 8 9 9 9 9 9 9 9 8 8 7 6 7 7
9 11 13 14 14 16 15 14 11 9 10 12 12 12 9 9 9 9 8 8 8 8 8 8 8 7 8 8 8 8 9 9 9 9 8 8 8 9 9 9 9 9 9 8 9 8 8 8 7
10 11 15 14 16 16 13 14 10 9 11 11 13 14 12 9 9 9 9 8 8 8 9 8 8 8 8 8 8 8 9 9 9 9 9 8 8 9 9 9 9 9 9 9 9 9 8 8 8
10 11 13 14 14 17 14 10 9 8 9 12 13 13 10 10 9 9 9 9 8 9 9 9 8 8 8 7 8 8 8 9 9 9 9 8 8 7 9 9 9 9 9 9 9 9 8 8 8
10 10 11 12 15 15 15 13 10 8 10 11 13 13 12 9 9 9 9 8 9 9 9 9 9 8 8 8 8 8 8 8 9 9 9 9 9 9 9 9 9 9 9 9 10 9 9 9 9
9 10 10 13 14 16 16 13 7 6 10 11 12 13 13 13 10 10 10 9 9 8 9 9 9 8 8 8 8 8 8 8 8 9 9 9 9 9 9 9 9 9 9 9 10 9 10 9 9
8 9 10 12 13 13 15 9 5 6 9 10 11 12 13 12 12 11 11 10 9 9 9 10 9 9 8 8 8 8 8 8 8 9 9 9 9 9 9 9 9 9 9 9 10 10 10 9 9

GFSSGP_700_temp_075.txt.gz
Temp
11 11 11 10 10 12 11 11 10 12 12 13 12 12 12 11 10 10 10 8 10 9 9 9 9 9 9 9 9 9 9 9 9 9 9 9 9 9 9 9 9 9 9 9 8 8 8 9 8
11 11 11 9 11 14 10 10 10 11 11 11 11 11 10 10 11 10 8 9 10 9 9 9 9 9 9 9 9 9 9 9 9 9 9 9 9 9 9 9 9 9 9 9 8 8 8 8 8
12 11 10 10 12 12 10 10 11 10 10 11 11 10 10 9 8 8 10 9 7 8 9 9 9 9 9 9 9 9 9 9 8 9 9 9 9 9 9 9 9 9 9 8 8 8 8 8 9
10 10 10 10 11 11 10 11 9 10 10 10 10 10 10 8 8 8 10 7 7 7 9 9 9 9 9 9 9 9 8 8 9 9 9 8 8 8 8 9 8 8 9 8 8 8 9 8 9
10 10 11 11 11 10 11 9 10 9 10 10 10 10 10 8 8 9 8 8 8 8 9 9 9 9 9 9 8 8 8 8 9 9 8 8 8 8 8 8 8 8 8 8 8 8 8 8 8
11 10 11 11 10 10 9 10 10 10 10 10 10 11 9 10 8 7 8 8 8 7 9 9 9 9 9 9 9 9 9 9 9 8 8 8 8 8 8 8 8 8 8 8 8 8 8 8 8
10 11 11 12 11 10 10 10 10 11 9 10 10 11 10 10 8 8 8 8 8 8 9 9 9 9 9 9 9 9 9 9 9 8 8 8 8 8 8 8 8 8 8 8 8 8 8 8 8
10 10 12 13 11 10 9 10 10 10 10 10 10 10 10 8 8 8 8 8 8 9 7 6 9 9 9 9 9 9 9 9 9 8 8 8 9 8 8 8 8 8 8 8 8 8 8 8 9
11 11 12 12 12 11 11 10 9 10 10 10 10 10 11 11 8 8 8 8 7 8 7 6 7 9 8 9 9 9 9 9 9 8 8 7 8 8 8 8 8 8 8 8 8 8 8 8 8
10 11 12 12 11 12 11 10 10 10 10 10 9 9 11 10 8 8 8 8 7 8 7 7 7 8 8 9 9 9 8 9 9 8 8 7 7 8 8 8 8 8 8 8 8 8 8 8 8
11 11 12 12 12 12 11 11 11 10 10 10 10 9 11 10 8 8 8 8 8 8 7 7 8 8 9 8 6 6 7 8 9 8 7 8 8 8 8 8 8 8 8 8 8 9 8 7 7
11 12 12 13 12 11 12 11 11 11 10 10 10 9 10 9 8 8 9 8 8 8 7 7 7 8 8 6 6 6 6 8 9 9 8 8 6 7 6 8 8 7 8 7 8 7 8 8 8
12 13 13 12 12 12 11 11 10 11 11 11 9 8 8 8 8 9 9 8 8 7 7 6 8 9 9 8 6 8 7 8 9 9 8 7 7 8 7 7 8 7 7 8 8 8 8 8 7
12 13 13 13 14 12 11 11 10 11 11 11 10 9 8 9 9 8 8 8 8 8 7 6 9 9 9 9 8 7 8 8 8 8 9 7 8 8 8 8 7 7 7 7 8 8 7 7 8
12 13 13 14 14 12 12 11 11 10 10 11 10 9 9 9 9 8 8 8 7 10 9 9 9 9 9 9 9 8 8 7 6 8 8 8 8 8 8 8 9 7 8 8 8 8 7 8 7
12 13 15 15 14 13 12 11 11 10 10 10 9 9 9 9 9 8 8 8 8 9 10 10 6 9 9 9 9 7 9 8 8 7 8 8 8 8 8 8 7 8 7 8 7 7 7 6 7
13 15 16 15 14 14 13 12 11 10 10 9 9 9 9 9 9 8 8 7 7 9 10 10 9 9 9 9 9 8 8 8 8 7 8 8 8 8 8 8 8 7 6 6 7 8 8 7 8
15 16 17 16 15 14 14 10 11 10 11 10 10 9 8 8 9 8 8 8 7 8 9 9 9 9 9 9 9 8 8 8 8 8 8 8 8 8 8 8 8 7 5 7 8 7 8 8 8
16 16 17 17 15 16 16 12 11 11 9 9 10 10 9 9 8 9 8 8 8 8 9 9 10 10 9 9 9 7 8 8 7 9 8 8 8 8 8 8 8 7 6 7 7 7 7 7 8
15 17 17 16 15 16 16 16 13 11 11 10 11 10 9 9 9 8 8 8 9 8 9 9 9 9 9 9 8 6 9 7 9 8 8 8 8 8 8 8 8 7 7 8 7 8 6 7 7
14 16 17 16 14 15 16 16 14 12 12 11 11 10 10 9 9 8 8 8 8 8 9 9 9 9 9 9 9 9 8 7 8 9 9 9 8 9 8 8 8 7 6 8 8 7 6 7 8
15 15 16 16 15 16 15 18 15 13 13 11 11 11 9 9 9 9 8 9 9 7 9 9 9 9 9 9 9 9 9 9 8 8 8 9 9 9 9 9 8 8 8 8 7 7 7 6 6
15 14 15 15 15 17 16 17 14 14 13 10 12 10 10 10 9 9 9 9 9 8 9 9 9 9 9 9 9 9 9 8 8 9 9 9 9 9 9 9 9 8 8 8 8 7 8 6 6
13 13 13 14 15 17 17 17 14 14 13 11 10 12 11 10 10 9 9 9 9 8 7 8 9 9 9 9 9 9 8 7 8 8 9 9 9 9 9 9 9 9 9 9 8 8 7 8 7
13 13 14 15 16 18 17 17 14 12 12 12 11 12 12 10 10 10 9 8 8 9 8 7 8 8 8 8 9 9 9 9 9 9 8 8 9 9 9 9 9 9 9 9 9 8 8 8 8
13 14 16 16 18 18 18 18 13 11 10 10 11 11 10 10 10 10 9 9 8 9 8 8 8 8 8 8 8 9 9 9 9 9 9 7 9 9 9 9 9 9 9 9 9 8 8 8 8
13 13 15 17 18 19 17 13 11 10 9 12 11 12 11 11 10 11 10 9 9 9 8 8 8 8 8 8 8 8 8 9 9 8 9 8 8 9 10 10 10 9 9 9 9 9 8 8 8
12 13 14 15 17 18 18 14 14 11 9 11 12 12 11 11 11 10 10 10 9 8 8 8 7 9 8 8 8 8 8 8 9 9 9 9 8 9 9 10 10 9 9 9 9 10 9 9 9
11 12 14 15 16 19 19 14 10 8 8 11 12 12 13 13 12 11 11 10 10 9 8 9 7 9 8 8 8 8 8 8 8 9 9 9 9 10 10 10 9 9 9 9 9 9 9 9 9
11 13 13 14 15 16 17 10 8 5 11 11 12 12 12 12 12 12 11 10 9 10 10 9 8 8 9 8 8 8 8 8 8 8 9 9 9 9 10 10 10 9 9 10 9 9 9 10 10

GFSSGP_700_temp_078.txt.gz
Temp
11 11 11 10 9 10 10 10 11 12 13 13 13 13 12 10 10 10 10 10 10 9 9 9 9 9 9 9 9 9 9 9 9 9 9 9 8 9 9 9 9 9 9 9 9 9 9 9 9
11 11 11 9 10 11 10 11 11 12 12 13 12 11 11 10 12 10 10 9 10 9 9 9 9 9 9 9 9 9 9 9 8 8 9 9 9 9 9 9 9 9 9 9 9 9 9 9 9
12 11 10 10 12 10 10 10 11 11 12 12 12 11 11 9 8 10 9 9 9 9 9 9 9 9 9 9 9 9 9 8 9 9 9 9 9 9 9 9 9 9 9 9 9 9 9 9 9
12 10 10 11 11 11 11 11 11 11 11 11 12 11 9 9 9 9 8 8 8 9 9 9 9 9 9 9 9 9 8 8 9 9 8 8 8 8 8 8 9 9 9 9 9 9 9 9 9
10 10 11 11 11 11 11 10 10 11 11 11 10 9 9 9 9 8 8 8 9 9 9 9 9 9 9 9 9 9 9 9 9 8 8 8 8 8 8 8 9 9 9 8 9 9 9 9 9
10 11 11 11 11 10 10 10 9 11 11 10 10 9 9 9 8 8 8 8 8 9 9 9 9 9 9 9 8 9 9 9 8 8 8 9 9 9 8 9 9 9 9 9 9 9 9 9 9
10 11 12 11 10 10 10 10 10 10 10 10 10 9 9 8 8 9 8 8 8 9 9 9 10 9 9 9 9 9 9 9 8 8 9 9 9 9 9 9 9 9 8 8 9 8 9 9 8
10 11 11 12 11 10 10 10 11 10 10 10 10 9 9 8 9 9 9 8 8 9 10 10 9 9 9 9 9 9 9 9 8 8 9 9 9 9 9 8 8 8 8 8 8 8 8 8 8
11 12 13 12 12 11 11 10 10 10 10 11 10 9 9 8 9 9 8 8 8 8 9 10 9 9 9 9 9 9 9 8 8 8 8 9 8 8 8 8 8 8 8 8 8 9 9 8 8
11 12 12 12 13 12 11 10 10 10 10 10 10 9 9 9 9 9 9 8 8 8 7 8 9 8 9 9 9 8 9 9 9 8 8 9 8 8 8 7 8 8 8 8 8 8 8 8 8
11 12 12 12 11 11 10 10 11 10 11 10 10 9 9 9 9 9 9 9 8 8 8 8 8 8 9 8 9 8 8 9 8 8 9 9 8 8 8 8 8 8 8 8 8 8 8 8 6
11 12 13 13 13 13 12 12 10 10 10 10 10 9 9 9 9 9 9 9 8 8 8 8 8 8 8 8 8 8 9 8 8 8 8 8 8 8 7 8 8 8 8 8 9 8 8 7 7
12 12 13 14 13 12 12 11 12 11 10 10 9 9 9 9 10 9 9 9 9 8 8 8 8 8 8 8 7 8 7 9 8 8 9 8 8 8 9 8 8 7 9 8 7 8 8 7 8
13 13 14 14 14 13 12 11 12 12 11 10 9 9 9 9 9 9 9 9 9 8 8 10 10 9 9 9 7 8 7 7 9 9 8 8 8 8 7 8 8 9 8 8 8 8 7 8 9
14 14 15 15 15 13 12 11 12 12 11 10 10 9 9 9 9 9 9 9 8 8 7 10 10 10 10 10 9 8 7 8 8 8 8 8 9 8 9 7 7 8 8 7 8 8 8 7 9
14 15 15 16 16 14 13 11 11 11 10 10 10 10 9 9 9 9 9 8 8 9 7 9 10 10 10 10 9 9 9 9 9 9 9 9 8 8 8 7 9 7 7 7 8 9 8 8 8
14 15 16 16 16 14 14 12 11 10 10 10 10 10 9 9 9 9 9 8 9 10 10 9 8 10 10 10 9 8 8 9 9 8 8 9 8 8 9 8 8 8 9 9 7 8 8 7 8
15 15 17 15 16 16 14 14 9 10 11 10 10 9 10 9 9 9 9 8 9 10 10 9 8 10 10 10 10 9 9 9 9 9 8 9 9 9 9 8 8 7 9 8 8 8 8 8 8
16 17 17 16 16 16 14 13 12 11 10 11 10 9 10 9 9 8 9 8 8 9 10 10 10 10 10 10 10 8 9 8 8 9 9 9 8 9 9 9 8 8 7 8 8 8 7 7 8
16 17 18 14 15 15 14 13 12 11 11 10 10 10 10 9 9 9 9 8 8 9 9 9 10 10 10 10 10 8 8 8 9 8 8 10 9 9 9 9 8 8 8 8 8 8 8 8 8
16 17 18 16 14 14 16 13 12 11 11 11 11 11 11 11 9 9 8 9 9 9 10 10 10 10 10 10 10 9 9 8 9 9 9 9 9 9 9 9 9 8 9 8 7 8 9 8 8
16 16 17 15 16 17 17 17 15 13 12 11 12 11 11 10 10 9 9 9 8 8 9 9 10 10 10 10 10 10 9 8 8 9 8 9 9 9 10 9 9 10 9 9 8 8 7 8 8
15 16 17 16 16 17 17 17 16 14 11 11 11 12 11 11 11 9 9 9 9 9 9 10 10 10 10 10 10 10 8 9 9 8 8 8 9 10 10 9 9 10 8 8 9 8 7 8 7
15 16 16 16 16 17 18 18 14 13 12 10 12 11 10 10 10 9 9 9 9 9 9 10 10 10 10 10 10 10 9 9 8 9 9 9 9 10 10 10 9 10 9 10 8 9 8 8 7
14 15 16 16 17 18 18 18 15 12 13 10 11 10 11 11 10 9 9 9 9 8 8 9 10 10 10 10 10 10 10 9 9 9 8 9 8 10 9 9 9 10 9 9 10 9 10 9 9
14 15 16 15 17 18 18 18 13 12 11 11 12 11 10 10 10 11 10 9 9 8 8 9 10 10 10 10 10 10 10 9 9 9 8 9 8 8 9 9 9 9 10 10 10 10 10 9 9
14 14 16 17 18 18 17 14 12 11 11 11 11 12 11 11 10 9 9 10 9 9 9 8 9 9 9 10 9 10 10 10 9 8 7 9 9 9 8 9 9 9 10 10 9 10 10 10 9
13 14 15 16 16 16 16 14 13 11 9 11 12 12 12 12 11 10 10 10 9 10 8 8 9 9 9 9 10 10 10 10 10 10 11 9 9 9 9 9 9 9 10 10 10 9 9 9 9
13 12 13 15 16 18 15 12 13 10 8 11 12 13 13 12 12 10 10 10 10 9 9 9 8 9 8 8 9 10 10 10 10 10 10 9 9 10 9 9 9 9 10 10 10 10 10 10 10
13 13 13 14 15 16 10 8 9 9 12 12 12 12 12 12 12 11 10 10 9 10 9 9 9 8 9 8 9 9 9 10 10 10 10 10 9 9 10 9 10 10 10 11 10 10 10 10 10

GFSSGP_700_temp_081.txt.gz
Temp
10 10 10 11 11 10 9 10 10 10 10 12 10 11 11 11 10 11 10 10 9 9 9 9 9 9 9 9 9 9 9 9 9 9 9 9 9 9 9 9 9 9 8 9 8 8 9 9 9
11 11 11 10 10 10 10 10 11 11 11 12 11 11 12 11 11 12 10 9 9 9 9 9 9 9 9 9 10 10 9 9 9 9 9 9 9 9 9 9 9 8 8 9 8 8 9 9 9
10 12 9 10 10 9 11 11 11 11 11 12 12 11 12 12 11 11 10 9 9 9 9 9 9 9 9 10 9 9 9 9 9 9 9 9 9 9 9 9 9 8 8 8 9 8 8 9 9
12 11 10 10 11 10 11 11 11 10 11 11 12 11 10 9 11 11 10 10 9 9 9 9 9 9 10 9 9 9 9 9 9 8 8 8 9 9 9 9 9 9 8 8 8 9 9 9 9
12 10 11 10 10 10 11 11 11 10 12 10 11 9 9 9 10 11 10 10 10 9 9 9 9 10 10 9 9 9 9 9 8 8 8 8 8 9 9 9 9 9 9 9 9 9 9 9 9
10 10 10 10 10 10 10 10 11 10 10 10 11 10 9 9 9 9 10 9 9 9 9 9 10 9 9 9 9 9 9 9 9 9 8 8 9 9 9 9 9 8 8 8 8 8 9 8 9
11 10 10 11 10 9 9 10 11 11 11 10 10 10 8 8 9 8 8 9 9 9 9 9 10 9 9 9 9 9 9 9 9 9 9 9 9 9 9 9 9 8 9 8 8 8 8 8 8
11 11 11 11 10 10 10 10 10 10 9 9 10 9 9 9 8 8 9 9 9 9 9 10 10 9 9 9 9 9 9 9 9 9 9 9 9 9 9 9 9 8 8 8 8 8 8 8 8
10 11 12 11 11 11 11 11 10 10 9 9 9 11 9 9 10 9 9 9 10 10 9 9 9 9 9 9 9 10 9 9 8 9 9 9 8 8 9 9 9 8 8 8 8 8 7 8 8
10 11 12 13 12 12 11 11 11 10 10 10 9 9 9 9 9 9 9 9 9 10 10 9 9 9 9 9 9 9 8 9 8 8 8 8 7 8 8 8 9 9 9 8 9 8 8 7 7
11 12 12 13 13 12 12 10 10 10 10 11 10 9 9 9 9 9 9 9 9 10 10 9 9 9 9 10 8 8 8 8 9 8 8 8 8 8 8 8 8 8 8 8 8 8 8 7 7
12 12 12 13 13 12 12 10 10 10 10 10 11 10 9 9 9 9 9 9 9 9 8 8 10 9 10 8 8 8 8 9 9 8 9 9 7 8 8 8 8 9 8 9 9 9 8 7 7
12 13 12 12 13 12 12 12 12 11 10 9 10 10 9 9 9 9 9 8 9 9 8 8 9 10 10 9 9 9 9 8 8 8 8 7 8 8 8 8 8 8 8 8 8 8 8 7 8
13 13 13 11 13 13 12 12 11 10 10 10 10 9 9 9 9 9 9 9 8 9 8 8 9 9 10 9 8 8 8 8 8 8 8 8 9 8 7 9 9 8 9 9 8 8 7 8 8
13 14 14 12 13 13 12 12 11 11 9 10 9 9 9 10 9 9 9 8 8 9 9 8 9 10 10 9 8 8 9 8 8 8 9 8 8 8 8 8 8 8 8 9 9 8 8 7 8
14 13 14 15 14 14 14 12 11 10 11 10 9 9 9 9 10 9 9 9 9 9 9 9 9 10 10 10 9 9 9 9 10 9 9 8 8 8 8 7 7 9 8 8 7 8 8 8 8
14 14 14 15 14 15 13 12 10 10 10 10 10 9 9 9 10 9 9 9 9 9 10 9 9 9 10 10 9 9 9 9 9 9 9 9 8 8 8 8 7 9 8 8 8 9 8 8 8
14 14 15 15 14 15 13 13 12 11 10 10 10 10 9 9 9 9 9 10 9 9 10 11 10 9 9 10 9 10 9 9 9 8 8 8 9 9 8 9 9 8 8 8 8 9 7 8 8
14 15 15 16 15 14 14 12 13 12 11 10 10 10 10 9 9 9 9 9 9 9 9 10 11 10 9 10 9 9 9 9 9 8 9 8 9 9 9 9 9 8 8 8 8 8 8 7 8
14 14 15 16 15 15 13 13 13 14 12 10 10 10 10 10 9 9 9 9 10 9 9 10 10 10 10 9 10 9 9 9 9 9 9 9 9 9 8 8 9 7 8 8 8 8 9 8 8
14 15 15 15 14 14 11 11 13 12 11 10 10 10 10 10 9 9 9 9 9 10 9 9 10 10 10 9 10 10 9 9 9 9 8 9 9 9 8 9 8 9 9 9 7 8 8 8 7
14 15 16 15 14 11 13 12 12 11 11 11 11 11 10 9 10 9 9 9 10 9 10 9 10 10 10 9 10 8 8 9 9 9 9 9 9 9 8 9 9 8 8 9 9 7 8 8 8
15 15 16 15 15 15 14 13 14 12 11 11 10 11 10 10 10 9 9 9 10 9 9 9 10 9 10 10 9 10 9 10 9 9 10 9 9 9 9 9 9 9 8 7 9 8 8 8 8
15 15 15 16 15 14 16 14 13 12 12 11 10 10 11 10 10 10 9 9 9 9 9 9 10 10 10 10 10 10 11 11 10 9 9 9 9 9 9 9 10 9 9 8 9 7 8 8 8
14 14 14 14 13 14 16 16 14 13 11 12 12 11 11 10 11 10 10 9 9 9 10 10 10 10 10 10 10 9 9 10 9 9 9 9 9 10 9 9 9 9 9 9 9 9 8 9 9
14 14 14 13 12 14 16 13 12 13 13 12 12 13 11 11 10 10 9 9 9 9 10 10 9 10 10 10 10 9 10 10 9 9 9 10 10 10 9 9 9 9 9 10 9 10 9 9 9
14 14 15 15 16 16 13 12 11 13 10 11 12 12 11 9 10 10 9 10 9 9 9 10 9 9 9 10 10 10 9 10 9 9 9 10 9 10 10 9 9 10 9 10 10 9 10 10 9
13 14 14 15 13 14 12 12 12 10 10 10 11 12 11 11 11 11 9 11 9 9 8 9 8 8 9 9 9 9 9 9 9 9 9 10 9 9 9 9 9 10 10 10 10 9 9 9 8
13 13 13 13 14 12 9 9 8 9 11 12 11 11 11 11 12 10 9 9 10 9 9 9 9 8 8 9 9 9 9 9 9 9 9 9 10 9 9 9 9 10 10 10 10 10 9 9 9
13 13 13 13 13 13 11 7 8 9 11 12 12 12 10 11 11 11 11 10 10 9 9 9 9 9 8 9 9 9 9 9 9 9 9 10 10 9 9 9 9 10 9 10 10 10 10 11 10

GFSSGP_700_temp_084.txt.gz
Temp
11 11 11 11 10 10 9 10 10 10 10 11 11 11 11 11 10 11 10 10 9 9 9 9 9 9 9 9 9 9 9 9 9 9 9 9 9 9 9 9 8 8 8 8 8 9 9 9 9
10 11 11 11 10 10 9 9 10 10 11 10 9 10 11 12 11 11 10 9 9 9 9 9 9 9 9 9 9 9 9 9 9 9 9 9 9 9 9 9 8 8 8 8 8 9 9 9 8
10 10 11 11 9 9 9 9 10 9 10 10 11 11 11 12 11 11 10 10 9 9 9 9 9 9 10 10 9 9 9 9 9 9 9 9 9 9 9 8 8 8 8 8 9 8 9 9 8
10 10 10 10 9 11 10 9 10 10 10 11 12 11 11 12 11 11 10 10 9 9 9 9 9 9 9 9 9 9 9 9 9 9 9 9 9 9 9 8 8 8 8 8 8 8 8 8 8
10 10 10 10 10 10 10 10 10 11 11 11 11 11 11 10 11 11 10 9 9 9 9 9 9 9 9 9 9 9 9 9 9 9 8 9 9 9 8 8 8 8 8 8 8 8 8 8 8
10 10 10 10 10 9 9 10 11 11 11 12 11 11 10 10 11 10 9 9 9 9 9 9 9 9 9 9 10 9 9 9 9 9 9 9 9 9 8 8 8 8 8 8 8 8 8 8 8
10 10 10 10 10 9 9 10 10 11 12 11 11 11 10 9 9 9 9 9 9 9 9 9 9 9 9 10 10 9 9 9 9 9 9 9 9 8 8 8 8 8 8 8 8 8 8 8 7
10 10 10 10 10 9 9 10 10 11 11 10 10 12 11 10 9 9 8 9 9 9 9 9 9 9 10 10 10 9 9 9 9 9 9 9 9 9 9 8 8 8 8 9 9 9 9 8 8
11 11 11 12 11 9 10 10 9 10 10 10 10 11 11 10 10 9 8 8 9 9 9 9 9 9 10 10 10 9 9 9 9 9 9 9 9 9 9 8 8 8 8 8 9 9 9 9 7
11 12 11 12 12 11 10 10 10 9 9 9 9 9 9 9 10 9 9 9 9 10 10 10 10 10 10 10 9 8 9 9 9 9 9 9 9 9 8 8 8 8 8 8 8 8 8 8 8
12 12 12 12 12 12 10 10 10 10 9 9 11 9 9 9 9 9 10 10 9 9 9 9 9 10 10 10 9 9 8 9 9 9 8 9 9 8 8 8 8 8 7 7 8 8 9 9 8
12 12 12 12 12 12 11 11 11 11 10 10 11 10 9 9 9 9 10 10 9 9 9 9 9 9 10 10 9 9 9 9 9 9 9 9 8 8 8 8 8 8 7 7 8 8 8 8 8
12 12 12 11 12 12 12 11 11 11 11 9 10 10 9 10 9 9 9 9 9 10 9 9 8 9 10 10 10 10 9 9 9 8 8 8 8 8 8 8 8 8 8 8 8 8 8 8 9
12 12 11 10 11 12 12 11 11 10 10 9 9 10 9 9 9 9 9 9 9 9 9 8 9 9 9 9 9 10 10 9 8 8 8 8 8 8 8 8 8 8 8 8 8 8 9 8 9
12 12 12 11 11 11 11 11 11 12 11 10 9 8 8 9 9 10 10 9 9 8 9 8 9 9 9 9 10 9 10 10 9 9 8 8 8 8 8 8 8 8 8 8 8 8 8 8 7
12 12 12 12 11 12 12 10 9 10 10 10 10 9 9 9 9 8 9 9 9 9 9 8 9 9 9 10 9 8 9 9 9 9 9 8 8 8 8 8 8 8 7 7 8 8 8 8 7
12 12 14 12 13 12 12 11 11 9 9 10 10 9 9 9 9 9 9 9 9 9 9 9 10 9 9 10 9 8 8 8 8 8 8 9 8 8 8 9 8 8 8 8 8 8 7 7 7
13 13 14 13 12 11 12 12 13 11 10 10 9 10 9 9 9 10 10 9 9 8 9 9 10 9 9 9 9 9 8 9 8 8 8 8 8 8 9 9 8 8 8 8 7 7 7 8 7
13 14 14 14 12 13 12 13 13 12 9 10 10 9 9 9 9 9 9 10 9 9 9 10 10 10 9 9 9 9 8 9 8 8 8 8 8 8 8 9 8 8 7 8 8 8 8 8 7
13 13 13 13 13 13 13 12 11 12 12 11 10 10 9 9 9 9 9 9 9 9 9 10 10 10 10 9 9 9 9 9 9 9 8 8 9 9 9 8 8 8 7 8 8 8 8 8 8
13 13 14 14 13 13 13 11 12 11 11 11 10 10 9 9 9 9 9 9 9 9 9 10 10 9 9 9 9 9 9 9 8 8 9 9 9 9 9 9 8 8 8 8 8 8 8 8 7
12 14 14 14 14 13 13 13 12 12 11 10 11 10 10 9 9 9 9 9 10 9 9 9 9 9 9 10 9 9 8 9 9 9 9 9 9 9 9 9 9 8 9 8 8 8 8 8 7
13 14 14 15 14 13 13 13 14 12 11 12 11 10 9 10 10 9 10 10 10 10 9 9 9 9 9 9 9 9 9 9 9 9 9 9 9 9 9 9 8 8 9 8 8 8 8 8 7
13 14 14 14 13 12 14 14 11 13 13 12 12 10 10 10 10 10 10 10 10 9 9 9 9 9 9 9 9 9 9 10 9 9 8 9 9 9 9 9 9 9 8 8 8 8 8 8 8
13 13 13 11 11 11 14 12 14 13 13 13 13 12 11 10 11 9 10 9 10 10 9 9 9 9 9 9 10 9 9 10 9 9 9 9 10 9 9 9 9 8 8 8 8 8 8 8 8
13 13 13 12 9 13 13 13 13 13 12 11 11 11 10 10 10 9 9 9 9 9 9 9 9 9 10 9 10 10 9 9 9 9 9 9 9 9 9 9 9 9 9 8 8 8 8 7 8
13 13 14 13 14 14 11 9 10 11 12 11 11 12 12 12 11 9 9 10 9 9 9 9 9 9 10 9 10 9 9 9 9 9 9 9 9 9 9 9 9 9 9 9 8 9 9 9 8
13 13 13 13 11 11 9 9 8 10 12 12 11 11 12 13 12 10 9 10 10 9 9 9 8 8 9 9 9 9 9 9 9 9 9 9 9 9 9 9 9 9 9 10 9 9 10 10 9
13 13 12 13 13 10 7 7 10 11 11 11 11 11 12 12 11 11 10 10 9 9 10 9 8 8 9 9 9 8 9 9 9 9 9 10 9 9 10 9 10 9 9 9 10 9 9 9 9
12 12 12 13 12 12 10 7 9 10 11 11 11 12 12 12 11 11 10 10 10 9 9 8 8 8 8 9 9 9 9 8 9 9 9 9 9 9 9 9 9 9 9 9 9 10 9 9 9

GFSSGP_700_temp_087.txt.gz
Temp
11 11 11 10 9 10 10 10 10 10 11 11 11 11 10 10 11 10 9 9 9 8 8 8 8 8 9 8 8 8 8 9 9 9 9 9 9 9 8 8 8 8 9 9 9 9 8 9 8
10 11 10 10 9 9 10 10 9 9 11 10 10 10 11 11 11 11 10 9 9 8 9 8 8 8 8 8 9 8 8 8 8 8 8 8 9 8 8 8 8 9 8 9 9 9 9 8 8
10 10 10 10 10 11 10 10 9 10 10 10 11 10 10 11 11 11 10 10 9 9 9 8 8 8 8 8 8 8 9 9 9 9 8 8 8 8 8 8 8 8 8 8 8 8 8 8 7
10 10 9 9 9 10 10 9 9 10 9 10 11 10 10 11 11 11 10 10 9 9 9 9 9 9 9 9 9 9 8 8 8 8 9 8 8 8 8 8 8 8 8 8 8 8 7 8 8
10 10 10 10 10 10 9 9 9 10 9 10 10 11 11 11 11 10 10 9 9 9 9 9 9 9 9 9 9 9 8 8 8 8 9 9 8 8 8 8 8 8 8 8 8 8 8 8 8
10 10 10 10 10 10 9 9 9 10 10 10 11 12 11 10 10 10 9 9 9 9 9 9 9 9 9 9 9 9 9 9 8 8 9 8 8 8 8 8 8 8 8 8 8 8 8 8 8
10 10 10 10 10 10 9 9 10 10 11 11 11 12 11 9 9 9 9 9 9 9 9 9 9 9 9 9 9 9 9 9 9 9 9 8 8 8 8 8 8 8 8 8 8 8 8 8 8
10 10 10 10 10 9 9 10 10 10 11 11 10 12 11 9 9 9 9 9 8 9 9 9 9 9 9 9 9 9 9 9 9 9 9 8 8 8 8 8 8 8 8 8 8 8 8 7 7
10 10 10 10 10 10 9 10 9 10 11 10 10 11 11 9 9 9 9 9 9 9 9 9 9 9 10 9 9 9 9 9 9 9 9 9 8 8 8 8 8 8 8 8 8 8 7 7 7
11 10 10 10 10 11 10 9 10 10 10 10 10 9 10 9 9 9 9 9 9 9 9 9 9 9 10 9 9 8 9 9 8 9 9 8 8 8 8 8 8 8 8 8 8 8 7 7 8
11 11 11 11 10 11 11 11 10 10 10 11 11 10 10 9 9 9 9 9 10 10 9 9 9 10 9 9 9 9 9 9 8 8 8 8 8 8 8 8 7 7 7 7 8 8 7 7 8
11 11 11 11 11 11 12 11 11 11 10 10 10 11 10 9 9 9 9 9 9 9 9 9 10 9 9 9 9 9 9 9 8 8 8 8 8 8 8 7 7 7 7 7 8 8 7 8 8
11 12 11 10 11 11 11 11 11 10 9 10 9 10 10 9 9 9 8 9 9 9 9 9 9 9 9 9 9 9 8 8 8 8 8 8 8 8 7 7 7 8 8 7 8 7 7 8 8
11 12 12 10 10 10 10 11 10 10 10 10 10 10 9 9 9 9 9 9 9 9 9 9 8 9 9 9 9 9 8 8 8 7 8 8 8 8 7 8 8 8 8 7 7 8 8 8 8
11 11 12 11 10 11 10 10 10 10 10 10 9 10 9 8 10 10 10 9 9 9 9 9 8 8 8 9 9 9 9 8 8 8 8 8 8 8 8 8 8 7 7 8 8 9 9 8 8
11 11 11 11 10 10 10 11 11 10 9 10 9 10 9 8 9 10 9 9 9 9 9 9 9 9 8 9 9 9 9 9 8 8 9 8 8 8 8 8 7 8 8 8 7 8 9 8 8
11 11 11 11 11 10 10 11 11 11 10 9 10 10 9 9 9 9 9 9 9 9 9 9 10 9 9 8 9 9 8 9 9 9 8 9 8 8 8 8 8 8 8 7 7 7 7 8 8
12 11 12 12 11 10 11 12 11 10 10 9 9 9 9 9 10 9 9 9 9 8 9 10 10 9 10 9 8 9 8 8 9 9 9 8 8 9 8 8 8 8 7 7 7 7 7 7 7
12 12 12 12 12 10 11 11 12 10 10 9 9 9 9 9 9 9 9 9 9 9 9 9 10 10 10 10 9 9 8 8 8 8 9 8 8 9 8 8 8 8 8 8 7 7 8 7 7
12 12 12 12 11 10 11 12 11 11 11 10 9 9 9 9 9 9 9 9 9 9 9 9 10 9 10 10 8 9 9 9 8 8 8 8 8 8 8 8 8 8 8 8 7 7 7 7 7
12 12 13 12 12 11 11 11 12 11 10 10 9 9 9 10 10 9 9 10 9 9 9 9 9 9 9 10 9 9 9 9 8 9 9 8 8 9 8 9 8 8 8 8 8 7 7 7 7
12 13 13 13 12 12 12 12 12 12 11 10 10 9 9 9 9 9 9 9 9 9 8 9 9 9 9 10 10 9 8 9 9 9 9 9 9 9 9 8 8 8 8 8 8 7 7 7 7
13 13 13 13 12 13 12 12 13 12 11 11 11 10 10 9 9 9 9 9 9 9 9 9 9 9 9 10 9 10 9 8 9 9 9 9 9 9 9 9 8 8 8 8 8 8 7 7 7
12 13 12 13 12 11 13 13 13 14 14 12 11 11 11 10 10 9 9 9 9 9 9 8 9 9 9 9 10 9 9 9 9 9 9 9 9 9 9 9 8 8 8 8 8 7 7 7 7
12 12 12 10 9 9 13 12 14 13 13 14 13 12 10 10 10 9 9 9 9 9 9 8 8 9 9 9 9 10 9 9 9 9 8 8 8 9 10 9 9 8 8 8 8 7 7 7 7
12 12 12 9 7 11 13 12 13 13 13 12 11 11 11 10 10 9 9 9 10 9 9 9 8 8 8 9 10 9 10 10 9 8 8 8 8 9 9 9 9 9 9 9 8 8 7 7 7
12 12 13 13 12 12 10 11 13 14 13 12 11 11 11 10 9 9 9 10 10 10 9 9 9 8 8 8 10 9 10 9 9 8 8 9 9 8 9 8 8 8 8 8 8 9 8 7 7
12 13 12 13 10 10 8 9 12 13 13 12 12 11 11 11 10 10 10 9 10 10 9 9 9 8 8 8 9 9 9 9 9 9 9 9 8 8 9 8 9 8 9 9 9 9 9 8 7
12 12 12 12 12 7 6 9 12 13 12 12 12 11 11 11 11 11 10 10 10 9 9 8 8 8 8 8 9 9 9 9 8 9 9 8 8 8 8 9 9 9 9 9 9 9 9 9 9
12 12 12 12 11 11 10 9 12 12 12 12 12 12 12 11 11 10 10 9 9 9 8 9 9 8 8 8 9 9 9 9 8 8 9 9 9 9 8 8 9 9 9 9 9 9 9 9 9

GFSSGP_700_temp_093.txt.gz
Temp
10 11 10 10 11 11 10 9 11 10 10 10 10 10 10 10 10 10 9 8 8 8 8 8 8 8 8 8 8 9 9 9 9 9 8 8 8 8 8 8 8 8 8 8 8 8 8 8 9
10 10 10 10 10 10 9 10 10 10 10 10 10 10 10 9 10 10 9 9 9 8 8 8 8 9 8 8 8 8 8 8 8 8 8 8 8 7 8 8 8 8 8 8 8 8 8 8 8
10 10 10 10 10 10 9 10 10 10 10 9 10 9 10 9 10 10 9 9 9 8 8 8 8 9 8 8 8 8 8 8 8 8 8 8 7 7 8 8 8 8 8 8 8 8 8 8 8
10 10 10 9 10 10 10 10 10 10 9 10 10 10 10 10 10 9 9 9 9 9 9 9 9 8 8 8 8 8 8 8 8 8 8 7 7 7 8 8 8 8 8 8 8 7 8 8 8
10 9 9 9 10 10 10 10 10 10 11 10 10 10 10 10 9 9 9 9 9 9 9 9 8 8 9 8 8 8 8 8 8 8 8 8 8 8 8 8 8 8 7 7 7 7 8 8 8
9 10 9 9 9 10 10 10 10 10 11 11 10 10 10 10 9 9 9 9 8 8 9 9 9 9 8 8 8 8 8 8 8 8 8 8 8 8 8 8 8 7 8 8 8 8 8 8 8
10 10 10 10 10 9 10 11 10 10 11 11 10 10 10 10 9 9 9 8 9 9 9 9 9 9 9 8 8 8 8 8 8 8 8 8 8 8 8 8 8 8 8 7 7 7 8 8 8
10 10 10 9 10 10 10 10 10 10 11 10 10 10 11 10 9 9 9 9 9 9 9 9 9 9 9 8 9 9 8 8 8 8 8 8 8 8 8 8 8 8 7 7 7 7 8 8 8
10 10 10 10 10 11 11 10 10 10 10 10 10 10 11 10 9 9 9 9 9 9 9 9 9 9 9 8 9 9 9 9 8 8 8 8 8 8 8 8 8 8 8 7 7 7 7 8 8
10 10 10 10 11 11 11 10 10 10 10 10 10 10 10 10 10 9 9 9 9 9 9 9 9 9 8 8 9 9 9 8 8 8 8 8 8 8 8 8 8 8 8 7 7 7 8 8 8
10 9 10 9 10 11 11 10 11 11 11 11 10 10 10 10 9 9 9 9 9 9 9 9 9 9 8 9 9 9 9 8 8 8 8 8 8 8 8 8 8 8 8 7 7 8 8 8 8
9 10 10 10 10 11 11 10 11 10 10 11 10 10 10 10 9 9 9 9 9 9 9 9 9 9 8 9 9 8 9 8 8 8 8 8 8 8 8 7 8 8 8 7 7 8 8 8 8
10 10 10 10 10 10 10 10 10 9 10 10 9 10 10 9 9 9 9 9 9 9 9 9 9 9 8 9 9 8 8 8 8 8 8 8 8 8 8 8 8 8 7 7 7 7 8 8 8
10 10 10 10 10 10 10 10 10 9 10 9 9 9 9 9 10 10 9 9 9 9 9 9 9 9 9 9 9 8 8 8 8 8 8 8 8 8 8 8 8 8 8 7 7 8 8 8 9
9 10 10 10 10 10 9 9 10 9 9 9 9 9 9 10 9 9 9 9 9 9 9 9 9 9 9 9 8 8 8 8 8 8 8 8 8 8 8 8 8 8 8 8 8 8 9 9 9
10 9 9 9 9 10 9 10 10 9 9 9 9 9 9 9 9 9 8 9 8 8 9 9 9 9 8 9 8 8 8 8 7 8 8 8 8 8 8 8 8 8 8 8 8 9 9 9 9
10 10 10 10 9 10 9 9 9 9 9 10 9 10 9 9 9 9 8 8 8 8 9 9 9 8 8 8 8 8 8 8 8 8 8 8 8 8 8 8 8 8 8 8 8 8 9 9 9
10 10 10 11 10 10 9 9 9 9 9 10 9 10 9 9 9 9 8 8 8 8 9 9 9 9 8 8 8 8 8 8 8 8 8 8 8 8 8 8 7 8 8 8 8 8 8 9 9
11 11 11 11 11 10 10 9 9 9 9 9 10 10 10 9 9 9 8 8 8 8 8 9 9 9 9 8 8 8 8 8 8 8 8 8 8 8 7 7 7 8 8 8 8 8 8 8 9
11 11 11 11 10 11 10 9 9 9 10 10 10 10 10 9 9 9 9 8 8 8 8 9 9 9 9 9 9 9 9 8 8 8 8 8 8 8 8 7 8 8 8 7 7 8 8 8 9
11 11 11 11 10 10 10 9 9 9 9 9 10 10 10 10 9 9 9 9 8 9 8 8 9 9 9 9 9 9 8 9 8 8 8 8 8 8 8 8 7 8 8 7 7 8 8 8 8
11 11 12 12 11 10 9 8 9 9 10 10 10 10 10 10 10 9 9 9 9 8 8 8 9 9 9 9 9 8 8 9 8 8 9 8 8 8 8 8 8 8 8 8 8 8 7 8 8
11 11 12 11 11 10 9 9 11 11 10 12 10 11 10 10 10 10 9 10 9 9 8 8 8 9 9 9 9 9 9 8 8 8 8 9 9 9 9 9 8 8 8 8 8 7 7 8 8
10 11 11 11 10 12 11 11 11 12 14 12 10 10 11 10 10 10 9 9 9 9 9 8 8 8 9 9 9 9 9 8 8 8 8 9 8 9 9 8 8 9 8 8 8 7 7 7 8
10 11 10 12 12 13 12 10 13 12 13 12 11 11 11 11 10 10 9 9 9 9 8 8 8 8 8 9 9 9 9 8 8 8 8 8 8 9 9 8 8 8 8 8 8 8 8 7 8
10 11 12 12 12 13 11 12 12 13 13 13 13 11 11 10 10 10 9 9 9 9 8 8 8 8 8 8 8 8 9 8 8 8 8 8 8 8 9 9 9 9 8 8 8 8 8 7 7
10 10 11 11 11 13 11 12 13 14 14 14 14 12 12 11 11 10 10 9 9 9 9 8 8 8 8 8 8 7 8 8 8 8 8 8 8 8 9 9 9 9 8 8 8 8 8 8 8
10 11 11 12 12 13 11 10 13 14 14 14 14 13 13 12 11 11 10 10 9 9 9 8 8 8 8 7 7 8 8 8 8 8 8 8 8 8 8 8 8 8 8 8 8 8 8 8 8
10 10 11 11 12 14 14 13 14 14 14 14 14 13 13 12 12 11 11 10 9 9 9 8 8 8 8 7 8 7 8 8 8 8 8 8 8 8 8 8 8 8 9 8 9 9 9 8 8
11 11 11 12 10 11 13 13 14 14 14 14 13 13 12 12 12 12 11 10 10 10 9 8 8 8 8 8 7 7 8 8 8 8 8 8 8 8 8 8 8 9 8 8 9 9 9 9 9

GFSSGP_700_temp_096.txt.gz
Temp
11 11 10 11 10 12 11 10 10 9 9 8 9 9 9 9 10 9 9 8 8 8 8 8 8 8 8 8 8 8 8 8 9 8 8 8 8 8 8 8 8 8 8 8 8 8 8 9 9
11 10 10 11 11 13 11 10 10 9 10 9 9 9 9 9 10 9 9 8 8 8 8 8 8 8 8 8 8 8 8 8 8 8 8 8 8 8 8 8 8 8 8 8 8 8 9 9 9
10 11 10 10 11 13 11 10 9 10 11 9 9 9 9 10 10 9 9 9 9 8 8 8 8 8 8 8 8 8 8 8 8 8 8 8 8 8 8 8 8 8 8 8 8 8 9 9 8
11 11 10 10 11 10 10 9 9 10 10 10 8 10 10 10 9 9 9 9 8 8 8 9 8 8 8 8 8 8 8 8 8 8 8 8 8 8 8 8 8 8 8 8 8 8 8 8 8
11 11 10 9 10 9 10 9 10 10 10 9 9 10 11 10 9 9 9 9 9 8 9 8 8 8 8 8 8 8 8 8 8 8 8 8 7 8 8 8 8 8 8 8 8 8 8 8 8
10 10 10 10 10 9 9 10 10 10 11 10 9 10 10 10 9 9 9 9 9 8 8 8 9 8 8 8 8 8 8 8 8 7 7 7 8 8 8 8 8 8 8 8 8 8 8 8 8
10 10 10 10 9 9 9 10 9 10 9 9 9 9 10 9 9 9 9 9 9 9 9 9 9 9 8 8 8 8 8 8 8 8 7 8 8 8 8 8 8 8 8 8 8 8 8 8 8
10 10 10 10 10 10 9 10 9 9 9 10 10 10 10 10 9 9 9 9 9 9 9 9 9 9 8 9 8 8 8 8 8 8 8 8 8 8 8 8 8 8 7 8 8 8 8 8 8
11 10 10 10 10 11 12 9 10 9 10 10 10 10 10 10 10 9 9 9 9 9 9 9 9 9 9 9 9 8 8 8 8 8 8 8 8 8 8 8 8 7 7 7 8 8 8 8 8
10 10 11 10 11 11 12 9 11 10 9 10 10 11 10 10 10 9 9 9 9 9 9 9 9 9 9 9 9 9 8 8 8 8 8 8 8 8 8 8 8 7 7 7 8 8 8 8 8
9 10 10 10 11 12 12 9 11 9 9 10 11 11 10 10 10 9 9 9 9 9 9 9 9 9 9 9 9 9 8 8 8 8 8 8 8 8 8 8 8 8 7 7 8 8 8 8 8
10 10 10 10 10 10 11 10 10 9 9 10 10 10 10 10 10 9 9 9 9 9 9 9 9 9 9 9 9 9 9 8 8 8 8 8 8 8 7 7 7 7 7 7 8 8 8 8 8
9 10 10 10 9 11 10 9 11 10 10 11 10 10 10 10 9 9 9 9 9 9 9 9 9 9 9 9 9 9 9 8 8 8 8 8 8 8 8 8 8 7 7 7 7 8 8 8 8
9 10 10 10 10 10 9 9 10 10 10 11 10 9 10 10 10 10 10 9 9 9 9 9 9 9 9 9 9 8 8 8 8 8 8 8 8 8 8 8 8 7 7 8 8 8 8 8 8
10 10 10 10 9 9 10 9 9 10 10 10 9 9 9 10 9 9 9 9 9 9 9 9 9 8 9 9 8 8 8 8 8 8 8 8 8 8 8 8 8 8 8 8 8 8 9 9 8
10 10 10 9 9 9 9 9 9 10 9 9 8 8 9 9 9 9 9 9 9 9 9 9 9 9 9 9 9 8 8 8 8 8 8 8 8 8 8 8 8 8 8 8 8 8 8 7 7
10 11 11 9 9 10 9 9 9 9 9 8 8 8 8 9 9 9 9 9 9 9 9 9 9 9 9 9 9 8 8 8 8 8 8 8 8 8 8 8 8 8 9 8 7 8 8 8 7
11 12 13 11 9 10 9 9 9 9 8 8 8 8 8 8 9 9 8 8 9 9 9 9 9 9 9 9 9 8 8 8 8 8 8 8 8 8 8 8 8 8 8 8 8 9 9 9 9
11 11 13 12 10 9 9 9 9 8 8 8 9 8 8 8 8 9 8 8 8 9 9 9 9 8 9 8 8 8 8 8 8 8 9 8 8 8 8 8 8 8 8 8 8 8 9 8 9
12 12 13 12 10 9 9 9 9 9 9 8 9 9 9 8 8 8 8 8 8 8 9 9 9 9 8 8 8 8 8 8 8 8 8 8 8 9 9 8 8 8 8 8 8 9 6 8 9
13 14 13 12 11 10 9 9 9 9 8 9 8 9 9 8 8 8 9 8 8 8 8 9 9 9 9 9 8 8 8 8 8 8 8 8 9 8 9 9 8 8 8 8 8 8 8 6 9
13 12 12 11 11 10 10 9 10 9 8 8 8 9 9 9 9 8 9 9 9 8 8 9 9 9 9 9 8 8 8 8 8 8 8 8 9 9 9 9 9 8 8 8 8 8 8 7 7
13 12 12 12 12 11 10 11 9 10 10 9 9 9 9 9 9 9 9 9 9 9 8 9 9 9 9 9 9 8 8 9 8 8 9 8 9 9 9 9 9 9 8 8 8 8 8 8 9
11 12 12 13 13 14 12 12 10 10 11 11 10 9 9 10 9 9 9 9 9 9 9 8 8 9 9 9 9 9 8 8 8 9 8 9 9 9 9 9 9 9 8 8 8 8 8 8 8
10 12 13 14 15 17 14 13 13 11 11 12 12 11 9 9 9 9 9 9 9 9 9 9 8 8 9 9 9 9 9 8 8 8 8 8 8 8 9 9 9 9 9 9 8 8 8 8 8
10 12 14 13 16 16 13 14 14 12 12 13 11 12 11 11 9 9 10 9 9 9 9 8 8 8 8 9 9 9 9 9 8 8 8 8 8 8 9 9 9 9 9 9 9 9 8 8 8
11 11 12 14 14 16 15 14 13 14 14 13 13 13 12 12 10 10 10 10 9 9 9 8 8 8 7 8 8 8 8 9 8 8 8 8 8 8 9 9 9 9 9 9 8 8 8 8 8
12 12 12 13 15 16 16 15 15 14 14 14 14 13 12 12 12 11 10 10 9 9 9 9 9 8 8 7 8 8 7 8 8 8 8 9 8 8 8 9 9 9 9 9 8 8 9 8 8
10 12 13 14 14 17 17 16 14 14 14 14 14 14 13 13 12 12 11 11 10 9 9 9 8 8 8 8 7 8 8 8 8 8 8 9 9 8 8 9 9 9 8 8 9 9 9 8 8
12 12 12 13 14 15 15 15 14 14 14 14 14 13 13 13 12 12 11 11 10 10 9 9 8 8 8 7 8 8 8 7 8 8 9 8 8 8 8 9 9 9 8 9 8 9 9 9 9

GFSSGP_700_temp_102.txt.gz
Temp
12 11 12 10 10 12 15 14 14 14 14 13 13 12 11 11 12 9 8 8 8 9 8 8 8 8 8 8 8 8 8 8 8 8 8 8 8 8 8 8 8 8 8 8 9 9 9 9 9
12 12 11 11 11 13 14 13 14 13 13 12 11 11 10 10 11 9 8 7 8 9 8 9 8 8 8 8 8 8 8 8 8 8 8 8 8 8 8 8 8 8 9 9 9 9 9 9 9
12 11 10 10 11 14 13 13 13 12 12 11 11 10 10 9 9 8 9 8 8 8 9 9 8 8 8 8 8 8 8 8 8 8 8 8 8 8 8 8 8 8 8 9 9 9 8 8 8
12 10 11 11 13 14 13 13 12 12 12 11 10 10 9 9 8 9 9 8 8 9 9 9 9 8 8 8 8 8 8 8 8 8 8 8 8 8 8 8 8 8 9 9 9 9 8 8 8
10 10 10 10 12 14 13 12 11 11 11 11 10 9 9 9 9 8 8 9 8 9 9 9 9 8 8 8 9 8 8 8 8 8 8 8 8 8 8 8 8 8 9 9 9 9 8 8 8
10 11 10 11 14 13 12 12 12 11 11 10 10 9 9 9 8 8 8 9 8 9 9 9 9 8 8 9 9 8 8 8 8 8 8 8 8 8 8 8 8 8 9 9 9 8 8 8 8
10 10 11 12 13 13 12 12 12 11 11 10 10 9 9 9 8 8 9 8 7 9 9 9 9 9 8 9 8 8 8 8 8 8 8 8 8 8 8 8 8 8 9 9 9 8 8 8 8
10 10 10 12 12 12 12 12 12 12 11 11 10 9 8 9 9 8 8 8 7 8 8 8 9 9 9 9 8 8 8 8 8 8 8 8 8 9 9 8 8 9 9 9 9 8 8 8 8
10 11 9 11 13 12 13 12 12 12 11 11 10 10 9 9 8 8 8 8 8 7 7 8 8 9 9 9 9 9 8 8 8 8 8 9 8 9 9 9 8 9 9 9 9 8 8 7 7
10 10 10 11 12 13 13 12 12 11 11 11 10 10 9 9 9 8 8 8 8 8 8 8 8 9 9 9 9 8 8 8 8 7 8 8 8 9 9 8 8 8 7 7 8 8 8 7 8
10 10 10 12 12 13 12 11 12 11 11 12 11 9 9 9 9 8 8 8 8 8 8 7 8 7 8 8 9 7 8 8 8 8 8 8 8 8 8 7 6 7 7 8 8 8 9 8 8
11 11 11 11 11 13 12 12 12 12 12 11 10 9 9 9 9 9 9 8 8 8 8 8 9 7 8 9 8 7 9 8 8 8 8 9 7 8 8 6 5 8 7 7 8 7 9 8 7
10 12 11 12 12 12 13 13 12 11 11 10 10 9 10 10 10 9 9 9 8 8 9 9 10 10 8 8 7 6 7 8 8 8 8 8 7 8 7 8 8 8 9 8 6 7 7 7 8
11 12 12 12 12 12 13 13 12 12 11 10 10 10 10 10 10 9 9 8 8 7 10 9 10 10 10 9 7 7 8 7 9 7 8 7 8 9 8 8 8 8 9 7 8 8 7 8 10
11 11 12 11 11 12 13 13 12 12 11 10 10 10 10 10 10 9 8 8 8 7 10 10 10 10 10 8 8 7 6 8 9 8 8 7 9 8 8 8 7 7 7 8 7 7 7 8 9
11 11 12 11 11 11 12 11 11 11 11 11 11 10 10 10 9 9 8 8 8 8 10 9 10 9 9 9 9 7 8 7 9 9 8 8 9 8 10 7 8 8 9 7 8 7 7 8 9
11 10 11 11 10 12 11 11 11 11 11 11 11 10 10 10 9 9 8 8 8 10 10 9 9 9 9 9 8 8 8 9 8 9 9 9 9 8 8 8 8 8 8 9 8 8 7 8 8
12 11 11 11 10 11 11 10 10 11 11 11 11 11 10 10 9 9 8 8 8 9 9 7 8 10 9 9 8 8 8 8 8 8 9 9 9 9 9 9 9 9 10 8 8 8 9 8 8
13 10 10 10 10 10 11 10 10 10 11 11 10 10 11 10 9 9 8 8 8 9 10 10 10 10 9 9 8 8 8 8 8 8 9 9 9 9 10 10 9 8 10 9 9 9 8 8 8
14 11 9 9 8 9 10 9 9 10 10 11 10 10 10 10 9 9 9 8 8 9 10 10 10 9 9 9 9 9 9 9 9 9 9 9 9 9 9 9 9 9 9 9 10 11 9 9 9
11 12 12 9 9 8 9 8 8 9 9 10 11 11 10 10 10 9 9 9 8 8 10 10 9 9 9 10 10 9 9 9 9 9 9 9 10 9 9 10 9 8 9 9 8 10 10 9 9
13 12 10 10 8 6 9 8 8 8 9 10 10 10 9 9 11 10 9 8 9 9 10 11 10 9 10 10 9 9 9 8 8 9 9 8 9 9 9 10 9 8 8 9 8 9 8 9 9
12 12 12 10 8 7 9 10 10 9 9 9 10 10 10 9 9 9 10 9 8 9 10 11 11 10 10 10 10 9 9 9 9 10 9 8 9 10 10 9 8 8 8 7 7 10 9 9 10
13 12 11 10 8 8 12 12 8 9 10 11 10 9 9 10 10 9 9 10 9 9 9 10 10 10 10 10 10 10 10 9 10 9 8 8 9 10 10 10 10 10 8 10 9 9 9 9 9
14 13 13 10 7 11 12 12 12 11 11 11 10 10 10 9 10 10 9 9 9 9 10 10 10 10 10 10 11 10 10 9 9 9 9 9 10 10 11 10 10 9 10 9 9 10 9 9 9
15 13 14 11 12 11 11 13 12 12 12 11 9 9 9 10 9 10 9 9 9 10 9 10 9 10 11 11 11 11 10 9 9 8 9 9 10 8 9 9 9 10 10 10 10 10 9 9 9
15 15 15 15 13 14 11 11 12 12 12 10 11 13 11 11 10 9 9 9 10 9 9 9 10 9 10 10 10 11 11 10 10 9 9 9 10 10 9 9 9 10 11 11 10 10 9 10 9
15 15 15 13 14 13 13 11 12 12 13 12 11 12 12 11 10 10 9 9 10 10 9 9 9 9 10 9 10 10 10 10 10 10 9 9 9 9 9 9 9 10 10 10 10 9 9 10 9
14 15 15 16 16 14 15 12 12 12 13 12 11 11 11 10 10 10 9 9 10 10 10 9 10 10 10 10 10 9 9 9 9 10 10 9 9 9 9 9 9 10 10 10 9 9 9 8 9
14 15 15 16 16 17 17 14 13 12 11 12 12 12 11 11 10 11 11 10 10 10 10 11 10 10 10 10 9 9 9 8 8 9 9 9 9 9 9 9 9 9 9 9 9 9 10 10 10

GFSSGP_700_temp_105.txt.gz
Temp
11 11 11 12 12 12 14 14 14 13 12 12 11 11 11 11 11 10 8 8 8 8 8 8 8 8 8 8 8 8 9 8 8 8 9 9 9 9 9 9 9 8 9 9 9 9 9 9 9
11 10 12 11 12 13 14 14 13 13 12 12 11 12 12 11 12 10 8 7 8 8 8 8 8 8 8 9 9 9 8 8 8 8 8 8 9 9 9 9 9 9 9 9 9 9 9 9 9
10 11 10 11 11 13 13 13 12 12 12 12 11 11 11 11 10 10 9 9 9 8 8 8 8 8 9 8 8 8 8 8 8 8 8 9 9 9 9 9 9 9 9 9 9 9 9 9 9
11 12 11 11 12 13 13 13 13 12 12 11 10 9 9 9 9 9 9 9 9 9 8 8 8 9 9 8 8 8 8 8 8 8 8 8 8 8 9 9 9 9 9 9 9 9 9 9 9
11 9 11 12 12 13 13 12 11 11 11 10 10 9 9 9 9 8 8 9 8 8 8 8 8 9 9 8 8 8 8 8 8 8 8 8 8 8 9 9 9 9 9 9 9 9 9 9 9
10 10 10 12 13 13 12 12 11 11 10 10 10 9 9 8 8 9 9 8 8 8 9 8 8 8 9 9 8 8 8 8 8 8 8 8 8 8 8 8 8 8 8 8 8 8 8 8 9
10 10 10 12 13 12 12 11 12 11 10 10 10 10 8 9 9 8 8 8 7 9 9 8 9 8 9 9 8 8 8 8 8 8 8 8 8 8 8 8 8 8 8 8 8 8 8 8 8
9 11 11 11 13 12 12 11 12 11 10 10 11 10 8 9 9 8 8 8 9 7 8 9 9 9 9 9 8 8 8 8 8 8 8 8 8 8 8 8 8 8 8 8 8 8 9 9 8
10 10 10 11 13 12 12 11 12 12 11 10 10 10 9 9 9 8 8 8 8 8 9 8 9 9 9 9 9 9 8 8 8 8 8 8 8 8 8 8 8 8 8 8 8 8 8 9 9
10 9 10 11 12 12 12 12 11 11 10 10 10 9 10 8 8 9 8 8 9 8 8 8 9 9 9 9 9 9 8 9 8 8 8 8 7 7 7 7 8 8 8 8 7 7 7 8 9
10 10 9 11 12 11 12 13 12 11 10 11 10 10 9 8 8 8 8 9 8 8 8 8 9 9 9 9 9 9 8 8 8 9 8 8 7 7 7 7 8 8 7 8 8 7 7 8 9
10 10 11 11 11 10 12 13 12 12 11 11 11 10 9 9 9 8 9 8 9 8 8 8 8 9 8 8 9 8 8 9 8 8 8 7 6 8 7 8 8 8 8 8 9 8 7 7 9
10 11 10 11 11 10 12 12 12 11 12 11 11 9 9 10 9 9 9 8 9 8 8 9 8 9 7 8 9 8 8 8 7 8 8 8 8 7 8 8 8 8 8 7 6 8 8 9 9
11 12 10 10 10 11 12 11 12 11 11 11 11 10 9 10 9 9 8 9 9 9 9 9 9 9 7 8 8 8 8 7 8 8 9 7 7 6 7 8 8 8 8 8 7 7 9 9 10
11 11 11 11 11 11 12 12 12 11 10 11 11 10 9 10 9 9 9 9 9 10 10 9 9 9 8 8 7 7 9 10 9 8 8 8 8 7 7 8 8 7 8 7 7 7 7 9 10
12 12 11 10 10 11 10 12 11 11 11 10 10 10 10 10 9 10 10 9 10 9 10 10 9 9 9 7 8 8 8 8 9 8 8 8 8 8 7 7 6 7 8 8 7 8 7 8 9
11 11 12 11 10 10 12 11 11 11 11 11 10 10 10 10 9 9 10 9 10 9 10 10 10 10 9 8 8 8 9 8 8 8 9 9 9 8 8 8 7 8 8 7 7 8 7 8 8
12 12 12 10 9 10 11 12 11 11 10 11 11 10 10 10 9 9 10 9 9 9 9 9 9 9 9 8 8 8 8 9 9 8 8 8 8 9 8 9 9 7 9 8 7 7 7 8 8
13 12 12 11 7 9 10 11 11 11 10 11 11 11 9 10 10 9 10 9 9 9 10 9 9 10 9 9 9 8 8 8 8 8 8 9 8 8 8 9 8 8 7 9 7 7 8 8 8
12 11 11 9 9 10 8 10 10 10 11 11 10 10 9 10 10 10 9 9 9 9 10 9 10 10 9 9 9 9 9 8 9 9 8 8 9 9 9 9 9 9 9 10 7 8 8 8 8
12 11 11 10 8 9 9 9 10 10 10 11 10 10 10 10 9 10 10 9 9 9 10 11 10 10 10 10 10 9 9 9 9 9 10 9 9 9 10 8 9 9 10 9 8 9 8 8 8
12 11 10 10 10 8 8 8 8 9 10 10 10 10 10 10 9 10 10 10 9 9 10 11 10 10 10 10 10 10 9 9 9 9 9 9 9 10 9 9 10 9 9 9 9 10 9 8 8
11 11 8 9 10 9 8 7 9 9 10 10 11 11 10 10 9 9 10 10 10 9 10 10 10 10 9 10 10 9 10 10 10 9 10 9 9 10 10 9 9 9 9 9 9 9 8 9 9
10 9 9 9 9 8 9 7 9 10 13 12 10 10 10 10 10 9 9 9 10 9 9 10 10 10 10 10 9 10 10 10 9 9 9 9 9 10 10 10 9 10 9 8 8 9 9 9 9
13 11 8 8 7 7 10 8 9 11 12 12 11 10 10 10 10 10 8 8 9 9 9 10 10 11 10 10 10 10 10 9 9 9 10 10 10 10 10 10 10 9 9 10 9 9 9 8 8
13 13 11 9 8 9 9 9 11 12 12 11 10 9 9 9 9 9 9 9 8 9 9 9 9 11 10 10 10 10 9 9 9 10 10 10 10 10 9 9 9 9 9 10 9 9 9 9 8
13 13 14 12 9 10 9 9 10 11 11 10 10 10 9 9 10 9 9 9 9 9 9 9 9 9 10 10 10 10 10 10 9 9 10 10 9 9 9 8 9 10 9 10 10 10 9 9 9
14 14 14 14 8 8 9 7 9 10 11 12 11 10 10 10 10 9 10 10 9 9 9 10 10 9 9 10 10 10 10 9 9 9 10 10 10 10 10 9 9 10 10 10 10 9 10 10 10
14 14 14 14 14 11 9 10 12 11 10 11 12 11 11 10 11 10 10 10 9 9 9 9 10 11 9 10 9 9 10 10 9 10 10 10 10 9 9 9 8 9 10 10 9 9 9 9 9
14 14 14 15 15 15 15 11 12 13 12 11 11 11 11 12 11 10 9 9 9 10 10 9 10 10 9 9 9 8 9 9 9 9 9 10 9 9 9 9 9 9 9 9 9 9 9 9 9

GFSSGP_700_temp_108.txt.gz
Temp
11 12 11 12 13 12 12 11 11 11 10 10 9 10 10 10 10 10 8 8 8 8 8 8 8 9 9 8 8 8 8 8 8 8 8 8 8 8 9 9 9 9 9 8 9 9 9 9 9
11 12 12 13 13 12 11 11 11 11 11 11 10 10 10 11 11 10 9 8 8 8 8 8 8 8 8 8 8 8 8 8 8 8 8 8 8 8 8 8 9 9 9 9 9 9 9 9 9
11 11 12 13 13 12 11 11 11 11 11 12 12 11 11 11 10 10 9 8 8 8 8 8 8 8 8 8 8 8 8 8 8 8 8 8 8 8 8 8 8 8 9 9 9 9 9 9 9
10 11 12 13 12 12 13 12 12 11 11 11 12 11 10 9 10 9 8 8 8 8 8 8 8 8 8 8 8 8 8 8 8 8 8 8 8 8 8 8 8 8 8 8 9 9 9 9 9
10 12 12 12 11 12 12 12 12 12 12 11 11 10 10 9 10 9 8 7 8 8 8 8 8 8 8 8 8 8 8 8 8 8 8 8 8 8 9 9 9 9 8 9 9 9 9 9 9
11 11 12 12 12 11 12 12 12 12 11 10 10 9 9 9 9 9 8 8 8 8 8 8 8 9 8 8 8 8 8 8 8 8 8 8 8 8 8 8 8 8 9 9 8 9 9 9 9
11 10 11 11 12 12 12 12 11 11 11 10 10 10 8 9 8 8 8 8 8 8 8 8 8 9 8 8 8 8 8 8 8 8 8 8 8 8 8 8 8 8 8 9 9 9 9 9 9
11 11 11 11 12 12 12 11 11 12 11 10 10 11 9 9 8 8 8 8 8 8 8 8 8 9 8 8 8 8 8 8 8 8 8 8 8 8 8 8 8 8 8 8 8 8 9 9 9
10 11 10 11 12 12 11 11 11 12 12 10 10 11 10 9 8 9 9 9 8 8 8 8 9 8 8 8 8 8 8 8 8 8 8 8 8 8 9 8 8 9 8 8 8 8 8 8 9
9 11 11 11 11 12 11 11 10 11 10 10 10 9 9 9 8 9 9 9 8 8 8 8 8 8 8 8 8 8 8 8 8 8 8 8 8 8 8 8 8 8 8 8 8 8 9 9 9
10 10 10 10 11 11 10 10 10 10 10 10 10 10 9 9 9 9 8 9 8 8 9 8 8 8 8 8 8 8 8 8 8 8 9 9 9 9 8 7 8 8 8 8 7 8 9 9 9
10 10 10 10 11 11 10 10 11 11 10 10 10 10 10 9 9 9 9 9 9 8 8 9 8 8 8 8 8 8 8 8 8 8 9 9 8 8 7 7 7 8 8 8 7 7 8 9 9
11 11 10 10 11 11 11 11 12 11 11 10 10 10 9 9 9 8 8 9 9 9 8 8 8 9 8 8 8 8 8 8 8 8 9 9 8 8 7 7 7 7 7 7 7 7 9 9 10
11 11 11 10 11 11 11 11 12 11 11 10 10 10 10 9 9 9 8 9 9 9 9 9 8 8 8 8 8 8 8 8 8 8 9 9 8 7 7 7 7 7 7 6 7 8 9 10 10
11 10 10 9 9 9 10 10 11 12 11 10 11 10 9 9 9 9 9 9 8 9 9 10 8 8 8 8 8 9 8 8 8 8 9 9 8 8 8 8 7 7 8 7 7 7 8 8 9
11 11 10 10 9 10 10 10 10 11 11 10 10 9 9 9 10 9 9 9 9 9 9 10 9 8 8 9 8 8 8 8 8 8 9 8 8 8 8 8 7 8 8 8 8 7 7 8 9
12 11 11 10 8 9 9 10 10 10 10 10 10 9 9 9 9 10 9 9 9 9 9 10 9 9 9 8 8 8 8 8 8 8 8 8 8 8 9 9 8 8 8 8 7 8 7 7 9
12 12 11 9 8 9 9 9 10 10 11 11 10 9 9 9 10 10 9 9 9 9 9 9 10 9 10 8 8 9 8 8 8 8 8 8 8 8 9 8 8 8 7 7 7 8 8 8 9
11 11 10 9 9 9 9 9 10 10 10 10 10 10 9 9 10 10 10 10 10 9 9 9 10 9 9 8 8 8 8 8 8 8 9 8 8 9 9 8 8 8 8 7 7 8 8 7 9
11 10 10 9 9 9 9 8 9 9 10 10 10 10 10 10 10 10 10 10 9 9 9 9 9 9 9 9 9 9 9 9 9 9 9 9 9 9 8 9 8 8 8 8 8 8 8 9 9
11 11 10 9 9 8 8 8 8 9 9 10 10 10 10 9 10 10 10 10 10 9 9 10 9 9 9 9 9 9 9 9 9 9 9 9 9 9 9 9 9 9 9 8 9 9 8 9 8
11 10 11 10 8 9 8 9 9 8 9 10 10 10 10 10 9 10 10 10 10 9 10 10 10 10 9 10 9 9 9 9 9 9 9 9 9 9 10 9 9 9 9 9 9 9 9 9 9
11 10 12 10 8 7 7 8 8 9 9 10 10 10 10 10 9 9 10 10 10 9 9 10 10 10 10 9 9 9 9 10 9 9 9 9 9 9 10 9 9 9 9 9 9 8 8 9 9
11 11 10 10 8 7 8 9 8 8 10 10 10 9 9 10 9 10 10 9 9 9 9 10 10 9 10 10 9 9 10 9 9 9 9 9 10 10 10 10 9 9 9 9 9 9 8 9 9
11 12 8 8 7 8 8 7 10 9 9 10 10 10 9 9 10 10 10 9 9 9 9 9 10 10 10 10 10 10 10 9 9 10 9 10 9 9 10 10 10 9 10 9 9 9 8 9 9
12 13 11 9 7 9 8 8 11 10 10 10 10 9 10 9 9 10 9 10 10 9 9 8 9 10 10 10 10 10 9 9 10 10 10 10 10 9 10 10 10 10 10 9 9 9 9 9 9
10 12 13 11 9 9 8 8 10 10 11 12 12 10 9 9 9 9 9 10 10 9 9 8 9 10 10 10 10 10 10 10 10 10 9 9 10 10 10 10 9 9 10 10 10 9 8 9 9
14 14 12 12 7 8 7 9 10 11 11 11 11 11 10 9 9 9 9 10 10 9 9 8 8 9 10 10 10 10 11 10 10 10 10 9 9 10 10 10 10 10 10 10 10 10 9 9 8
13 14 13 13 13 8 7 9 14 14 13 12 11 10 10 9 9 10 10 10 10 9 10 9 9 9 10 10 9 10 10 10 10 10 10 10 9 9 9 10 9 10 10 10 10 10 10 9 9
14 14 14 13 13 13 13 13 15 15 14 13 12 12 11 11 10 9 10 10 10 9 10 10 10 9 9 9 9 8 9 9 9 9 9 9 9 9 10 9 9 9 9 9 9 10 9 9 9

GFSSGP_700_temp_111.txt.gz
Temp
11 11 11 11 12 11 11 11 11 11 10 10 10 10 10 9 10 9 8 8 7 7 7 7 7 6 7 7 7 8 8 8 8 8 8 8 8 8 8 8 8 9 9 9 9 9 9 9 9
12 12 12 12 12 11 11 11 11 12 11 10 10 9 10 10 10 10 9 8 8 7 7 7 7 8 8 8 8 8 8 8 8 8 8 8 8 8 8 8 9 9 9 9 9 9 9 9 9
12 12 12 12 11 10 10 11 11 11 11 11 10 9 10 10 9 9 9 8 8 8 8 8 8 8 8 8 8 8 8 8 8 8 8 8 8 8 9 9 9 9 9 9 9 9 8 8 8
12 12 13 12 11 10 11 10 11 11 10 10 11 10 10 9 9 9 9 8 8 8 8 7 8 8 8 8 8 8 8 8 8 8 8 8 8 8 8 8 8 8 9 9 8 8 8 8 9
12 12 13 12 12 11 10 11 11 12 12 11 10 10 10 9 9 9 9 8 7 8 8 8 8 8 8 8 8 8 8 8 8 8 8 8 8 8 8 8 8 8 8 8 8 8 8 8 9
11 12 11 11 12 11 10 11 11 12 12 11 10 10 10 9 8 9 9 8 8 7 8 8 8 8 8 8 8 8 8 8 8 8 8 8 8 8 8 8 8 9 9 9 8 9 8 8 8
10 12 12 11 11 11 11 11 12 12 12 11 10 11 9 8 8 9 9 9 8 8 8 8 8 8 8 8 8 8 8 8 8 8 8 8 8 8 8 8 8 8 9 9 8 9 9 8 8
10 11 11 11 11 10 11 11 12 12 11 11 10 11 10 9 8 8 8 8 8 8 8 8 8 8 8 8 8 8 8 8 8 8 8 8 8 8 8 8 8 8 8 8 8 8 8 8 9
11 11 11 11 11 11 10 11 11 11 11 10 10 10 10 9 9 8 8 8 8 8 8 8 8 8 8 8 8 8 8 8 8 8 8 8 8 8 8 8 8 9 9 8 8 8 8 8 9
11 11 11 11 11 11 10 11 11 10 10 10 10 10 9 9 9 8 8 8 8 9 9 8 8 8 8 8 8 8 8 8 8 8 8 8 8 8 8 8 8 8 8 8 8 8 8 9 9
11 11 10 10 10 11 10 10 11 10 10 11 11 10 10 9 8 8 8 8 8 9 9 9 8 8 8 8 8 8 8 8 8 8 8 8 7 8 7 7 7 7 7 7 8 8 9 9 9
10 10 10 9 10 11 11 10 10 10 11 10 10 10 9 9 9 8 9 8 8 9 9 9 8 8 8 8 8 8 8 8 8 8 8 7 7 7 7 7 7 7 7 7 8 8 9 9 9
10 10 10 9 10 10 11 10 10 10 10 10 10 10 10 9 8 8 8 8 8 9 9 9 9 9 8 8 8 8 8 8 8 7 7 8 7 7 7 7 8 7 7 7 7 9 9 9 9
10 10 10 10 10 10 10 9 9 10 10 10 10 10 10 10 9 8 8 9 8 9 8 9 9 9 8 8 8 8 8 8 8 7 7 7 7 7 7 8 7 8 8 8 8 9 9 9 9
10 10 10 10 9 10 10 9 10 11 10 10 10 10 10 10 9 9 8 8 9 9 9 9 8 8 8 8 8 8 8 8 7 8 8 7 8 7 8 8 7 7 8 8 8 9 9 9 9
10 11 10 10 9 9 9 10 10 10 11 10 10 9 9 10 10 9 9 9 9 9 9 9 9 8 9 9 8 8 8 8 8 8 7 8 8 8 8 7 7 7 7 8 8 8 9 9 9
11 11 10 8 9 8 8 10 10 10 11 10 10 9 9 9 9 8 9 9 9 9 9 9 9 9 8 9 8 8 9 8 8 8 8 8 8 8 8 7 7 8 7 8 8 9 8 9 8
11 10 9 8 9 8 8 9 10 10 9 10 10 9 9 9 10 9 9 9 9 9 9 9 10 10 9 9 9 9 8 9 9 9 8 8 8 8 8 8 7 8 8 8 8 9 9 8 9
11 10 10 8 9 8 7 8 8 8 9 9 10 9 9 9 10 9 9 9 9 9 9 10 10 10 9 9 9 8 8 9 8 9 9 9 8 8 9 8 9 9 9 9 8 9 9 9 9
11 10 10 9 9 8 8 9 7 8 8 9 9 9 9 9 9 9 9 9 9 9 9 9 10 10 9 9 9 8 9 8 8 9 9 9 9 9 8 8 8 8 8 9 9 9 9 9 9
10 10 10 10 9 8 8 8 8 8 9 9 9 9 9 10 10 9 10 10 9 9 9 9 9 10 9 9 8 8 8 8 8 8 9 9 9 9 9 9 9 8 9 9 9 9 9 9 9
10 10 11 11 9 8 7 7 8 8 8 9 9 9 9 10 10 10 10 10 9 9 9 10 10 10 10 9 9 9 8 9 9 9 9 9 9 9 8 9 9 9 9 9 8 9 8 9 9
10 10 10 10 10 8 7 7 8 9 9 9 9 9 9 10 10 10 10 10 9 9 9 10 10 10 10 10 9 9 9 9 9 8 9 9 9 9 9 9 9 9 9 9 9 9 9 8 9
11 10 9 9 10 8 8 8 10 10 10 10 9 9 9 9 10 10 10 9 9 9 9 10 10 9 10 10 10 9 9 9 8 9 9 9 9 9 9 9 9 9 9 10 10 9 9 8 8
10 10 9 8 8 8 8 7 10 10 10 9 9 8 9 9 9 10 10 10 9 9 9 9 10 10 9 10 10 10 9 9 9 9 9 9 9 9 9 9 9 9 9 9 9 9 9 9 8
10 11 11 8 7 8 7 9 11 9 8 9 9 9 8 9 9 10 10 10 9 9 8 9 9 10 10 10 10 10 9 9 9 9 9 9 9 9 9 9 9 9 9 9 9 9 9 9 9
11 10 11 11 8 8 8 11 10 10 8 8 9 8 8 8 9 10 10 10 10 9 9 8 8 9 10 10 10 10 10 9 9 9 9 9 9 9 9 9 9 9 9 9 9 9 9 9 9
11 12 11 11 7 7 8 9 11 11 11 11 11 11 10 9 9 9 9 10 10 10 9 8 8 8 9 10 10 10 10 9 9 9 9 9 9 9 9 9 9 9 9 9 9 9 9 9 9
11 11 12 12 12 7 6 11 14 13 13 13 12 11 11 10 10 9 9 10 10 10 10 9 8 8 9 9 9 9 10 10 10 10 9 9 9 9 9 9 9 9 9 9 9 9 9 9 9
12 11 12 13 12 11 11 13 15 14 13 12 12 11 10 9 9 10 9 9 10 10 10 9 9 9 8 9 9 9 9 9 9 9 9 9 9 9 9 9 9 9 8 9 9 9 9 9 9

GFSSGP_700_temp_114.txt.gz
Temp
11 11 11 11 12 12 11 10 10 10 10 10 10 10 10 10 9 9 8 7 7 7 6 6 6 6 7 7 7 7 8 8 8 9 8 8 8 8 8 8 8 8 8 8 8 8 9 9 9
11 11 12 12 12 12 11 11 11 11 10 10 10 10 9 10 9 9 8 8 7 7 6 7 7 7 7 7 8 8 8 8 8 8 8 8 8 8 8 8 8 8 8 8 8 8 8 8 8
11 12 12 11 12 12 11 11 11 10 11 11 10 10 9 9 9 9 8 8 7 7 7 7 7 7 7 7 8 8 8 8 8 8 7 8 8 8 8 8 9 9 8 8 8 8 8 8 8
12 12 12 11 11 11 12 11 11 11 10 10 10 10 9 8 9 8 8 8 8 8 7 7 7 8 8 8 8 8 8 8 8 8 8 8 8 8 8 8 8 8 8 8 8 8 8 8 8
12 12 11 11 11 11 11 11 11 11 11 10 10 10 10 9 8 8 8 8 8 8 8 7 8 8 8 8 8 7 8 8 8 8 8 8 8 8 8 8 8 8 8 8 8 8 8 8 8
12 12 11 11 11 11 11 11 11 11 10 10 10 10 10 8 8 9 8 8 8 8 8 8 7 8 8 8 8 8 8 7 8 8 8 8 8 8 8 8 8 8 8 8 8 8 8 9 8
11 11 11 11 11 10 11 11 11 11 10 10 10 10 10 9 8 9 9 9 8 8 8 8 8 7 8 8 8 8 8 8 8 8 8 8 8 8 8 8 8 8 8 8 8 8 8 9 8
10 11 11 11 11 10 10 10 10 10 11 10 9 10 11 10 9 9 9 9 9 8 8 8 8 8 8 8 8 8 8 8 8 8 8 8 8 8 8 8 9 8 8 8 8 8 9 9 9
10 10 11 11 10 11 10 10 10 10 11 10 10 10 10 10 9 9 9 9 9 9 9 8 8 8 8 8 8 8 8 8 8 8 8 8 8 8 8 8 8 8 8 8 8 8 9 9 9
11 11 10 10 10 10 10 10 11 11 11 11 11 10 9 9 9 9 9 9 9 9 9 9 8 8 8 8 8 8 8 8 8 8 8 8 8 8 8 8 8 8 8 8 8 9 9 9 9
10 10 11 10 10 10 10 10 10 11 11 11 10 10 10 9 9 9 9 9 9 9 9 8 8 8 8 8 8 8 8 8 8 8 8 8 7 8 8 8 8 8 8 8 8 9 9 9 9
10 10 10 9 8 9 10 10 10 11 11 10 10 10 10 10 9 9 8 9 9 9 9 9 8 8 8 8 8 7 8 8 7 7 7 7 7 7 7 8 8 8 8 9 9 9 9 9 9
11 10 9 10 9 9 9 10 11 11 10 10 10 10 9 9 8 8 9 8 9 9 9 9 9 8 8 8 8 8 8 8 7 7 7 7 8 8 8 8 8 8 8 9 9 9 9 9 9
10 10 10 9 9 9 10 9 10 11 10 10 10 10 9 9 8 8 9 9 9 9 9 9 9 9 8 8 8 7 8 7 7 7 7 7 8 8 7 8 8 8 7 9 9 9 9 9 10
10 10 9 9 9 9 9 10 10 10 10 9 10 10 9 9 9 9 9 9 9 9 9 9 9 9 9 8 8 8 7 7 7 7 7 7 7 7 7 7 7 8 8 8 9 9 9 9 10
10 10 10 10 9 9 9 9 10 10 10 10 10 10 10 10 9 9 9 8 9 10 9 9 9 9 9 8 8 8 8 7 7 7 7 7 7 7 7 6 7 7 8 8 9 9 9 9 10
10 10 10 9 9 8 8 9 9 10 9 10 10 10 10 10 9 9 8 8 8 10 9 9 8 8 8 8 8 8 8 8 7 7 7 8 8 7 7 7 7 7 8 8 9 9 9 9 10
10 10 10 10 9 9 8 9 8 9 8 9 10 10 10 10 10 9 9 9 9 9 10 9 8 8 8 8 9 9 9 8 8 8 8 7 8 7 7 7 7 7 8 9 9 10 9 9 10
10 10 10 10 10 10 10 8 9 9 9 8 9 10 10 11 9 9 8 9 9 9 10 10 9 9 9 9 9 9 9 8 8 8 8 8 8 8 8 7 7 8 8 9 9 9 9 10 10
10 10 10 10 10 9 8 9 9 8 8 8 8 9 9 10 9 9 9 9 9 9 9 10 9 9 9 9 9 9 9 9 9 9 8 8 8 8 8 7 7 8 8 9 9 9 9 10 10
10 10 10 10 9 9 8 8 9 8 8 8 8 9 9 10 9 9 9 9 9 9 9 9 9 9 9 9 9 9 9 9 9 9 9 8 8 8 8 8 9 8 9 9 9 9 10 10 10
10 10 10 10 10 9 8 8 7 9 9 8 8 8 9 9 9 9 9 9 9 8 9 9 9 9 9 9 9 9 8 8 9 9 9 9 9 8 9 9 9 9 9 9 9 9 10 10 9
10 10 10 9 9 8 7 8 8 8 8 9 8 8 9 9 9 10 10 10 9 8 9 9 9 9 9 9 9 9 9 9 9 9 9 9 9 9 9 8 8 9 9 9 9 9 9 10 10
11 10 10 9 7 6 8 8 8 9 9 9 9 9 9 10 9 10 10 9 9 8 9 10 10 9 9 8 9 9 9 9 9 9 9 9 9 9 9 9 9 9 9 10 10 9 9 9 9
10 10 7 7 6 7 8 7 10 10 10 10 10 9 9 10 10 9 9 9 9 9 8 9 10 10 9 9 9 9 9 9 8 9 9 9 9 9 9 9 9 9 9 9 9 9 9 9 9
10 10 10 7 5 7 7 8 12 11 11 10 10 9 9 9 10 9 9 9 9 9 8 9 9 10 10 9 9 9 8 8 8 9 9 9 9 8 9 9 9 9 9 9 9 9 9 9 9
9 9 10 10 8 8 9 10 11 10 10 10 9 9 9 9 10 10 9 9 9 9 9 9 9 9 9 9 9 9 8 8 9 9 9 9 8 9 9 9 9 9 9 9 9 9 9 9 9
10 10 10 10 6 7 9 10 12 11 10 9 8 9 10 9 10 10 10 9 9 9 9 8 8 8 9 9 9 9 8 8 8 8 8 8 9 9 9 9 9 9 9 9 9 9 9 9 9
9 10 10 10 10 6 7 12 14 13 12 12 11 11 10 9 10 10 10 10 9 9 9 9 9 8 9 9 9 9 9 9 9 8 8 9 8 8 9 9 9 8 8 9 9 9 9 9 9
10 10 11 11 11 10 10 12 13 13 12 12 11 11 11 11 11 10 10 10 9 9 9 9 9 9 8 8 8 9 9 10 9 9 9 9 8 8 8 8 8 8 8 8 9 9 9 9 9

GFSSGP_700_temp_117.txt.gz
Temp
11 11 11 11 12 11 10 10 10 10 10 10 10 10 9 9 9 9 8 7 7 6 7 7 7 7 7 7 7 7 8 8 8 8 8 8 8 8 8 8 8 8 8 8 8 9 8 9 8
11 11 11 12 12 11 11 11 11 10 11 11 10 9 9 9 9 9 8 8 7 7 6 7 7 7 7 7 7 7 8 8 8 8 8 8 8 8 8 8 8 8 8 8 8 8 8 9 8
11 11 12 12 12 11 11 11 11 10 10 10 10 9 9 9 9 9 8 8 7 7 7 7 7 7 7 7 7 7 8 8 8 8 7 8 8 8 8 8 8 8 8 8 8 8 8 8 9
11 11 12 12 12 12 12 12 11 11 10 10 9 10 10 9 8 8 8 8 8 7 7 7 7 7 7 7 8 8 8 8 8 8 8 8 8 8 9 8 8 8 8 8 8 8 8 8 8
11 11 12 11 12 12 11 11 11 11 10 9 9 9 10 9 8 8 8 8 8 7 7 7 7 7 8 8 8 8 8 8 8 8 8 8 8 8 8 8 8 8 8 8 8 8 8 9 9
11 11 11 11 12 11 11 11 11 10 10 10 9 10 10 9 9 8 8 8 8 8 8 8 8 8 8 7 8 8 8 8 8 8 8 8 8 8 8 8 8 8 8 8 8 8 9 9 9
12 11 11 11 11 11 11 11 10 10 10 10 9 9 10 9 9 8 8 8 8 8 8 8 8 8 8 8 8 8 8 8 8 8 8 8 8 8 8 8 8 8 8 8 9 9 9 9 9
11 11 11 11 11 11 11 10 10 10 10 10 9 10 10 10 10 9 9 8 8 8 8 8 8 8 8 8 8 8 8 8 8 8 8 8 8 8 8 8 8 8 8 8 9 9 9 10 10
10 10 10 10 10 11 10 10 10 10 11 10 9 9 10 10 9 9 9 9 9 9 9 8 8 7 8 7 7 8 8 8 8 8 8 8 8 8 8 8 8 8 8 9 9 9 9 10 9
10 10 10 10 10 10 10 10 10 10 11 10 10 9 10 9 9 9 9 9 9 9 9 8 8 8 8 8 8 8 8 8 7 8 8 8 8 8 8 8 8 8 8 9 9 9 10 9 9
10 10 10 10 9 9 10 9 9 10 11 10 10 10 10 10 10 9 10 9 9 9 9 8 8 8 8 8 8 8 8 7 7 7 8 8 8 8 8 8 8 8 8 9 9 10 10 9 9
10 10 10 10 10 9 9 10 10 10 10 10 9 9 10 10 9 9 9 10 10 9 9 9 9 8 8 8 8 8 8 7 7 7 7 8 8 8 8 8 8 8 9 9 9 10 9 9 9
10 10 10 9 9 8 9 9 10 10 10 10 10 9 9 9 10 9 9 10 10 9 9 9 9 9 8 8 8 8 8 8 8 8 7 8 7 8 8 8 8 8 9 9 9 10 9 10 10
10 10 10 10 9 9 9 9 10 10 10 10 10 9 9 9 9 9 9 9 10 9 9 9 9 9 8 8 8 8 8 8 8 8 7 7 7 7 8 8 8 8 8 9 9 10 9 9 10
10 10 10 10 9 9 9 9 10 10 10 9 10 9 9 10 9 9 9 9 9 9 9 9 9 9 8 8 8 8 8 8 7 7 7 7 7 7 8 8 7 7 8 9 9 9 9 9 10
10 10 10 10 9 9 9 10 9 10 10 10 10 10 9 9 9 9 8 9 9 9 9 9 9 9 8 8 8 8 8 7 8 8 7 8 7 7 7 7 7 8 8 9 9 9 9 10 9
10 10 10 10 10 10 10 9 8 9 10 10 10 10 9 9 9 9 8 9 9 9 9 9 8 8 8 8 8 8 8 8 8 8 7 7 7 7 7 7 7 7 8 9 9 9 10 10 9
10 10 10 10 10 9 9 10 9 9 10 10 9 10 10 10 10 9 9 9 9 9 9 8 8 8 8 8 8 8 8 8 8 8 8 8 7 7 7 7 7 7 8 8 9 9 10 10 10
10 10 10 10 10 9 8 9 9 9 10 10 9 9 10 10 9 9 9 9 8 9 9 9 9 8 8 8 8 8 8 8 8 8 8 8 8 7 7 7 7 7 8 8 9 9 10 10 10
10 10 11 10 10 9 9 9 8 9 9 10 9 9 9 9 9 9 9 9 9 9 9 9 9 9 8 8 8 8 9 9 9 9 8 8 8 8 8 8 8 7 8 8 9 9 9 10 10
10 10 11 10 10 9 9 9 8 9 8 9 9 9 9 9 10 10 9 9 9 9 9 9 9 8 8 8 8 9 9 8 8 8 8 8 8 8 8 8 8 8 8 8 9 9 9 10 10
9 10 10 10 9 8 8 10 9 10 10 9 9 10 10 9 9 9 9 9 9 9 9 9 9 9 8 8 8 8 8 8 8 8 9 8 8 8 8 8 8 8 8 9 9 9 9 9 10
10 10 10 10 9 8 8 7 10 9 8 9 10 10 10 10 9 9 9 9 9 9 9 9 9 9 8 8 8 8 8 8 8 9 9 9 9 9 8 9 9 9 9 9 9 9 9 9 9
10 10 10 9 9 8 9 8 10 10 11 12 11 11 10 11 9 10 10 9 9 9 9 10 9 9 9 8 8 8 8 8 8 9 8 9 9 9 9 9 9 9 9 9 9 9 9 9 9
10 10 10 10 9 11 9 7 11 11 11 11 10 11 12 11 10 9 9 9 9 9 10 10 10 10 9 9 8 8 8 8 8 8 9 9 9 9 9 9 9 9 9 9 9 9 9 9 9
11 10 11 11 11 10 7 8 12 12 11 10 9 10 12 12 10 9 10 9 9 9 9 10 10 10 10 9 8 8 8 8 8 8 8 8 8 9 9 10 10 9 9 9 9 9 9 9 10
9 9 10 9 9 10 10 11 12 12 11 11 10 10 13 12 11 10 10 9 9 9 9 10 10 10 9 9 9 9 9 8 8 8 8 8 8 8 8 9 9 10 9 9 9 9 9 9 9
9 9 9 9 11 11 11 10 12 13 12 11 11 11 11 12 11 10 10 10 9 9 9 9 9 9 9 9 9 9 9 8 8 9 8 8 9 9 9 9 9 9 9 9 9 9 9 9 9
9 9 9 10 10 12 12 13 12 13 13 12 10 10 10 11 12 10 9 10 9 9 9 9 9 9 9 9 9 9 9 9 9 8 9 9 9 9 9 9 9 9 9 9 9 9 9 9 10
10 9 9 11 10 10 10 12 12 13 13 12 11 10 10 10 10 10 9 9 9 9 9 8 9 8 9 9 9 9 9 9 9 9 9 9 9 9 9 9 9 9 9 9 9 9 9 9 9

GFSSGP_700_temp_120.txt.gz
Temp
11 11 11 12 11 13 13 12 11 10 10 9 9 9 9 9 9 8 8 7 7 7 7 7 7 7 6 6 7 7 8 8 8 8 8 8 8 8 8 8 8 8 9 8 8 8 8 8 8
11 11 12 12 13 15 13 12 11 10 9 9 9 9 9 9 10 9 8 7 7 7 7 7 7 7 7 7 7 8 8 8 8 8 8 8 8 8 8 9 8 8 8 9 9 9 9 9 9
11 11 12 12 13 14 13 11 11 10 10 9 9 9 8 9 9 9 8 8 7 7 7 7 7 7 8 8 8 8 8 8 8 8 8 8 8 8 9 8 8 8 8 9 9 9 9 9 9
11 11 12 11 13 12 12 11 11 11 9 10 9 10 10 9 8 9 8 8 7 7 7 7 7 8 8 8 8 8 8 8 8 8 8 8 9 9 8 8 8 8 8 8 9 9 9 9 9
11 12 11 11 12 11 11 10 10 9 9 9 9 9 9 9 8 8 8 8 7 7 8 8 8 8 8 7 7 8 8 8 8 8 8 8 8 9 9 9 8 9 9 9 9 9 9 9 9
10 11 12 11 12 11 10 11 10 9 10 9 9 9 9 9 9 8 8 8 7 8 8 8 8 8 8 7 7 8 8 8 8 8 8 8 8 8 9 9 9 9 9 9 9 9 9 9 9
10 11 12 13 12 11 10 10 10 10 9 9 8 8 9 8 8 8 8 8 8 8 8 8 8 8 8 7 7 7 8 8 8 8 8 8 8 8 9 9 9 9 9 9 9 9 10 9 9
11 10 11 12 12 11 11 10 10 9 9 10 9 9 9 10 9 8 8 8 8 8 8 8 8 8 8 8 7 7 8 8 8 8 8 8 8 9 9 9 9 9 9 9 9 9 9 9 9
11 11 12 12 12 10 11 10 10 10 10 9 9 8 9 10 9 9 9 9 9 8 8 8 8 8 8 8 8 8 7 8 8 8 8 8 8 8 8 9 9 9 9 9 9 9 9 9 9
10 11 11 11 11 10 10 10 10 10 9 10 10 10 10 9 9 9 9 9 9 9 9 8 8 8 8 8 8 8 8 8 8 8 8 8 8 8 8 8 9 9 9 9 9 9 9 9 9
11 10 11 11 10 10 10 10 10 9 9 9 10 10 10 10 9 9 8 9 9 9 9 8 8 8 8 8 8 8 8 8 8 8 8 8 8 8 8 8 8 9 8 9 9 9 9 9 9
10 10 10 10 10 9 10 9 9 9 9 9 10 10 9 9 10 9 9 9 9 9 9 9 9 8 8 8 8 8 7 8 8 8 8 8 8 8 8 8 8 8 8 9 9 9 9 9 9
10 10 10 10 10 9 9 10 9 10 10 10 10 9 9 9 10 10 9 9 9 9 9 9 9 9 8 8 8 8 8 8 8 8 8 8 8 8 8 8 8 8 8 9 9 9 9 9 10
9 10 10 10 9 9 9 9 9 9 10 10 10 9 9 8 9 10 10 9 9 9 9 9 9 9 8 8 8 8 8 8 8 8 8 7 7 8 8 8 8 8 8 8 9 9 9 9 10
10 10 11 11 9 10 10 9 10 9 10 10 10 9 9 7 8 9 10 10 10 9 9 9 9 9 9 8 8 8 8 8 8 8 7 7 8 8 8 8 8 8 8 9 9 9 9 9 10
10 10 10 11 9 9 10 9 9 9 9 10 9 8 9 8 7 9 9 9 10 9 9 9 9 9 9 8 8 8 8 8 8 8 8 8 8 8 8 7 7 8 9 9 9 9 9 10 10
10 13 11 11 10 9 10 10 10 10 8 9 10 8 8 8 8 9 9 9 9 10 9 9 9 9 8 8 8 8 8 8 8 8 8 8 7 8 7 8 8 8 9 9 8 9 10 10 10
13 12 11 11 11 10 9 9 10 9 9 9 9 9 8 8 9 9 8 9 10 10 9 9 9 8 8 9 8 8 8 8 8 8 8 7 8 8 8 8 8 9 9 9 9 9 10 10 10
11 12 12 9 11 10 9 9 9 10 10 9 9 9 9 9 8 8 7 8 9 10 10 9 9 9 8 8 8 8 8 8 8 8 8 8 8 8 8 8 8 8 8 9 9 9 9 9 10
11 12 12 10 11 10 9 9 10 10 10 9 9 10 9 9 8 8 8 7 9 9 10 9 9 9 8 8 8 8 8 9 8 8 8 8 8 8 8 8 8 8 8 9 9 9 7 9 10
11 12 12 11 10 10 9 9 8 10 10 10 9 9 9 9 9 9 9 8 9 9 10 10 9 9 9 8 8 8 9 8 8 8 8 8 8 8 8 8 8 9 8 9 9 9 9 7 10
12 11 11 10 10 12 10 14 10 9 10 10 10 10 10 8 8 8 9 9 9 9 9 10 10 9 9 8 8 8 8 8 8 8 8 8 8 8 9 8 8 9 9 9 9 9 9 9 9
12 10 11 10 10 10 10 10 14 10 10 11 10 11 10 10 9 9 8 9 9 9 9 10 10 10 9 9 9 8 8 8 8 8 8 8 8 9 9 9 9 9 9 9 9 9 9 9 9
10 10 10 10 10 12 13 11 14 11 11 11 11 11 11 9 9 9 9 8 9 8 9 10 10 10 10 10 9 8 8 8 8 8 8 9 9 9 9 9 9 9 9 9 9 9 9 9 9
10 11 13 13 13 15 11 12 13 12 12 11 10 11 11 9 9 9 9 8 9 9 9 10 10 10 10 10 9 9 8 8 9 8 8 8 9 9 9 9 9 10 9 9 9 10 10 9 9
10 12 14 14 16 16 10 13 14 13 13 12 11 11 10 9 9 9 9 9 9 9 9 9 10 10 10 10 10 9 9 9 9 8 8 8 8 9 9 9 9 10 9 9 10 9 10 10 10
11 10 12 13 14 14 14 13 13 13 11 11 10 9 9 9 9 9 9 10 9 9 9 9 10 10 10 10 10 10 9 9 9 9 9 9 9 9 9 10 10 9 9 9 9 10 9 9 9
10 11 12 12 13 14 15 14 14 12 11 10 9 10 10 10 9 9 9 10 9 9 9 9 9 10 10 10 10 10 10 9 9 9 9 9 9 9 9 9 9 10 10 10 9 9 9 9 9
10 10 11 12 13 14 14 15 12 12 12 11 11 10 10 10 11 9 11 10 10 9 9 9 9 9 10 10 10 10 10 10 9 9 9 9 9 9 9 9 10 10 10 9 10 9 9 9 9
11 12 12 13 13 13 14 10 12 12 12 11 10 10 9 10 10 10 10 10 10 9 9 9 9 9 9 10 9 9 9 9 9 9 9 9 9 9 9 9 9 9 9 10 10 9 9 9 9

GFSSGP_700_temp_123.txt.gz
Temp
12 12 12 12 11 14 15 14 14 13 12 12 11 11 10 10 10 9 6 7 7 7 6 7 6 6 6 6 6 6 7 7 7 7 8 8 8 8 8 8 9 9 9 9 9 9 9 9 9
12 12 13 12 12 15 14 14 14 13 11 11 10 10 10 9 9 8 8 8 7 7 7 7 7 7 6 6 6 7 7 7 7 8 8 8 8 8 8 8 9 9 9 9 9 9 9 9 9
12 12 11 13 13 15 14 14 13 11 11 10 10 10 10 8 7 7 8 8 7 7 7 7 7 7 7 7 7 8 8 8 8 8 8 8 8 8 9 8 9 9 9 9 9 9 9 9 9
11 11 12 13 14 14 14 13 12 11 11 11 10 9 9 8 8 7 8 7 6 7 8 8 7 7 8 7 8 7 8 8 8 8 8 9 9 9 9 8 8 9 9 9 9 9 9 9 9
11 11 13 13 14 14 14 12 12 12 11 11 11 9 8 8 7 7 7 7 7 7 8 8 8 8 8 8 8 8 8 8 8 8 9 9 9 9 9 9 9 8 9 9 9 9 10 9 10
10 12 12 13 13 14 13 12 12 11 11 10 10 9 8 7 7 7 7 7 7 7 6 8 8 8 8 8 8 8 8 8 9 9 8 9 9 9 9 9 9 9 9 9 9 10 10 10 10
10 12 11 14 14 13 12 12 12 12 12 11 11 9 8 7 7 7 7 7 7 6 6 8 8 8 8 8 8 8 8 8 8 8 8 8 9 9 9 9 9 9 9 9 9 10 10 10 10
11 12 13 12 14 12 12 12 12 12 11 11 11 10 8 8 7 7 7 7 6 7 7 8 8 8 8 8 8 8 8 8 8 8 8 9 9 8 9 9 9 9 9 9 10 10 10 9 9
11 11 12 13 13 12 11 11 11 11 11 11 10 10 9 10 7 7 7 7 6 6 7 6 8 8 8 8 8 8 8 8 8 8 9 9 8 8 9 9 9 9 9 9 9 10 9 9 9
11 11 11 12 11 11 11 11 11 11 11 10 11 9 10 9 7 7 7 7 6 7 7 8 7 8 8 8 8 8 7 8 8 9 9 9 9 9 8 9 9 9 9 9 9 9 9 9 9
11 11 11 12 11 11 11 11 11 11 11 12 10 9 9 7 8 8 8 8 7 7 8 7 8 7 8 8 8 8 7 8 8 9 9 9 8 8 8 8 8 8 8 9 9 9 9 9 7
11 10 11 10 11 10 10 10 11 11 10 11 10 9 8 8 8 8 8 8 7 7 7 6 8 7 8 7 6 6 7 7 8 8 8 8 8 8 8 7 8 8 8 8 8 9 9 9 9
11 11 11 9 9 9 9 10 10 10 11 11 10 9 9 8 9 9 8 8 7 6 6 6 9 9 8 7 6 6 6 6 8 8 8 6 6 8 8 8 7 6 6 6 7 7 8 10 10
11 11 10 9 9 9 10 10 10 11 10 10 10 10 10 9 9 8 8 7 7 7 7 7 9 9 9 8 7 8 7 6 6 7 8 8 7 8 8 8 6 6 7 6 7 8 7 7 10
12 11 10 10 9 10 9 10 10 11 10 10 10 10 10 9 9 8 8 7 7 7 6 9 9 9 9 9 8 7 6 6 6 8 8 8 8 8 8 8 8 6 8 9 9 9 8 7 11
13 13 12 11 10 10 10 10 10 10 10 10 10 10 10 9 9 8 7 7 7 7 9 9 6 9 8 8 8 6 6 6 7 9 8 8 8 9 8 8 6 9 9 7 7 7 8 8 9
14 14 13 12 10 9 10 9 10 10 9 9 10 11 10 9 9 9 8 7 9 9 9 9 8 9 8 9 8 7 8 7 8 7 7 8 8 8 7 6 8 9 6 7 8 7 7 8 8
16 15 15 13 11 10 10 9 10 10 10 9 10 10 11 10 9 9 8 8 8 10 10 9 9 8 9 9 8 7 8 7 7 8 7 8 8 8 8 7 9 8 7 9 10 7 8 8 8
15 15 14 13 12 11 11 11 10 10 11 10 9 11 11 11 10 9 8 8 7 10 10 10 9 10 9 9 9 7 7 7 7 6 8 8 8 8 8 6 8 8 8 9 9 9 9 8 9
14 14 14 12 11 11 12 11 11 10 11 11 9 10 11 11 10 9 9 8 7 9 10 10 10 9 9 9 8 8 7 7 8 8 8 8 8 8 8 8 7 9 8 9 10 9 8 8 8
14 15 15 14 11 11 11 12 12 11 11 11 10 10 11 11 10 10 9 9 8 7 9 10 10 10 9 9 8 8 9 8 8 8 8 9 8 8 8 8 9 8 8 9 9 9 10 10 10
15 14 14 13 12 14 11 15 13 12 11 12 11 11 10 10 11 10 10 9 9 8 8 10 10 10 10 9 8 9 8 7 8 7 8 8 9 8 8 8 8 9 9 9 9 9 10 10 10
14 14 13 13 13 14 14 13 15 14 12 10 9 10 10 11 11 11 10 9 9 8 7 8 10 11 11 10 9 9 8 8 9 8 8 9 9 9 9 9 9 9 9 9 10 10 10 10 9
13 13 13 13 14 15 15 15 16 15 13 12 10 9 10 10 11 11 10 10 9 9 7 7 10 10 10 10 9 9 9 9 8 8 8 8 9 9 9 9 9 9 9 9 9 10 10 10 10
12 13 15 16 16 17 15 16 16 15 13 13 11 10 10 10 10 10 10 10 9 9 8 7 10 10 10 10 10 9 9 9 9 8 9 7 8 8 8 9 9 9 9 9 9 10 10 10 10
13 14 16 16 18 14 14 16 15 14 14 14 12 11 9 9 10 10 10 10 10 9 8 7 10 10 10 10 10 10 10 9 9 9 9 9 9 9 8 9 9 9 10 9 9 10 10 10 10
14 14 14 16 16 18 15 14 15 13 13 13 13 11 10 10 10 9 11 11 9 9 8 7 9 10 10 10 10 10 10 10 10 10 10 9 9 10 10 10 10 10 10 10 10 10 9 9 10
12 12 13 15 16 16 17 16 16 12 13 12 12 11 10 10 10 10 11 10 10 9 9 7 8 10 10 10 10 10 10 10 10 10 10 9 9 9 9 9 10 10 10 10 10 10 10 9 9
13 13 12 13 12 14 17 15 10 12 12 12 12 11 11 9 9 10 9 10 10 9 9 9 8 9 10 10 10 10 10 10 10 10 10 10 10 10 9 10 10 10 10 10 10 9 9 10 10
13 12 13 15 15 13 12 12 12 12 12 11 11 11 10 9 10 10 10 9 10 9 8 9 9 9 10 10 10 10 10 10 10 10 10 9 9 9 9 9 10 10 10 10 9 9 9 9 9

GFSSGP_700_temp_126.txt.gz
Temp
12 12 11 11 10 12 15 15 14 12 13 12 11 11 10 10 10 9 8 7 7 7 6 6 6 6 6 6 6 6 7 7 7 8 8 8 9 9 8 8 9 9 9 9 9 9 9 9 9
12 13 11 10 11 15 15 14 14 13 12 12 11 11 10 9 10 9 8 8 7 8 7 7 6 6 6 6 6 6 7 7 8 8 8 8 8 9 9 9 9 9 9 9 9 9 9 9 9
13 12 11 11 13 14 15 14 13 12 11 11 11 10 9 8 8 9 8 7 7 7 7 7 7 7 6 7 7 7 7 8 8 8 8 9 8 8 9 9 9 9 9 9 9 9 9 9 9
12 10 11 12 13 15 15 13 13 12 12 11 11 10 9 8 9 9 8 7 7 7 6 7 8 8 8 7 7 8 8 8 8 8 8 9 8 8 8 8 9 9 9 9 9 9 9 10 9
10 10 10 14 15 15 14 13 13 12 12 11 10 10 9 8 9 8 7 7 7 7 7 7 8 8 8 8 8 7 8 8 8 9 8 8 9 8 8 8 8 9 9 9 10 10 10 9 9
10 10 10 12 15 14 14 13 13 12 12 11 10 9 8 8 7 8 8 7 7 8 8 8 9 8 8 8 8 8 8 8 8 9 9 8 9 9 9 9 9 9 9 10 10 10 9 10 10
11 9 11 12 12 14 13 12 13 13 12 12 10 9 8 8 8 7 7 7 7 8 8 9 9 9 8 8 8 8 8 8 9 8 9 9 9 9 9 9 9 9 9 10 10 10 10 9 10
11 11 11 11 10 13 13 13 13 13 12 12 10 9 9 8 8 7 7 7 8 8 8 9 9 9 9 9 9 8 9 9 9 8 9 8 9 9 9 9 9 9 9 10 9 9 9 9 9
12 11 10 10 11 11 12 12 12 12 12 12 11 10 9 8 8 8 7 7 7 7 7 7 8 8 9 9 9 8 9 9 9 9 9 9 9 9 9 9 9 9 9 9 9 9 9 9 9
12 11 10 11 11 12 12 12 12 13 12 11 11 10 10 8 8 8 8 7 7 7 7 7 7 8 8 8 8 8 8 8 9 9 9 9 9 9 9 9 9 9 9 9 9 9 9 9 9
12 11 11 10 11 11 11 11 12 12 12 12 10 9 9 8 8 8 8 8 7 7 8 8 6 7 8 8 7 8 7 9 9 9 9 9 9 9 9 9 9 9 9 9 9 9 9 10 9
12 12 12 10 11 11 10 10 11 12 11 11 10 9 9 8 9 9 8 8 7 7 8 8 8 8 9 7 7 7 8 8 9 9 8 8 9 9 9 8 8 9 9 8 10 9 9 9 8
12 12 12 10 10 10 11 10 11 11 11 11 10 9 9 9 9 9 8 8 7 7 7 7 8 8 9 8 7 7 8 9 9 9 9 8 8 9 9 9 8 9 8 8 9 9 10 10 10
13 11 12 11 10 10 10 9 11 11 12 11 10 10 10 10 9 9 8 8 8 7 7 8 7 7 8 8 9 7 7 7 9 9 8 8 8 8 9 9 8 8 8 8 9 10 11 10 11
13 13 12 12 10 10 10 10 10 11 11 11 11 11 10 10 9 9 8 8 8 7 8 9 9 9 9 9 9 7 8 7 8 8 8 9 9 9 9 10 9 8 9 9 10 10 8 9 11
14 14 12 11 12 10 10 10 10 11 11 11 11 11 10 10 9 9 8 8 8 7 8 9 9 9 9 9 9 7 7 7 8 8 9 9 9 9 9 8 10 10 10 9 9 10 9 9 11
14 15 13 12 10 11 10 10 10 10 10 10 11 11 10 10 9 9 8 8 8 8 9 8 9 9 9 8 9 9 8 8 8 8 8 9 10 10 9 9 8 9 9 8 9 10 9 9 10
16 16 15 12 11 10 11 10 11 11 11 10 10 11 11 10 10 9 8 8 8 8 9 8 9 8 9 9 9 8 9 9 8 7 9 9 9 9 9 9 9 8 8 8 7 8 9 9 8
16 15 15 13 12 12 13 11 12 12 10 9 9 10 11 10 11 9 9 8 8 8 9 9 10 9 9 8 8 8 9 8 7 8 9 9 9 9 8 9 8 10 8 7 8 8 8 9 8
16 16 15 14 13 13 13 13 12 11 12 11 11 11 11 11 10 11 9 8 8 9 10 10 9 9 9 9 9 9 9 8 7 9 9 9 9 9 8 8 8 9 9 8 8 9 9 9 9
15 16 16 15 13 13 13 13 13 13 11 10 10 10 11 11 11 9 10 9 9 9 10 10 10 9 10 10 9 9 9 8 8 9 9 9 9 8 8 8 10 8 9 9 8 10 9 9 9
15 16 16 15 14 14 13 12 15 14 12 10 10 10 12 12 11 10 10 9 8 10 10 10 10 9 10 10 10 9 9 9 8 9 10 9 9 9 9 9 9 8 8 8 7 10 10 9 8
15 15 15 15 14 14 14 14 16 15 13 11 10 10 11 11 11 11 10 10 9 9 10 11 10 10 10 10 10 10 9 9 9 8 9 10 9 9 10 10 10 10 10 9 11 11 11 10 9
15 15 14 14 15 15 16 16 17 16 15 13 11 11 10 11 11 11 11 10 10 9 10 11 11 10 10 10 10 10 9 10 9 9 9 9 9 9 9 10 10 10 11 11 11 11 11 10 10
14 14 15 16 16 16 16 17 17 15 14 14 12 11 11 11 11 11 10 10 11 10 9 10 11 10 10 10 10 10 10 10 9 10 9 10 10 10 10 10 10 10 11 11 11 11 11 11 10
14 14 16 16 17 16 15 15 14 15 14 15 12 12 11 10 11 11 11 10 9 10 10 9 11 11 10 10 10 10 10 10 10 10 10 10 9 9 9 10 10 10 11 10 11 10 10 10 11
14 15 15 16 17 18 18 16 13 13 13 14 14 13 12 12 11 11 10 10 11 9 11 11 10 10 11 10 10 10 10 10 10 10 10 10 10 10 11 10 10 11 11 11 10 10 10 11 10
14 14 14 15 16 16 18 14 11 12 13 13 13 13 12 10 10 11 11 10 10 10 10 10 11 11 10 11 10 10 10 10 10 11 10 10 10 10 10 10 10 10 10 11 11 11 10 10 10
14 14 14 14 14 15 16 11 11 12 12 13 12 12 11 11 10 10 10 10 9 11 10 10 11 11 10 11 11 11 11 10 10 10 10 10 10 10 10 10 10 10 10 10 10 10 10 10 10
14 15 14 14 14 15 13 14 12 13 12 12 11 12 10 10 10 9 10 10 10 9 9 10 11 11 11 11 11 11 11 11 10 10 10 10 10 10 10 10 10 10 10 10 10 10 10 10 10